GEFSMW_prec_meanprecacc_054.txt.gz
Total_Precipitation_Accumulation
0.00 0.00 0.00 0.00 0.00 0.00 0.00 0.00 0.00 0.01 0.08 0.17 0.19 0.19 0.17 0.16 0.13 0.11 0.14 0.14 0.14 0.16 0.13 0.07 0.05 0.05 0.04 0.03 0.03 0.03 0.03 0.03 0.03 0.02 0.01 0.00 0.00 0.00 0.00 0.00 0.00 0.00 0.00
0.00 0.00 0.00 0.00 0.00 0.00 0.00 0.00 0.00 0.00 0.03 0.08 0.14 0.20 0.23 0.23 0.20 0.19 0.18 0.16 0.16 0.18 0.16 0.11 0.10 0.10 0.09 0.07 0.06 0.06 0.05 0.05 0.06 0.04 0.03 0.01 0.00 0.00 0.00 0.00 0.00 0.00 0.00
0.00 0.00 0.00 0.00 0.00 0.00 0.00 0.00 0.00 0.00 0.03 0.09 0.18 0.23 0.25 0.21 0.17 0.12 0.11 0.13 0.18 0.19 0.16 0.17 0.17 0.15 0.14 0.11 0.11 0.10 0.08 0.08 0.09 0.08 0.06 0.02 0.01 0.01 0.00 0.01 0.01 0.01 0.01
0.00 0.00 0.00 0.00 0.00 0.00 0.00 0.00 0.00 0.00 0.02 0.06 0.10 0.11 0.09 0.08 0.08 0.11 0.16 0.19 0.21 0.21 0.21 0.20 0.20 0.19 0.17 0.14 0.16 0.18 0.17 0.15 0.12 0.12 0.09 0.07 0.04 0.02 0.01 0.02 0.03 0.03 0.02
0.00 0.00 0.00 0.00 0.00 0.00 0.00 0.00 0.00 0.00 0.00 0.03 0.07 0.10 0.09 0.07 0.09 0.13 0.16 0.16 0.18 0.21 0.22 0.22 0.22 0.20 0.20 0.20 0.22 0.24 0.24 0.22 0.19 0.16 0.17 0.17 0.11 0.05 0.04 0.03 0.04 0.05 0.05
0.00 0.00 0.00 0.00 0.00 0.00 0.00 0.00 0.00 0.00 0.00 0.01 0.03 0.05 0.04 0.04 0.07 0.08 0.10 0.11 0.12 0.15 0.19 0.22 0.22 0.23 0.24 0.24 0.26 0.30 0.31 0.32 0.29 0.22 0.19 0.22 0.20 0.16 0.14 0.12 0.08 0.08 0.08
0.00 0.00 0.00 0.00 0.00 0.00 0.00 0.00 0.00 0.00 0.00 0.01 0.02 0.03 0.04 0.06 0.08 0.10 0.12 0.12 0.12 0.12 0.14 0.18 0.20 0.24 0.28 0.33 0.36 0.36 0.36 0.39 0.37 0.33 0.28 0.27 0.25 0.25 0.26 0.24 0.19 0.16 0.14
0.00 0.00 0.00 0.00 0.00 0.00 0.00 0.00 0.00 0.01 0.01 0.01 0.01 0.02 0.03 0.05 0.06 0.08 0.09 0.12 0.14 0.17 0.21 0.23 0.26 0.29 0.32 0.33 0.35 0.35 0.37 0.40 0.40 0.39 0.37 0.31 0.28 0.30 0.33 0.36 0.39 0.36 0.30
0.00 0.00 0.00 0.00 0.00 0.00 0.00 0.00 0.01 0.01 0.02 0.02 0.02 0.02 0.03 0.04 0.04 0.05 0.07 0.09 0.11 0.15 0.19 0.22 0.25 0.26 0.27 0.28 0.30 0.30 0.31 0.34 0.35 0.35 0.35 0.33 0.30 0.31 0.33 0.38 0.43 0.49 0.46
0.00 0.00 0.00 0.00 0.00 0.00 0.00 0.00 0.01 0.02 0.03 0.03 0.03 0.03 0.03 0.04 0.04 0.04 0.05 0.06 0.09 0.12 0.16 0.19 0.21 0.21 0.21 0.21 0.22 0.23 0.23 0.25 0.26 0.26 0.28 0.28 0.27 0.29 0.31 0.35 0.40 0.44 0.48
0.00 0.00 0.00 0.00 0.00 0.00 0.00 0.01 0.02 0.03 0.04 0.04 0.04 0.04 0.04 0.04 0.05 0.05 0.05 0.08 0.10 0.12 0.15 0.17 0.17 0.16 0.15 0.15 0.16 0.16 0.16 0.18 0.18 0.19 0.21 0.23 0.23 0.24 0.26 0.30 0.35 0.39 0.43
0.01 0.00 0.00 0.00 0.00 0.01 0.02 0.03 0.05 0.05 0.04 0.04 0.05 0.05 0.05 0.05 0.05 0.05 0.06 0.08 0.10 0.11 0.12 0.12 0.11 0.10 0.09 0.10 0.11 0.13 0.13 0.14 0.15 0.17 0.19 0.21 0.23 0.26 0.28 0.31 0.34 0.36 0.38
0.01 0.01 0.00 0.01 0.01 0.02 0.04 0.07 0.07 0.05 0.04 0.05 0.06 0.06 0.06 0.07 0.07 0.08 0.08 0.09 0.09 0.09 0.08 0.07 0.07 0.07 0.07 0.09 0.10 0.11 0.11 0.13 0.15 0.17 0.19 0.21 0.23 0.27 0.28 0.29 0.31 0.31 0.31
0.02 0.02 0.02 0.02 0.02 0.03 0.06 0.08 0.07 0.05 0.06 0.07 0.09 0.10 0.11 0.11 0.11 0.11 0.11 0.10 0.09 0.08 0.07 0.06 0.06 0.07 0.07 0.09 0.10 0.11 0.12 0.15 0.16 0.19 0.21 0.24 0.26 0.27 0.28 0.29 0.30 0.28 0.25
0.03 0.02 0.03 0.03 0.04 0.04 0.06 0.08 0.10 0.10 0.11 0.13 0.13 0.14 0.14 0.14 0.14 0.13 0.11 0.09 0.08 0.07 0.07 0.07 0.08 0.09 0.10 0.12 0.13 0.15 0.18 0.22 0.25 0.27 0.29 0.30 0.32 0.31 0.28 0.25 0.22 0.19 0.18
0.03 0.02 0.03 0.04 0.05 0.05 0.06 0.08 0.11 0.12 0.14 0.16 0.15 0.15 0.15 0.14 0.13 0.11 0.10 0.09 0.09 0.10 0.12 0.13 0.16 0.19 0.22 0.30 0.27 0.23 0.23 0.27 0.29 0.30 0.30 0.29 0.28 0.24 0.22 0.20 0.18 0.19 0.23
0.04 0.03 0.03 0.03 0.04 0.04 0.08 0.13 0.16 0.15 0.16 0.17 0.15 0.15 0.15 0.16 0.15 0.13 0.15 0.20 0.23 0.25 0.28 0.30 0.32 0.35 0.41 0.46 0.40 0.36 0.31 0.31 0.31 0.29 0.26 0.23 0.20 0.18 0.14 0.12 0.13 0.15 0.19
0.03 0.02 0.02 0.03 0.03 0.04 0.08 0.15 0.21 0.24 0.27 0.29 0.25 0.21 0.22 0.26 0.30 0.35 0.38 0.44 0.51 0.55 0.57 0.58 0.56 0.53 0.52 0.49 0.41 0.37 0.32 0.30 0.26 0.21 0.16 0.13 0.10 0.08 0.08 0.09 0.14 0.11 0.08
0.04 0.03 0.03 0.03 0.04 0.05 0.08 0.13 0.22 0.28 0.33 0.37 0.39 0.39 0.41 0.48 0.53 0.60 0.65 0.66 0.72 0.71 0.67 0.65 0.60 0.53 0.46 0.37 0.28 0.21 0.17 0.15 0.13 0.10 0.07 0.06 0.05 0.06 0.10 0.15 0.17 0.07 0.01
0.08 0.05 0.05 0.06 0.08 0.10 0.14 0.21 0.29 0.38 0.44 0.48 0.54 0.55 0.57 0.60 0.62 0.62 0.62 0.60 0.60 0.57 0.50 0.45 0.39 0.33 0.28 0.21 0.15 0.11 0.08 0.06 0.05 0.03 0.02 0.02 0.03 0.06 0.12 0.13 0.09 0.02 0.01
0.18 0.16 0.16 0.17 0.19 0.22 0.29 0.38 0.45 0.53 0.58 0.59 0.63 0.64 0.60 0.58 0.54 0.47 0.40 0.36 0.32 0.28 0.25 0.22 0.18 0.15 0.11 0.08 0.06 0.04 0.03 0.02 0.02 0.01 0.01 0.01 0.04 0.10 0.12 0.07 0.02 0.02 0.05
0.18 0.22 0.25 0.26 0.27 0.31 0.39 0.46 0.52 0.55 0.51 0.46 0.42 0.39 0.34 0.29 0.26 0.22 0.18 0.16 0.13 0.11 0.10 0.08 0.06 0.04 0.03 0.02 0.01 0.01 0.02 0.02 0.02 0.01 0.01 0.02 0.07 0.08 0.04 0.01 0.01 0.03 0.03
0.05 0.09 0.15 0.18 0.18 0.19 0.22 0.24 0.23 0.21 0.18 0.15 0.12 0.11 0.10 0.09 0.09 0.08 0.06 0.05 0.04 0.03 0.02 0.01 0.01 0.00 0.00 0.00 0.00 0.00 0.01 0.03 0.03 0.02 0.04 0.05 0.04 0.01 0.00 0.00 0.01 0.01 0.00
0.02 0.01 0.02 0.03 0.03 0.02 0.02 0.02 0.02 0.02 0.02 0.01 0.01 0.01 0.01 0.01 0.01 0.01 0.00 0.00 0.00 0.00 0.00 0.00 0.00 0.00 0.00 0.00 0.00 0.00 0.01 0.02 0.02 0.03 0.03 0.02 0.00 0.00 0.00 0.00 0.00 0.00 0.00
0.01 0.01 0.01 0.01 0.01 0.01 0.00 0.00 0.00 0.00 0.00 0.00 0.00 0.00 0.00 0.00 0.00 0.00 0.00 0.00 0.00 0.00 0.00 0.00 0.00 0.00 0.00 0.00 0.01 0.02 0.02 0.03 0.03 0.03 0.01 0.00 0.00 0.00 0.00 0.00 0.00 0.00 0.01
0.01 0.01 0.02 0.02 0.01 0.01 0.00 0.00 0.00 0.00 0.00 0.00 0.00 0.00 0.00 0.00 0.00 0.00 0.00 0.00 0.00 0.00 0.00 0.00 0.00 0.00 0.00 0.01 0.01 0.02 0.03 0.03 0.03 0.01 0.00 0.00 0.00 0.00 0.00 0.00 0.01 0.01 0.01

GEFSMW_prec_meanprecacc_060.txt.gz
Total_Precipitation_Accumulation
0.00 0.00 0.00 0.01 0.01 0.01 0.01 0.01 0.01 0.03 0.09 0.18 0.20 0.20 0.18 0.17 0.14 0.13 0.15 0.16 0.15 0.18 0.15 0.09 0.07 0.07 0.05 0.05 0.05 0.05 0.05 0.04 0.06 0.05 0.02 0.01 0.01 0.01 0.01 0.01 0.01 0.01 0.02
0.00 0.00 0.00 0.00 0.00 0.00 0.00 0.00 0.00 0.01 0.04 0.09 0.15 0.21 0.25 0.24 0.21 0.21 0.20 0.19 0.19 0.21 0.19 0.14 0.13 0.13 0.12 0.10 0.09 0.08 0.07 0.07 0.09 0.08 0.06 0.02 0.00 0.00 0.01 0.01 0.01 0.01 0.02
0.00 0.00 0.00 0.00 0.00 0.00 0.00 0.00 0.00 0.00 0.03 0.10 0.19 0.24 0.26 0.22 0.18 0.13 0.12 0.16 0.20 0.21 0.19 0.19 0.20 0.18 0.17 0.13 0.13 0.13 0.11 0.11 0.12 0.12 0.12 0.05 0.01 0.01 0.01 0.02 0.02 0.03 0.02
0.00 0.00 0.00 0.00 0.00 0.00 0.00 0.00 0.00 0.00 0.02 0.06 0.11 0.11 0.10 0.08 0.08 0.11 0.17 0.20 0.22 0.22 0.22 0.21 0.21 0.20 0.19 0.16 0.18 0.21 0.19 0.18 0.14 0.14 0.11 0.09 0.06 0.04 0.02 0.02 0.04 0.05 0.04
0.00 0.00 0.00 0.00 0.00 0.00 0.00 0.00 0.00 0.00 0.00 0.03 0.07 0.10 0.09 0.07 0.09 0.13 0.16 0.16 0.18 0.21 0.23 0.23 0.23 0.21 0.21 0.21 0.24 0.26 0.26 0.24 0.21 0.18 0.18 0.18 0.12 0.07 0.07 0.05 0.04 0.06 0.07
0.00 0.00 0.00 0.00 0.00 0.00 0.00 0.00 0.00 0.00 0.00 0.01 0.03 0.05 0.04 0.04 0.07 0.08 0.10 0.11 0.12 0.15 0.19 0.22 0.22 0.23 0.25 0.25 0.27 0.31 0.33 0.34 0.30 0.24 0.21 0.24 0.22 0.17 0.16 0.14 0.10 0.10 0.11
0.00 0.00 0.00 0.00 0.00 0.00 0.00 0.00 0.00 0.00 0.00 0.01 0.02 0.03 0.04 0.06 0.08 0.10 0.12 0.12 0.12 0.12 0.14 0.18 0.20 0.24 0.28 0.33 0.37 0.37 0.36 0.40 0.39 0.35 0.30 0.29 0.27 0.27 0.28 0.27 0.22 0.18 0.17
0.00 0.00 0.00 0.00 0.00 0.00 0.00 0.00 0.00 0.01 0.01 0.01 0.01 0.02 0.03 0.05 0.06 0.08 0.09 0.12 0.14 0.17 0.21 0.23 0.26 0.29 0.32 0.33 0.35 0.35 0.37 0.40 0.41 0.41 0.38 0.33 0.30 0.32 0.35 0.38 0.42 0.40 0.34
0.00 0.00 0.00 0.00 0.00 0.00 0.00 0.00 0.01 0.01 0.02 0.02 0.02 0.02 0.03 0.04 0.04 0.05 0.07 0.09 0.11 0.15 0.19 0.22 0.25 0.26 0.27 0.28 0.30 0.30 0.32 0.34 0.35 0.35 0.36 0.35 0.32 0.32 0.35 0.40 0.46 0.52 0.50
0.00 0.00 0.00 0.00 0.00 0.00 0.00 0.00 0.01 0.02 0.03 0.03 0.03 0.03 0.03 0.04 0.04 0.04 0.05 0.06 0.09 0.12 0.16 0.19 0.21 0.21 0.21 0.21 0.22 0.23 0.24 0.26 0.26 0.26 0.28 0.29 0.28 0.29 0.32 0.36 0.41 0.47 0.53
0.00 0.00 0.00 0.00 0.00 0.00 0.00 0.01 0.02 0.03 0.04 0.04 0.04 0.04 0.04 0.04 0.05 0.05 0.05 0.08 0.10 0.12 0.15 0.17 0.17 0.16 0.15 0.15 0.16 0.16 0.17 0.18 0.18 0.19 0.21 0.23 0.23 0.25 0.27 0.31 0.36 0.41 0.46
0.01 0.00 0.00 0.00 0.00 0.01 0.02 0.03 0.05 0.05 0.04 0.04 0.05 0.05 0.05 0.05 0.05 0.05 0.06 0.08 0.10 0.11 0.12 0.12 0.11 0.10 0.09 0.10 0.11 0.13 0.13 0.14 0.15 0.17 0.19 0.21 0.23 0.26 0.28 0.31 0.34 0.37 0.38
0.01 0.01 0.00 0.01 0.01 0.02 0.04 0.07 0.07 0.05 0.04 0.05 0.06 0.06 0.06 0.07 0.07 0.08 0.08 0.09 0.09 0.09 0.08 0.07 0.07 0.07 0.07 0.09 0.10 0.11 0.11 0.13 0.15 0.17 0.19 0.21 0.23 0.27 0.28 0.29 0.31 0.32 0.31
0.02 0.02 0.02 0.02 0.02 0.03 0.06 0.08 0.07 0.05 0.06 0.07 0.09 0.10 0.11 0.11 0.11 0.11 0.11 0.10 0.09 0.08 0.07 0.06 0.06 0.07 0.07 0.09 0.10 0.11 0.12 0.15 0.16 0.19 0.21 0.24 0.26 0.27 0.28 0.29 0.30 0.28 0.25
0.03 0.02 0.03 0.03 0.04 0.04 0.06 0.08 0.10 0.10 0.11 0.13 0.13 0.14 0.14 0.14 0.14 0.13 0.11 0.09 0.08 0.07 0.07 0.07 0.08 0.09 0.10 0.12 0.13 0.15 0.18 0.22 0.25 0.27 0.29 0.30 0.32 0.31 0.28 0.25 0.22 0.19 0.18
0.03 0.02 0.03 0.04 0.05 0.05 0.06 0.08 0.11 0.12 0.14 0.16 0.15 0.15 0.15 0.14 0.13 0.11 0.10 0.09 0.09 0.10 0.12 0.13 0.16 0.19 0.22 0.30 0.27 0.23 0.23 0.27 0.29 0.30 0.30 0.29 0.28 0.25 0.22 0.20 0.18 0.19 0.23
0.04 0.03 0.03 0.03 0.04 0.04 0.08 0.13 0.16 0.15 0.16 0.17 0.15 0.15 0.15 0.16 0.15 0.13 0.15 0.20 0.23 0.25 0.28 0.30 0.32 0.35 0.41 0.46 0.40 0.36 0.31 0.31 0.31 0.29 0.26 0.23 0.20 0.18 0.14 0.12 0.13 0.15 0.19
0.03 0.02 0.02 0.03 0.03 0.04 0.08 0.15 0.21 0.24 0.27 0.29 0.25 0.21 0.22 0.26 0.30 0.35 0.38 0.44 0.51 0.55 0.57 0.58 0.56 0.53 0.52 0.49 0.41 0.37 0.32 0.30 0.26 0.21 0.16 0.13 0.10 0.08 0.08 0.09 0.14 0.11 0.08
0.04 0.03 0.03 0.03 0.04 0.05 0.08 0.13 0.22 0.28 0.33 0.37 0.39 0.39 0.41 0.48 0.53 0.60 0.65 0.66 0.72 0.71 0.67 0.65 0.60 0.53 0.46 0.37 0.28 0.21 0.17 0.15 0.13 0.10 0.07 0.06 0.05 0.06 0.10 0.15 0.17 0.07 0.01
0.08 0.05 0.05 0.06 0.08 0.10 0.14 0.21 0.29 0.38 0.44 0.48 0.54 0.55 0.57 0.60 0.62 0.62 0.62 0.60 0.60 0.57 0.50 0.45 0.39 0.33 0.28 0.21 0.15 0.11 0.08 0.06 0.05 0.03 0.02 0.02 0.03 0.06 0.12 0.13 0.09 0.02 0.01
0.18 0.16 0.16 0.17 0.19 0.22 0.29 0.38 0.45 0.53 0.58 0.59 0.63 0.64 0.60 0.58 0.54 0.47 0.40 0.36 0.32 0.28 0.25 0.22 0.18 0.15 0.11 0.08 0.06 0.04 0.03 0.02 0.02 0.01 0.01 0.01 0.04 0.10 0.12 0.07 0.02 0.02 0.05
0.18 0.23 0.26 0.26 0.27 0.32 0.39 0.46 0.52 0.55 0.51 0.46 0.42 0.39 0.34 0.29 0.26 0.22 0.18 0.16 0.13 0.11 0.10 0.08 0.06 0.04 0.03 0.02 0.01 0.01 0.02 0.02 0.02 0.01 0.01 0.02 0.07 0.08 0.04 0.01 0.01 0.03 0.03
0.06 0.10 0.15 0.18 0.19 0.20 0.22 0.24 0.23 0.21 0.18 0.15 0.12 0.11 0.10 0.09 0.09 0.08 0.06 0.05 0.04 0.03 0.02 0.01 0.01 0.00 0.00 0.00 0.00 0.00 0.01 0.03 0.03 0.02 0.04 0.05 0.04 0.01 0.00 0.00 0.01 0.01 0.00
0.04 0.03 0.03 0.03 0.03 0.03 0.03 0.03 0.02 0.02 0.02 0.01 0.01 0.01 0.01 0.01 0.01 0.01 0.00 0.00 0.00 0.00 0.00 0.00 0.00 0.00 0.00 0.00 0.00 0.00 0.01 0.02 0.02 0.03 0.03 0.02 0.00 0.00 0.00 0.00 0.00 0.00 0.00
0.03 0.03 0.03 0.03 0.03 0.02 0.01 0.01 0.01 0.00 0.00 0.00 0.00 0.00 0.00 0.00 0.00 0.00 0.00 0.00 0.00 0.00 0.00 0.00 0.00 0.00 0.00 0.00 0.01 0.02 0.02 0.03 0.03 0.03 0.01 0.00 0.00 0.00 0.00 0.00 0.00 0.00 0.01
0.03 0.03 0.04 0.04 0.04 0.03 0.02 0.01 0.01 0.00 0.00 0.00 0.00 0.00 0.00 0.00 0.00 0.00 0.00 0.00 0.00 0.00 0.00 0.00 0.00 0.00 0.00 0.01 0.01 0.02 0.03 0.03 0.03 0.01 0.00 0.00 0.00 0.00 0.00 0.00 0.01 0.01 0.01

GEFSMW_prec_meanprecacc_066.txt.gz
Total_Precipitation_Accumulation
0.00 0.00 0.01 0.01 0.03 0.04 0.06 0.07 0.07 0.08 0.13 0.21 0.22 0.22 0.19 0.18 0.15 0.13 0.16 0.16 0.16 0.19 0.16 0.09 0.08 0.08 0.06 0.06 0.06 0.06 0.05 0.05 0.06 0.05 0.02 0.01 0.01 0.01 0.01 0.01 0.01 0.01 0.02
0.00 0.00 0.00 0.01 0.02 0.02 0.03 0.04 0.05 0.05 0.08 0.13 0.18 0.23 0.26 0.25 0.22 0.22 0.20 0.19 0.19 0.22 0.20 0.15 0.14 0.15 0.13 0.11 0.10 0.10 0.08 0.08 0.10 0.09 0.07 0.03 0.01 0.00 0.01 0.01 0.01 0.02 0.03
0.00 0.00 0.00 0.00 0.01 0.01 0.01 0.02 0.02 0.03 0.06 0.13 0.21 0.26 0.27 0.23 0.19 0.14 0.13 0.16 0.21 0.22 0.19 0.20 0.21 0.19 0.18 0.14 0.14 0.15 0.13 0.12 0.13 0.13 0.14 0.08 0.02 0.01 0.01 0.02 0.02 0.03 0.02
0.00 0.00 0.00 0.00 0.00 0.00 0.00 0.01 0.01 0.01 0.03 0.07 0.12 0.12 0.10 0.08 0.08 0.11 0.17 0.21 0.22 0.22 0.22 0.21 0.22 0.21 0.19 0.17 0.19 0.22 0.20 0.19 0.16 0.15 0.12 0.11 0.07 0.06 0.04 0.02 0.04 0.05 0.04
0.00 0.00 0.00 0.00 0.00 0.00 0.00 0.00 0.00 0.00 0.01 0.03 0.07 0.11 0.09 0.07 0.09 0.14 0.16 0.16 0.18 0.21 0.23 0.23 0.23 0.21 0.21 0.22 0.24 0.26 0.26 0.25 0.22 0.19 0.20 0.19 0.13 0.08 0.09 0.07 0.05 0.06 0.07
0.00 0.00 0.00 0.00 0.00 0.00 0.00 0.00 0.00 0.00 0.00 0.01 0.03 0.05 0.04 0.04 0.07 0.08 0.10 0.11 0.12 0.15 0.19 0.22 0.22 0.23 0.25 0.25 0.27 0.31 0.33 0.34 0.31 0.26 0.22 0.25 0.23 0.18 0.18 0.16 0.11 0.11 0.11
0.00 0.00 0.00 0.00 0.00 0.00 0.00 0.00 0.00 0.00 0.00 0.01 0.02 0.03 0.04 0.06 0.08 0.10 0.12 0.12 0.12 0.12 0.14 0.18 0.20 0.24 0.28 0.33 0.37 0.37 0.37 0.40 0.39 0.36 0.32 0.31 0.29 0.29 0.30 0.29 0.23 0.19 0.17
0.00 0.00 0.00 0.00 0.00 0.00 0.00 0.00 0.00 0.01 0.01 0.01 0.01 0.03 0.04 0.05 0.06 0.08 0.09 0.12 0.14 0.17 0.21 0.23 0.26 0.29 0.32 0.33 0.35 0.36 0.37 0.40 0.41 0.41 0.39 0.34 0.31 0.33 0.36 0.40 0.44 0.41 0.35
0.00 0.00 0.00 0.00 0.00 0.00 0.00 0.00 0.01 0.01 0.02 0.02 0.02 0.02 0.03 0.04 0.04 0.05 0.07 0.09 0.11 0.15 0.19 0.22 0.25 0.26 0.27 0.28 0.30 0.30 0.32 0.34 0.35 0.36 0.37 0.35 0.32 0.32 0.35 0.40 0.47 0.54 0.51
0.00 0.00 0.00 0.00 0.00 0.00 0.00 0.00 0.01 0.02 0.03 0.03 0.03 0.03 0.03 0.04 0.04 0.04 0.05 0.06 0.09 0.12 0.16 0.19 0.21 0.21 0.21 0.21 0.22 0.23 0.24 0.26 0.26 0.27 0.29 0.29 0.28 0.29 0.32 0.37 0.42 0.48 0.53
0.00 0.00 0.00 0.00 0.00 0.00 0.00 0.01 0.02 0.03 0.04 0.04 0.04 0.04 0.04 0.04 0.05 0.05 0.05 0.08 0.10 0.12 0.15 0.17 0.17 0.16 0.15 0.15 0.16 0.16 0.17 0.18 0.18 0.19 0.21 0.23 0.23 0.25 0.27 0.31 0.36 0.41 0.46
0.01 0.00 0.00 0.00 0.00 0.01 0.02 0.03 0.05 0.05 0.04 0.04 0.05 0.05 0.05 0.05 0.05 0.05 0.06 0.08 0.10 0.11 0.12 0.12 0.11 0.10 0.09 0.10 0.11 0.13 0.13 0.14 0.15 0.17 0.19 0.21 0.23 0.26 0.28 0.31 0.34 0.37 0.38
0.01 0.01 0.00 0.01 0.01 0.02 0.04 0.07 0.07 0.05 0.04 0.05 0.06 0.06 0.06 0.07 0.07 0.08 0.08 0.09 0.09 0.09 0.08 0.07 0.07 0.07 0.07 0.09 0.10 0.11 0.11 0.13 0.15 0.17 0.19 0.21 0.23 0.27 0.28 0.29 0.31 0.32 0.31
0.02 0.02 0.02 0.02 0.02 0.03 0.06 0.08 0.07 0.05 0.06 0.07 0.09 0.10 0.11 0.11 0.11 0.11 0.11 0.10 0.09 0.08 0.07 0.06 0.06 0.07 0.07 0.09 0.10 0.11 0.12 0.15 0.16 0.19 0.21 0.24 0.26 0.27 0.28 0.29 0.30 0.28 0.25
0.03 0.02 0.03 0.03 0.04 0.04 0.06 0.08 0.10 0.10 0.11 0.13 0.13 0.14 0.14 0.14 0.14 0.13 0.11 0.09 0.08 0.07 0.07 0.07 0.08 0.09 0.10 0.12 0.13 0.15 0.18 0.22 0.25 0.27 0.29 0.30 0.32 0.31 0.28 0.25 0.22 0.19 0.18
0.03 0.02 0.03 0.04 0.05 0.05 0.06 0.08 0.11 0.12 0.14 0.16 0.15 0.15 0.15 0.14 0.13 0.11 0.10 0.09 0.09 0.10 0.12 0.13 0.16 0.19 0.22 0.30 0.27 0.23 0.23 0.27 0.29 0.30 0.30 0.29 0.28 0.25 0.23 0.20 0.18 0.19 0.23
0.04 0.03 0.03 0.03 0.04 0.04 0.08 0.13 0.16 0.15 0.16 0.17 0.15 0.15 0.15 0.16 0.15 0.13 0.15 0.20 0.23 0.25 0.28 0.30 0.32 0.35 0.42 0.46 0.40 0.36 0.31 0.31 0.31 0.29 0.26 0.23 0.20 0.18 0.14 0.12 0.13 0.15 0.19
0.03 0.02 0.02 0.03 0.03 0.04 0.08 0.15 0.21 0.24 0.27 0.29 0.25 0.21 0.22 0.26 0.31 0.35 0.38 0.44 0.51 0.55 0.57 0.58 0.56 0.53 0.52 0.49 0.42 0.37 0.32 0.30 0.26 0.21 0.16 0.13 0.10 0.08 0.08 0.09 0.14 0.11 0.08
0.04 0.03 0.03 0.03 0.04 0.05 0.08 0.13 0.22 0.28 0.33 0.37 0.39 0.39 0.41 0.48 0.53 0.60 0.65 0.66 0.72 0.72 0.67 0.65 0.60 0.53 0.46 0.37 0.28 0.21 0.17 0.15 0.13 0.10 0.07 0.06 0.05 0.06 0.10 0.15 0.17 0.07 0.01
0.08 0.05 0.05 0.06 0.08 0.10 0.14 0.21 0.29 0.38 0.44 0.49 0.54 0.55 0.57 0.60 0.62 0.63 0.62 0.60 0.60 0.58 0.50 0.45 0.39 0.33 0.28 0.21 0.15 0.11 0.08 0.06 0.05 0.03 0.02 0.02 0.03 0.06 0.12 0.13 0.09 0.02 0.01
0.18 0.16 0.16 0.17 0.19 0.22 0.29 0.38 0.45 0.53 0.58 0.59 0.63 0.64 0.60 0.58 0.54 0.47 0.40 0.36 0.32 0.28 0.25 0.22 0.18 0.15 0.11 0.08 0.06 0.04 0.03 0.02 0.02 0.01 0.01 0.01 0.04 0.10 0.12 0.07 0.02 0.02 0.05
0.18 0.23 0.26 0.27 0.27 0.32 0.40 0.47 0.52 0.55 0.51 0.46 0.42 0.39 0.34 0.29 0.26 0.22 0.18 0.16 0.13 0.11 0.10 0.08 0.06 0.04 0.03 0.02 0.01 0.01 0.02 0.02 0.02 0.01 0.01 0.02 0.07 0.08 0.04 0.01 0.01 0.03 0.03
0.06 0.10 0.15 0.18 0.19 0.20 0.23 0.25 0.24 0.22 0.18 0.15 0.13 0.11 0.10 0.09 0.09 0.08 0.07 0.05 0.04 0.03 0.02 0.01 0.01 0.00 0.00 0.00 0.00 0.00 0.01 0.03 0.03 0.02 0.04 0.05 0.04 0.01 0.00 0.00 0.01 0.01 0.00
0.04 0.04 0.04 0.04 0.04 0.04 0.04 0.04 0.04 0.03 0.03 0.02 0.02 0.02 0.02 0.01 0.01 0.01 0.01 0.00 0.00 0.00 0.00 0.00 0.00 0.00 0.00 0.00 0.00 0.00 0.01 0.02 0.02 0.03 0.03 0.02 0.00 0.00 0.00 0.00 0.00 0.00 0.00
0.04 0.04 0.05 0.05 0.04 0.04 0.03 0.03 0.03 0.02 0.02 0.02 0.02 0.01 0.01 0.01 0.00 0.00 0.00 0.00 0.00 0.00 0.00 0.00 0.00 0.00 0.00 0.00 0.01 0.02 0.02 0.03 0.03 0.03 0.01 0.00 0.00 0.00 0.00 0.00 0.00 0.00 0.01
0.03 0.04 0.05 0.06 0.06 0.05 0.04 0.04 0.03 0.03 0.03 0.02 0.02 0.02 0.02 0.01 0.01 0.01 0.00 0.01 0.00 0.01 0.00 0.00 0.00 0.00 0.00 0.01 0.01 0.02 0.03 0.03 0.03 0.01 0.00 0.00 0.00 0.00 0.00 0.00 0.01 0.01 0.01

GEFSMW_prec_meanprecacc_072.txt.gz
Total_Precipitation_Accumulation
0.00 0.01 0.01 0.02 0.03 0.05 0.07 0.09 0.10 0.12 0.20 0.28 0.28 0.27 0.24 0.23 0.19 0.16 0.18 0.18 0.17 0.20 0.17 0.10 0.09 0.09 0.08 0.08 0.09 0.09 0.08 0.07 0.08 0.07 0.03 0.02 0.01 0.01 0.01 0.01 0.01 0.01 0.02
0.00 0.00 0.01 0.01 0.02 0.03 0.04 0.06 0.08 0.11 0.15 0.19 0.24 0.29 0.32 0.31 0.27 0.26 0.23 0.21 0.21 0.23 0.20 0.16 0.16 0.16 0.15 0.13 0.12 0.13 0.11 0.10 0.12 0.11 0.09 0.04 0.01 0.00 0.01 0.01 0.01 0.02 0.03
0.00 0.00 0.00 0.00 0.01 0.01 0.02 0.03 0.05 0.08 0.12 0.19 0.27 0.31 0.32 0.27 0.22 0.17 0.15 0.18 0.22 0.23 0.20 0.21 0.22 0.20 0.19 0.15 0.15 0.17 0.15 0.14 0.15 0.15 0.16 0.10 0.03 0.02 0.01 0.02 0.02 0.03 0.02
0.00 0.00 0.00 0.00 0.00 0.01 0.01 0.02 0.02 0.04 0.07 0.12 0.16 0.16 0.14 0.12 0.13 0.16 0.20 0.23 0.24 0.24 0.23 0.22 0.23 0.22 0.20 0.17 0.20 0.23 0.22 0.21 0.17 0.16 0.14 0.12 0.09 0.08 0.05 0.03 0.04 0.05 0.04
0.00 0.00 0.00 0.00 0.00 0.00 0.01 0.01 0.01 0.01 0.02 0.05 0.10 0.14 0.12 0.11 0.13 0.16 0.18 0.18 0.19 0.22 0.24 0.23 0.23 0.22 0.22 0.22 0.24 0.27 0.27 0.26 0.23 0.21 0.21 0.21 0.15 0.11 0.12 0.08 0.06 0.07 0.07
0.00 0.00 0.00 0.00 0.00 0.00 0.01 0.01 0.01 0.01 0.01 0.02 0.05 0.07 0.06 0.06 0.09 0.10 0.12 0.12 0.13 0.15 0.19 0.22 0.23 0.24 0.25 0.25 0.27 0.31 0.34 0.35 0.32 0.27 0.24 0.27 0.25 0.20 0.20 0.19 0.13 0.13 0.12
0.00 0.00 0.00 0.00 0.00 0.00 0.00 0.00 0.01 0.01 0.01 0.01 0.03 0.04 0.06 0.08 0.10 0.11 0.13 0.13 0.12 0.12 0.14 0.18 0.21 0.24 0.28 0.33 0.37 0.37 0.37 0.40 0.40 0.37 0.33 0.32 0.31 0.31 0.32 0.32 0.26 0.21 0.18
0.00 0.00 0.00 0.00 0.00 0.00 0.00 0.00 0.00 0.01 0.01 0.02 0.02 0.03 0.04 0.06 0.07 0.09 0.10 0.12 0.14 0.17 0.21 0.23 0.26 0.29 0.32 0.33 0.35 0.36 0.37 0.40 0.42 0.41 0.40 0.35 0.31 0.33 0.37 0.41 0.46 0.43 0.36
0.00 0.00 0.00 0.00 0.00 0.00 0.00 0.00 0.01 0.01 0.02 0.02 0.03 0.03 0.03 0.04 0.05 0.06 0.07 0.09 0.11 0.15 0.19 0.22 0.25 0.26 0.27 0.28 0.30 0.30 0.32 0.34 0.35 0.36 0.37 0.35 0.32 0.33 0.35 0.40 0.47 0.55 0.52
0.00 0.00 0.00 0.00 0.00 0.00 0.00 0.00 0.01 0.02 0.03 0.03 0.03 0.03 0.03 0.04 0.04 0.04 0.05 0.06 0.09 0.12 0.16 0.19 0.21 0.21 0.21 0.21 0.22 0.23 0.24 0.26 0.26 0.27 0.29 0.29 0.28 0.30 0.32 0.37 0.42 0.48 0.55
0.00 0.00 0.00 0.00 0.00 0.00 0.00 0.01 0.02 0.03 0.04 0.04 0.04 0.04 0.04 0.04 0.05 0.05 0.05 0.08 0.10 0.12 0.15 0.17 0.17 0.16 0.15 0.15 0.16 0.16 0.17 0.18 0.18 0.19 0.21 0.23 0.23 0.25 0.27 0.31 0.36 0.42 0.47
0.01 0.00 0.00 0.00 0.00 0.01 0.02 0.03 0.05 0.05 0.04 0.04 0.05 0.05 0.05 0.05 0.05 0.05 0.06 0.08 0.10 0.11 0.12 0.12 0.11 0.10 0.09 0.10 0.11 0.13 0.13 0.14 0.15 0.17 0.19 0.21 0.23 0.26 0.28 0.31 0.34 0.37 0.39
0.01 0.01 0.00 0.01 0.01 0.02 0.04 0.07 0.07 0.05 0.04 0.05 0.06 0.06 0.06 0.07 0.07 0.08 0.08 0.09 0.09 0.09 0.08 0.07 0.07 0.07 0.07 0.09 0.10 0.11 0.11 0.13 0.15 0.17 0.19 0.21 0.23 0.27 0.28 0.29 0.31 0.32 0.31
0.02 0.02 0.02 0.02 0.02 0.03 0.06 0.08 0.07 0.06 0.06 0.07 0.09 0.10 0.11 0.11 0.11 0.11 0.11 0.10 0.09 0.08 0.07 0.06 0.06 0.07 0.07 0.09 0.10 0.11 0.12 0.15 0.16 0.19 0.21 0.24 0.26 0.27 0.28 0.29 0.30 0.28 0.25
0.03 0.02 0.03 0.03 0.04 0.04 0.06 0.08 0.10 0.10 0.12 0.13 0.13 0.14 0.14 0.14 0.14 0.13 0.11 0.09 0.08 0.07 0.07 0.07 0.08 0.09 0.10 0.12 0.13 0.15 0.18 0.22 0.25 0.27 0.29 0.30 0.32 0.31 0.28 0.25 0.22 0.19 0.18
0.03 0.02 0.03 0.04 0.05 0.05 0.06 0.08 0.11 0.12 0.14 0.16 0.15 0.15 0.15 0.14 0.13 0.11 0.10 0.09 0.09 0.10 0.12 0.13 0.16 0.19 0.22 0.30 0.27 0.23 0.23 0.27 0.29 0.30 0.30 0.29 0.28 0.25 0.23 0.20 0.18 0.19 0.23
0.04 0.03 0.03 0.03 0.04 0.04 0.08 0.13 0.16 0.15 0.16 0.17 0.15 0.15 0.15 0.16 0.15 0.13 0.15 0.20 0.23 0.25 0.28 0.30 0.32 0.35 0.42 0.47 0.40 0.36 0.31 0.31 0.31 0.29 0.26 0.23 0.20 0.18 0.14 0.12 0.13 0.15 0.19
0.03 0.02 0.02 0.03 0.03 0.04 0.08 0.15 0.21 0.24 0.27 0.29 0.25 0.21 0.22 0.26 0.31 0.35 0.38 0.44 0.51 0.55 0.57 0.58 0.56 0.53 0.52 0.49 0.42 0.37 0.32 0.30 0.26 0.21 0.16 0.13 0.10 0.08 0.08 0.09 0.14 0.11 0.08
0.04 0.03 0.03 0.03 0.04 0.05 0.08 0.13 0.22 0.28 0.33 0.37 0.39 0.39 0.41 0.48 0.53 0.60 0.65 0.67 0.72 0.72 0.68 0.65 0.60 0.53 0.46 0.37 0.28 0.21 0.17 0.15 0.13 0.10 0.07 0.06 0.05 0.06 0.10 0.15 0.17 0.07 0.01
0.08 0.05 0.05 0.06 0.08 0.10 0.14 0.21 0.29 0.38 0.44 0.49 0.54 0.55 0.57 0.60 0.62 0.63 0.63 0.60 0.60 0.58 0.50 0.45 0.39 0.33 0.28 0.21 0.15 0.11 0.08 0.06 0.05 0.03 0.02 0.02 0.03 0.06 0.12 0.13 0.09 0.02 0.01
0.18 0.16 0.16 0.17 0.19 0.22 0.29 0.38 0.45 0.53 0.58 0.59 0.63 0.64 0.61 0.58 0.54 0.47 0.40 0.36 0.32 0.28 0.25 0.22 0.18 0.15 0.11 0.08 0.06 0.04 0.03 0.02 0.02 0.01 0.01 0.01 0.04 0.10 0.12 0.07 0.02 0.02 0.05
0.18 0.23 0.26 0.27 0.27 0.32 0.40 0.47 0.52 0.55 0.51 0.46 0.42 0.39 0.34 0.29 0.26 0.22 0.18 0.16 0.13 0.11 0.10 0.08 0.06 0.04 0.03 0.02 0.01 0.01 0.02 0.02 0.02 0.01 0.01 0.02 0.07 0.08 0.04 0.01 0.01 0.03 0.03
0.06 0.10 0.15 0.18 0.19 0.20 0.23 0.25 0.24 0.22 0.18 0.15 0.13 0.11 0.10 0.10 0.09 0.08 0.07 0.05 0.04 0.03 0.02 0.01 0.01 0.00 0.00 0.00 0.00 0.00 0.01 0.03 0.03 0.02 0.04 0.05 0.04 0.01 0.00 0.00 0.01 0.01 0.00
0.04 0.04 0.04 0.04 0.04 0.04 0.04 0.04 0.04 0.03 0.03 0.03 0.03 0.03 0.02 0.02 0.02 0.01 0.01 0.01 0.01 0.00 0.00 0.00 0.00 0.00 0.00 0.00 0.00 0.01 0.01 0.02 0.02 0.03 0.03 0.02 0.00 0.00 0.00 0.00 0.00 0.00 0.00
0.04 0.04 0.05 0.05 0.05 0.04 0.04 0.04 0.03 0.03 0.03 0.03 0.02 0.02 0.02 0.02 0.02 0.02 0.01 0.01 0.01 0.01 0.01 0.00 0.00 0.00 0.00 0.01 0.02 0.02 0.02 0.03 0.03 0.03 0.01 0.00 0.00 0.00 0.00 0.00 0.00 0.00 0.01
0.03 0.04 0.05 0.06 0.06 0.06 0.05 0.05 0.05 0.04 0.04 0.04 0.04 0.04 0.03 0.03 0.03 0.02 0.02 0.02 0.02 0.01 0.01 0.01 0.01 0.01 0.01 0.01 0.02 0.03 0.03 0.03 0.03 0.01 0.00 0.00 0.00 0.00 0.00 0.01 0.01 0.01 0.01

GEFSMW_prec_meanprecacc_078.txt.gz
Total_Precipitation_Accumulation
0.04 0.05 0.07 0.09 0.11 0.14 0.18 0.20 0.19 0.19 0.27 0.34 0.33 0.31 0.28 0.27 0.23 0.20 0.21 0.21 0.19 0.21 0.17 0.10 0.09 0.09 0.08 0.08 0.09 0.09 0.09 0.08 0.09 0.07 0.03 0.02 0.01 0.01 0.01 0.01 0.01 0.01 0.03
0.03 0.03 0.04 0.06 0.08 0.08 0.10 0.14 0.17 0.19 0.21 0.25 0.32 0.38 0.43 0.40 0.35 0.32 0.28 0.24 0.23 0.25 0.22 0.17 0.17 0.17 0.16 0.14 0.14 0.15 0.12 0.11 0.13 0.12 0.11 0.04 0.01 0.00 0.01 0.01 0.01 0.02 0.03
0.01 0.01 0.02 0.03 0.04 0.05 0.07 0.08 0.11 0.15 0.19 0.26 0.36 0.41 0.41 0.36 0.30 0.22 0.21 0.22 0.26 0.26 0.23 0.23 0.24 0.23 0.22 0.18 0.18 0.19 0.17 0.15 0.16 0.17 0.18 0.11 0.04 0.02 0.01 0.02 0.02 0.03 0.03
0.00 0.01 0.01 0.02 0.03 0.04 0.05 0.06 0.07 0.09 0.15 0.22 0.25 0.24 0.20 0.17 0.18 0.22 0.28 0.30 0.29 0.29 0.28 0.27 0.27 0.26 0.24 0.21 0.23 0.26 0.24 0.22 0.18 0.17 0.15 0.14 0.11 0.10 0.06 0.03 0.04 0.05 0.04
0.00 0.00 0.00 0.01 0.01 0.02 0.03 0.04 0.05 0.06 0.08 0.12 0.17 0.22 0.19 0.16 0.18 0.22 0.25 0.25 0.25 0.28 0.29 0.29 0.28 0.26 0.26 0.26 0.27 0.29 0.29 0.27 0.25 0.22 0.22 0.22 0.16 0.12 0.14 0.09 0.06 0.07 0.07
0.00 0.00 0.00 0.00 0.00 0.01 0.02 0.04 0.05 0.06 0.07 0.09 0.12 0.14 0.13 0.13 0.15 0.14 0.15 0.16 0.17 0.20 0.23 0.25 0.26 0.26 0.27 0.27 0.28 0.32 0.35 0.36 0.33 0.28 0.25 0.28 0.26 0.20 0.21 0.20 0.14 0.13 0.12
0.00 0.00 0.00 0.00 0.00 0.01 0.01 0.02 0.03 0.05 0.06 0.08 0.10 0.12 0.14 0.15 0.16 0.17 0.17 0.17 0.16 0.15 0.17 0.20 0.22 0.25 0.29 0.34 0.37 0.37 0.37 0.41 0.40 0.37 0.33 0.33 0.32 0.31 0.33 0.34 0.27 0.22 0.19
0.00 0.00 0.00 0.00 0.00 0.00 0.00 0.00 0.01 0.03 0.05 0.07 0.09 0.10 0.11 0.11 0.11 0.13 0.14 0.15 0.17 0.20 0.23 0.25 0.27 0.30 0.32 0.33 0.35 0.36 0.37 0.41 0.42 0.42 0.40 0.35 0.31 0.33 0.37 0.42 0.46 0.44 0.36
0.00 0.00 0.00 0.00 0.00 0.00 0.00 0.00 0.01 0.02 0.03 0.04 0.06 0.06 0.07 0.08 0.09 0.10 0.10 0.11 0.13 0.16 0.20 0.23 0.26 0.27 0.27 0.28 0.30 0.30 0.32 0.34 0.36 0.36 0.37 0.35 0.32 0.33 0.35 0.41 0.48 0.56 0.53
0.00 0.00 0.00 0.00 0.00 0.00 0.00 0.00 0.01 0.02 0.03 0.04 0.04 0.05 0.05 0.06 0.07 0.07 0.07 0.08 0.10 0.13 0.17 0.20 0.21 0.21 0.21 0.21 0.22 0.23 0.24 0.26 0.26 0.27 0.29 0.29 0.28 0.30 0.32 0.37 0.42 0.49 0.55
0.00 0.00 0.00 0.00 0.00 0.00 0.00 0.01 0.03 0.04 0.04 0.04 0.04 0.05 0.05 0.06 0.06 0.06 0.07 0.09 0.11 0.13 0.15 0.17 0.17 0.16 0.15 0.15 0.16 0.16 0.17 0.18 0.18 0.19 0.21 0.23 0.23 0.25 0.27 0.31 0.37 0.42 0.47
0.01 0.00 0.00 0.00 0.00 0.01 0.02 0.03 0.05 0.06 0.05 0.05 0.05 0.06 0.05 0.05 0.05 0.06 0.06 0.08 0.10 0.11 0.12 0.12 0.11 0.10 0.09 0.10 0.11 0.13 0.13 0.14 0.15 0.17 0.19 0.21 0.23 0.26 0.28 0.31 0.34 0.37 0.39
0.01 0.01 0.00 0.01 0.01 0.02 0.04 0.07 0.07 0.05 0.04 0.05 0.07 0.07 0.07 0.07 0.08 0.08 0.09 0.09 0.09 0.09 0.08 0.07 0.07 0.07 0.07 0.09 0.10 0.11 0.11 0.13 0.15 0.17 0.19 0.21 0.24 0.27 0.28 0.29 0.31 0.32 0.31
0.02 0.02 0.02 0.02 0.02 0.03 0.06 0.08 0.07 0.06 0.06 0.07 0.09 0.10 0.11 0.11 0.12 0.11 0.11 0.10 0.09 0.08 0.07 0.06 0.06 0.07 0.07 0.09 0.10 0.11 0.12 0.15 0.16 0.19 0.21 0.24 0.26 0.27 0.28 0.29 0.30 0.28 0.25
0.03 0.02 0.03 0.03 0.04 0.04 0.06 0.08 0.10 0.10 0.12 0.13 0.13 0.14 0.14 0.14 0.14 0.13 0.11 0.09 0.08 0.07 0.07 0.07 0.08 0.09 0.10 0.12 0.13 0.15 0.18 0.22 0.25 0.27 0.29 0.30 0.32 0.31 0.28 0.25 0.22 0.19 0.18
0.03 0.02 0.03 0.04 0.05 0.05 0.06 0.08 0.11 0.12 0.14 0.16 0.15 0.15 0.15 0.14 0.13 0.11 0.10 0.09 0.09 0.10 0.12 0.13 0.16 0.19 0.22 0.30 0.27 0.23 0.23 0.27 0.29 0.30 0.30 0.29 0.28 0.25 0.23 0.20 0.18 0.19 0.23
0.04 0.03 0.03 0.03 0.04 0.04 0.08 0.13 0.16 0.15 0.17 0.17 0.15 0.15 0.16 0.16 0.15 0.13 0.15 0.20 0.23 0.25 0.28 0.30 0.32 0.35 0.42 0.47 0.40 0.36 0.31 0.31 0.31 0.29 0.26 0.23 0.20 0.18 0.14 0.12 0.13 0.16 0.19
0.03 0.02 0.02 0.03 0.03 0.04 0.08 0.15 0.21 0.24 0.27 0.29 0.25 0.21 0.22 0.26 0.31 0.35 0.38 0.44 0.51 0.55 0.57 0.58 0.56 0.53 0.52 0.50 0.42 0.37 0.32 0.30 0.26 0.21 0.16 0.13 0.10 0.08 0.08 0.09 0.14 0.11 0.08
0.04 0.03 0.03 0.03 0.04 0.05 0.08 0.13 0.22 0.28 0.33 0.37 0.39 0.39 0.41 0.48 0.53 0.60 0.65 0.67 0.72 0.72 0.68 0.65 0.60 0.53 0.46 0.38 0.28 0.21 0.17 0.16 0.13 0.10 0.07 0.06 0.05 0.06 0.10 0.15 0.17 0.07 0.01
0.08 0.05 0.05 0.06 0.08 0.10 0.14 0.21 0.29 0.38 0.44 0.49 0.54 0.55 0.57 0.60 0.62 0.63 0.63 0.60 0.60 0.58 0.50 0.45 0.39 0.33 0.28 0.21 0.15 0.11 0.08 0.07 0.05 0.03 0.02 0.03 0.03 0.06 0.12 0.13 0.09 0.02 0.01
0.18 0.16 0.16 0.17 0.19 0.22 0.29 0.38 0.45 0.53 0.58 0.59 0.63 0.64 0.61 0.58 0.54 0.47 0.40 0.36 0.32 0.28 0.25 0.22 0.18 0.15 0.11 0.08 0.06 0.04 0.03 0.02 0.02 0.01 0.01 0.01 0.04 0.10 0.12 0.07 0.02 0.02 0.05
0.18 0.23 0.26 0.27 0.27 0.32 0.40 0.47 0.52 0.55 0.51 0.46 0.42 0.39 0.34 0.30 0.26 0.22 0.18 0.16 0.13 0.11 0.10 0.08 0.06 0.04 0.03 0.02 0.02 0.01 0.02 0.02 0.02 0.01 0.01 0.02 0.07 0.08 0.04 0.01 0.01 0.03 0.03
0.06 0.10 0.15 0.18 0.19 0.20 0.23 0.25 0.24 0.22 0.19 0.15 0.13 0.11 0.10 0.10 0.09 0.08 0.07 0.05 0.04 0.03 0.02 0.01 0.01 0.00 0.00 0.00 0.00 0.00 0.01 0.03 0.03 0.03 0.04 0.06 0.04 0.01 0.00 0.00 0.01 0.01 0.00
0.05 0.04 0.04 0.04 0.04 0.04 0.04 0.04 0.04 0.04 0.03 0.03 0.03 0.03 0.03 0.03 0.02 0.02 0.02 0.01 0.01 0.01 0.01 0.00 0.00 0.00 0.00 0.00 0.00 0.01 0.01 0.02 0.02 0.03 0.03 0.02 0.00 0.00 0.00 0.00 0.00 0.00 0.00
0.05 0.05 0.05 0.05 0.05 0.04 0.04 0.04 0.04 0.03 0.03 0.03 0.03 0.03 0.03 0.03 0.03 0.02 0.02 0.02 0.02 0.02 0.01 0.01 0.01 0.01 0.01 0.01 0.02 0.03 0.03 0.03 0.03 0.03 0.01 0.00 0.00 0.00 0.00 0.00 0.00 0.00 0.01
0.03 0.04 0.05 0.06 0.06 0.06 0.05 0.05 0.05 0.04 0.04 0.04 0.04 0.04 0.04 0.04 0.04 0.03 0.03 0.03 0.03 0.03 0.03 0.02 0.01 0.01 0.01 0.02 0.03 0.03 0.04 0.04 0.03 0.01 0.00 0.00 0.00 0.00 0.00 0.01 0.01 0.01 0.02

GEFSMW_prec_meanprecacc_084.txt.gz
Total_Precipitation_Accumulation
0.17 0.22 0.25 0.35 0.47 0.57 0.60 0.57 0.53 0.52 0.58 0.61 0.56 0.50 0.43 0.40 0.34 0.29 0.27 0.25 0.22 0.23 0.18 0.11 0.10 0.10 0.09 0.08 0.09 0.09 0.09 0.08 0.09 0.08 0.04 0.02 0.01 0.01 0.01 0.01 0.01 0.01 0.03
0.11 0.14 0.18 0.24 0.32 0.41 0.50 0.56 0.57 0.53 0.51 0.51 0.59 0.65 0.69 0.65 0.57 0.49 0.38 0.33 0.30 0.31 0.27 0.23 0.21 0.19 0.17 0.14 0.14 0.15 0.13 0.11 0.14 0.14 0.12 0.05 0.01 0.00 0.01 0.01 0.01 0.02 0.03
0.06 0.07 0.09 0.12 0.17 0.23 0.35 0.45 0.52 0.57 0.57 0.62 0.74 0.75 0.70 0.59 0.49 0.38 0.34 0.35 0.38 0.39 0.35 0.33 0.32 0.29 0.27 0.21 0.21 0.22 0.20 0.18 0.18 0.19 0.21 0.13 0.04 0.02 0.01 0.02 0.02 0.03 0.03
0.03 0.05 0.05 0.08 0.10 0.13 0.18 0.28 0.39 0.50 0.57 0.71 0.70 0.64 0.53 0.43 0.39 0.45 0.53 0.54 0.51 0.47 0.42 0.38 0.37 0.36 0.32 0.27 0.30 0.32 0.29 0.26 0.21 0.20 0.18 0.17 0.13 0.12 0.06 0.03 0.04 0.05 0.04
0.01 0.02 0.03 0.04 0.06 0.09 0.12 0.14 0.21 0.32 0.41 0.47 0.51 0.59 0.54 0.46 0.47 0.48 0.47 0.45 0.43 0.43 0.41 0.39 0.38 0.36 0.35 0.34 0.35 0.36 0.35 0.32 0.28 0.24 0.24 0.23 0.18 0.13 0.15 0.10 0.06 0.07 0.07
0.00 0.00 0.01 0.01 0.02 0.04 0.08 0.11 0.14 0.18 0.22 0.28 0.36 0.40 0.39 0.40 0.40 0.37 0.36 0.35 0.33 0.34 0.36 0.37 0.36 0.37 0.37 0.37 0.37 0.40 0.41 0.40 0.36 0.30 0.26 0.30 0.27 0.21 0.21 0.21 0.14 0.13 0.12
0.00 0.00 0.00 0.00 0.01 0.01 0.03 0.06 0.07 0.10 0.14 0.19 0.24 0.29 0.35 0.37 0.37 0.36 0.36 0.35 0.33 0.30 0.30 0.33 0.34 0.37 0.40 0.43 0.46 0.44 0.42 0.45 0.43 0.39 0.34 0.34 0.32 0.32 0.34 0.35 0.28 0.22 0.19
0.00 0.00 0.00 0.00 0.00 0.01 0.02 0.03 0.03 0.05 0.09 0.13 0.17 0.20 0.23 0.23 0.24 0.26 0.27 0.27 0.28 0.30 0.32 0.33 0.36 0.38 0.39 0.39 0.41 0.40 0.40 0.42 0.43 0.42 0.40 0.36 0.32 0.34 0.38 0.42 0.47 0.44 0.36
0.00 0.00 0.00 0.00 0.00 0.00 0.01 0.02 0.02 0.03 0.04 0.07 0.09 0.10 0.13 0.14 0.15 0.17 0.19 0.19 0.20 0.23 0.26 0.29 0.31 0.31 0.31 0.31 0.32 0.32 0.33 0.35 0.36 0.36 0.37 0.36 0.32 0.33 0.36 0.41 0.48 0.57 0.54
0.00 0.00 0.00 0.00 0.00 0.01 0.01 0.01 0.02 0.02 0.04 0.05 0.06 0.07 0.07 0.09 0.11 0.11 0.12 0.13 0.16 0.18 0.21 0.24 0.25 0.24 0.23 0.23 0.24 0.24 0.24 0.26 0.26 0.27 0.29 0.29 0.28 0.30 0.32 0.37 0.43 0.49 0.56
0.00 0.00 0.00 0.00 0.00 0.00 0.00 0.01 0.03 0.04 0.05 0.05 0.06 0.06 0.06 0.07 0.08 0.09 0.10 0.12 0.15 0.16 0.17 0.19 0.19 0.17 0.17 0.16 0.16 0.16 0.17 0.18 0.18 0.19 0.21 0.23 0.23 0.25 0.27 0.31 0.37 0.42 0.48
0.01 0.00 0.00 0.00 0.00 0.01 0.02 0.04 0.05 0.06 0.05 0.05 0.06 0.06 0.06 0.06 0.06 0.07 0.07 0.09 0.11 0.12 0.13 0.13 0.12 0.10 0.10 0.10 0.11 0.13 0.13 0.14 0.15 0.17 0.19 0.21 0.23 0.26 0.28 0.31 0.34 0.37 0.39
0.01 0.01 0.00 0.01 0.01 0.02 0.04 0.07 0.07 0.05 0.04 0.06 0.07 0.08 0.08 0.08 0.08 0.09 0.09 0.09 0.09 0.10 0.09 0.08 0.07 0.07 0.08 0.09 0.10 0.11 0.11 0.13 0.15 0.17 0.19 0.21 0.24 0.27 0.28 0.29 0.31 0.32 0.31
0.02 0.02 0.02 0.02 0.02 0.03 0.06 0.09 0.07 0.06 0.06 0.07 0.09 0.10 0.11 0.12 0.13 0.12 0.11 0.11 0.09 0.09 0.08 0.07 0.06 0.07 0.07 0.09 0.10 0.11 0.12 0.15 0.17 0.19 0.21 0.24 0.26 0.27 0.28 0.29 0.30 0.28 0.26
0.03 0.02 0.03 0.03 0.04 0.04 0.06 0.08 0.10 0.10 0.12 0.13 0.13 0.14 0.14 0.14 0.14 0.13 0.12 0.10 0.08 0.07 0.07 0.07 0.09 0.09 0.10 0.12 0.13 0.15 0.18 0.22 0.25 0.27 0.29 0.30 0.32 0.31 0.28 0.25 0.22 0.19 0.18
0.03 0.02 0.03 0.04 0.05 0.05 0.06 0.08 0.11 0.12 0.14 0.16 0.15 0.15 0.15 0.14 0.13 0.11 0.10 0.09 0.09 0.10 0.12 0.13 0.16 0.19 0.22 0.31 0.27 0.23 0.23 0.27 0.29 0.30 0.30 0.29 0.28 0.25 0.23 0.20 0.18 0.19 0.23
0.04 0.03 0.03 0.03 0.04 0.04 0.08 0.13 0.16 0.15 0.17 0.17 0.15 0.15 0.16 0.16 0.15 0.13 0.15 0.20 0.23 0.25 0.28 0.30 0.32 0.35 0.42 0.47 0.40 0.36 0.31 0.31 0.31 0.29 0.26 0.23 0.20 0.18 0.14 0.12 0.13 0.16 0.19
0.03 0.02 0.02 0.03 0.03 0.04 0.08 0.15 0.21 0.24 0.27 0.29 0.25 0.21 0.22 0.26 0.31 0.35 0.38 0.44 0.51 0.55 0.57 0.59 0.56 0.53 0.52 0.50 0.42 0.37 0.32 0.30 0.26 0.21 0.16 0.13 0.10 0.08 0.08 0.09 0.14 0.11 0.08
0.04 0.03 0.03 0.03 0.04 0.05 0.08 0.13 0.22 0.28 0.33 0.37 0.39 0.39 0.41 0.48 0.53 0.60 0.65 0.67 0.72 0.72 0.68 0.65 0.60 0.53 0.46 0.38 0.29 0.21 0.17 0.16 0.13 0.10 0.07 0.06 0.05 0.06 0.10 0.15 0.17 0.07 0.01
0.08 0.05 0.05 0.06 0.08 0.10 0.14 0.21 0.29 0.38 0.44 0.49 0.54 0.55 0.57 0.60 0.62 0.63 0.63 0.60 0.60 0.58 0.50 0.45 0.39 0.33 0.28 0.21 0.15 0.11 0.08 0.07 0.05 0.03 0.02 0.03 0.03 0.07 0.13 0.13 0.09 0.02 0.01
0.18 0.16 0.16 0.17 0.19 0.22 0.29 0.38 0.45 0.53 0.58 0.59 0.63 0.64 0.61 0.58 0.54 0.47 0.40 0.36 0.33 0.28 0.25 0.22 0.18 0.15 0.11 0.09 0.06 0.04 0.03 0.02 0.02 0.01 0.01 0.01 0.04 0.10 0.12 0.07 0.02 0.02 0.05
0.19 0.23 0.26 0.27 0.27 0.32 0.40 0.47 0.52 0.55 0.51 0.46 0.42 0.39 0.34 0.30 0.27 0.23 0.20 0.17 0.15 0.13 0.11 0.08 0.07 0.05 0.03 0.02 0.02 0.01 0.02 0.02 0.02 0.01 0.01 0.02 0.07 0.08 0.04 0.01 0.01 0.03 0.03
0.07 0.11 0.16 0.19 0.19 0.21 0.23 0.25 0.24 0.22 0.19 0.16 0.13 0.12 0.11 0.11 0.10 0.10 0.09 0.07 0.06 0.05 0.04 0.03 0.02 0.01 0.01 0.01 0.00 0.00 0.02 0.03 0.03 0.03 0.04 0.06 0.04 0.01 0.00 0.00 0.01 0.01 0.00
0.05 0.05 0.05 0.05 0.05 0.04 0.05 0.05 0.04 0.04 0.04 0.04 0.04 0.04 0.04 0.04 0.04 0.03 0.03 0.02 0.02 0.02 0.01 0.01 0.01 0.01 0.01 0.01 0.01 0.01 0.01 0.02 0.02 0.03 0.03 0.02 0.00 0.00 0.00 0.00 0.00 0.00 0.00
0.05 0.05 0.06 0.06 0.05 0.05 0.04 0.04 0.04 0.04 0.04 0.04 0.04 0.04 0.05 0.05 0.05 0.04 0.04 0.03 0.03 0.03 0.02 0.01 0.01 0.01 0.01 0.01 0.03 0.03 0.03 0.03 0.03 0.03 0.01 0.00 0.00 0.00 0.00 0.00 0.00 0.00 0.01
0.04 0.05 0.06 0.07 0.07 0.06 0.06 0.06 0.05 0.05 0.05 0.05 0.06 0.06 0.06 0.06 0.05 0.05 0.05 0.06 0.05 0.05 0.05 0.03 0.02 0.02 0.02 0.03 0.03 0.04 0.04 0.04 0.04 0.02 0.01 0.00 0.00 0.00 0.01 0.01 0.01 0.01 0.02

GEFSMW_prec_meanprecacc_090.txt.gz
Total_Precipitation_Accumulation
0.35 0.50 0.59 0.75 1.00 1.17 1.11 1.01 0.91 0.84 0.83 0.81 0.72 0.62 0.51 0.46 0.39 0.34 0.31 0.30 0.27 0.28 0.22 0.14 0.13 0.13 0.12 0.11 0.11 0.11 0.10 0.08 0.10 0.08 0.04 0.02 0.01 0.01 0.01 0.01 0.01 0.01 0.03
0.26 0.33 0.41 0.55 0.78 1.00 1.09 1.06 1.00 0.94 0.86 0.78 0.82 0.83 0.85 0.78 0.68 0.60 0.49 0.43 0.39 0.40 0.35 0.30 0.29 0.28 0.24 0.20 0.19 0.18 0.14 0.12 0.15 0.15 0.13 0.05 0.02 0.01 0.01 0.01 0.01 0.02 0.03
0.17 0.21 0.25 0.31 0.48 0.70 0.91 1.02 1.04 1.03 1.02 1.04 1.16 1.13 1.00 0.82 0.67 0.53 0.49 0.51 0.53 0.53 0.49 0.48 0.45 0.43 0.40 0.32 0.30 0.28 0.24 0.22 0.21 0.21 0.23 0.15 0.06 0.03 0.02 0.02 0.02 0.03 0.03
0.09 0.14 0.17 0.21 0.30 0.45 0.63 0.79 0.95 1.04 1.09 1.23 1.22 1.15 0.97 0.78 0.67 0.70 0.76 0.74 0.71 0.67 0.63 0.59 0.56 0.54 0.48 0.40 0.41 0.42 0.36 0.32 0.26 0.25 0.24 0.22 0.16 0.14 0.08 0.04 0.04 0.05 0.04
0.05 0.08 0.12 0.15 0.20 0.30 0.42 0.51 0.65 0.87 0.96 0.96 0.99 1.07 1.02 0.91 0.89 0.85 0.80 0.73 0.67 0.67 0.65 0.62 0.59 0.56 0.53 0.48 0.47 0.45 0.44 0.43 0.38 0.32 0.29 0.27 0.21 0.16 0.17 0.11 0.07 0.07 0.07
0.03 0.05 0.09 0.10 0.11 0.17 0.29 0.40 0.46 0.59 0.69 0.74 0.79 0.83 0.84 0.87 0.85 0.77 0.71 0.66 0.60 0.57 0.57 0.57 0.56 0.55 0.53 0.50 0.49 0.50 0.51 0.48 0.42 0.34 0.29 0.32 0.29 0.23 0.23 0.22 0.14 0.13 0.13
0.02 0.04 0.07 0.07 0.06 0.09 0.14 0.23 0.33 0.40 0.44 0.54 0.63 0.66 0.69 0.73 0.74 0.73 0.69 0.65 0.58 0.50 0.48 0.49 0.50 0.53 0.55 0.57 0.59 0.55 0.51 0.52 0.50 0.45 0.39 0.37 0.35 0.34 0.35 0.35 0.28 0.23 0.19
0.01 0.04 0.05 0.05 0.03 0.04 0.06 0.09 0.14 0.20 0.26 0.33 0.39 0.44 0.48 0.46 0.46 0.49 0.49 0.48 0.46 0.47 0.47 0.48 0.50 0.53 0.54 0.54 0.53 0.50 0.48 0.49 0.48 0.47 0.44 0.39 0.34 0.35 0.39 0.42 0.47 0.45 0.37
0.01 0.03 0.03 0.02 0.02 0.02 0.03 0.04 0.06 0.08 0.11 0.16 0.21 0.22 0.25 0.27 0.29 0.30 0.33 0.33 0.33 0.35 0.37 0.40 0.42 0.42 0.43 0.42 0.41 0.39 0.39 0.41 0.41 0.41 0.41 0.38 0.33 0.33 0.36 0.41 0.49 0.57 0.54
0.01 0.02 0.02 0.01 0.01 0.02 0.02 0.03 0.03 0.04 0.06 0.09 0.11 0.12 0.13 0.15 0.17 0.18 0.18 0.20 0.23 0.25 0.27 0.30 0.32 0.32 0.31 0.29 0.28 0.28 0.28 0.30 0.30 0.30 0.31 0.31 0.29 0.30 0.33 0.37 0.43 0.49 0.57
0.01 0.01 0.01 0.00 0.00 0.01 0.01 0.02 0.04 0.05 0.05 0.07 0.07 0.08 0.08 0.10 0.11 0.11 0.12 0.16 0.19 0.20 0.23 0.24 0.24 0.23 0.23 0.23 0.22 0.21 0.20 0.20 0.20 0.20 0.22 0.24 0.24 0.25 0.27 0.31 0.37 0.42 0.48
0.01 0.01 0.00 0.00 0.00 0.01 0.02 0.04 0.06 0.06 0.05 0.06 0.07 0.07 0.07 0.07 0.08 0.08 0.09 0.10 0.12 0.14 0.16 0.17 0.16 0.14 0.13 0.14 0.15 0.15 0.15 0.15 0.16 0.17 0.19 0.21 0.23 0.26 0.28 0.31 0.34 0.37 0.39
0.01 0.01 0.01 0.01 0.01 0.02 0.05 0.07 0.07 0.05 0.04 0.06 0.07 0.08 0.08 0.09 0.09 0.09 0.10 0.10 0.10 0.10 0.09 0.08 0.08 0.08 0.08 0.09 0.10 0.11 0.12 0.13 0.15 0.17 0.19 0.21 0.24 0.27 0.28 0.29 0.31 0.32 0.31
0.02 0.02 0.02 0.02 0.02 0.03 0.06 0.09 0.07 0.06 0.06 0.07 0.09 0.10 0.12 0.12 0.13 0.13 0.12 0.11 0.10 0.09 0.09 0.08 0.07 0.07 0.08 0.09 0.10 0.11 0.13 0.15 0.17 0.19 0.22 0.24 0.26 0.27 0.28 0.29 0.30 0.28 0.26
0.03 0.02 0.03 0.03 0.04 0.04 0.06 0.08 0.10 0.10 0.12 0.13 0.13 0.14 0.14 0.14 0.14 0.13 0.12 0.10 0.08 0.07 0.07 0.08 0.09 0.10 0.10 0.12 0.13 0.15 0.18 0.22 0.25 0.27 0.29 0.30 0.32 0.31 0.28 0.25 0.22 0.19 0.18
0.03 0.02 0.03 0.04 0.05 0.05 0.06 0.08 0.11 0.13 0.14 0.16 0.15 0.15 0.15 0.14 0.13 0.11 0.10 0.09 0.09 0.10 0.12 0.13 0.16 0.19 0.22 0.31 0.28 0.23 0.23 0.27 0.29 0.30 0.30 0.29 0.28 0.25 0.23 0.20 0.18 0.19 0.23
0.04 0.03 0.03 0.03 0.04 0.04 0.08 0.13 0.16 0.15 0.17 0.17 0.15 0.15 0.16 0.16 0.15 0.13 0.15 0.20 0.23 0.25 0.28 0.30 0.32 0.35 0.42 0.47 0.40 0.37 0.31 0.31 0.31 0.29 0.26 0.23 0.20 0.18 0.14 0.12 0.13 0.16 0.19
0.03 0.02 0.02 0.03 0.03 0.04 0.08 0.15 0.21 0.24 0.27 0.29 0.25 0.21 0.22 0.26 0.31 0.35 0.38 0.44 0.51 0.55 0.57 0.59 0.56 0.53 0.53 0.50 0.42 0.38 0.32 0.30 0.26 0.21 0.16 0.13 0.10 0.08 0.08 0.09 0.14 0.11 0.08
0.04 0.03 0.03 0.03 0.04 0.05 0.08 0.13 0.22 0.28 0.33 0.37 0.39 0.39 0.41 0.48 0.53 0.60 0.65 0.67 0.73 0.72 0.68 0.65 0.60 0.53 0.46 0.38 0.29 0.22 0.18 0.16 0.13 0.10 0.07 0.06 0.05 0.06 0.10 0.15 0.17 0.07 0.01
0.08 0.05 0.05 0.06 0.08 0.10 0.14 0.21 0.29 0.38 0.44 0.49 0.54 0.55 0.57 0.60 0.62 0.63 0.63 0.60 0.60 0.58 0.51 0.45 0.40 0.34 0.28 0.22 0.16 0.11 0.09 0.07 0.05 0.03 0.03 0.03 0.03 0.07 0.13 0.13 0.09 0.02 0.01
0.18 0.17 0.16 0.18 0.20 0.22 0.29 0.38 0.45 0.53 0.58 0.59 0.63 0.64 0.61 0.58 0.54 0.47 0.40 0.37 0.33 0.29 0.25 0.22 0.19 0.15 0.12 0.10 0.07 0.05 0.04 0.03 0.02 0.02 0.01 0.01 0.05 0.10 0.12 0.07 0.02 0.02 0.05
0.19 0.23 0.27 0.27 0.28 0.33 0.40 0.47 0.53 0.55 0.51 0.46 0.42 0.39 0.34 0.30 0.27 0.23 0.20 0.18 0.16 0.14 0.12 0.10 0.08 0.06 0.05 0.04 0.04 0.03 0.03 0.03 0.03 0.02 0.01 0.03 0.08 0.08 0.04 0.01 0.01 0.03 0.03
0.08 0.12 0.17 0.20 0.20 0.22 0.24 0.26 0.25 0.22 0.19 0.16 0.14 0.12 0.11 0.11 0.11 0.10 0.10 0.09 0.08 0.07 0.06 0.04 0.03 0.03 0.03 0.03 0.03 0.03 0.04 0.05 0.04 0.03 0.04 0.06 0.05 0.01 0.00 0.00 0.01 0.01 0.00
0.05 0.05 0.06 0.06 0.06 0.06 0.06 0.06 0.05 0.05 0.04 0.04 0.05 0.05 0.05 0.05 0.05 0.05 0.05 0.05 0.04 0.05 0.05 0.05 0.04 0.04 0.03 0.03 0.03 0.03 0.03 0.04 0.04 0.04 0.04 0.03 0.01 0.00 0.00 0.00 0.00 0.00 0.01
0.06 0.06 0.07 0.07 0.07 0.06 0.06 0.06 0.05 0.04 0.04 0.05 0.05 0.06 0.06 0.07 0.07 0.07 0.06 0.07 0.07 0.08 0.07 0.06 0.05 0.05 0.04 0.04 0.06 0.06 0.05 0.05 0.05 0.04 0.02 0.01 0.01 0.00 0.00 0.00 0.00 0.00 0.01
0.05 0.06 0.07 0.08 0.09 0.08 0.07 0.07 0.06 0.06 0.06 0.06 0.07 0.07 0.07 0.08 0.08 0.08 0.08 0.10 0.09 0.10 0.09 0.08 0.07 0.06 0.06 0.07 0.07 0.07 0.07 0.07 0.06 0.04 0.02 0.01 0.01 0.01 0.01 0.01 0.01 0.01 0.02

GEFSMW_prec_meanprecacc_096.txt.gz
Total_Precipitation_Accumulation
0.54 0.69 0.87 1.10 1.29 1.50 1.58 1.56 1.47 1.43 1.42 1.31 1.10 0.88 0.69 0.59 0.47 0.40 0.35 0.32 0.28 0.29 0.23 0.15 0.16 0.16 0.13 0.13 0.13 0.13 0.12 0.11 0.12 0.10 0.05 0.02 0.02 0.01 0.01 0.01 0.01 0.01 0.03
0.44 0.52 0.69 0.88 1.15 1.36 1.56 1.63 1.59 1.55 1.40 1.24 1.21 1.12 1.05 0.93 0.79 0.68 0.56 0.46 0.41 0.41 0.37 0.32 0.31 0.31 0.27 0.24 0.24 0.23 0.20 0.16 0.19 0.17 0.15 0.06 0.02 0.01 0.02 0.02 0.02 0.02 0.03
0.34 0.41 0.49 0.59 0.85 1.12 1.41 1.55 1.62 1.61 1.56 1.48 1.55 1.46 1.25 1.02 0.82 0.64 0.58 0.57 0.57 0.55 0.52 0.51 0.50 0.47 0.45 0.39 0.38 0.38 0.34 0.29 0.27 0.27 0.28 0.17 0.07 0.04 0.02 0.02 0.03 0.03 0.03
0.25 0.31 0.39 0.48 0.61 0.82 1.09 1.29 1.50 1.63 1.66 1.66 1.58 1.49 1.27 1.01 0.85 0.84 0.87 0.83 0.77 0.71 0.67 0.64 0.62 0.61 0.55 0.49 0.52 0.54 0.48 0.44 0.36 0.33 0.29 0.25 0.19 0.16 0.09 0.04 0.05 0.05 0.04
0.18 0.22 0.29 0.38 0.46 0.63 0.85 1.01 1.18 1.42 1.47 1.40 1.35 1.44 1.34 1.17 1.08 1.03 0.95 0.84 0.77 0.74 0.71 0.69 0.67 0.65 0.62 0.58 0.58 0.57 0.56 0.55 0.49 0.41 0.36 0.33 0.25 0.18 0.18 0.11 0.07 0.07 0.07
0.15 0.20 0.25 0.28 0.32 0.42 0.62 0.81 0.89 1.05 1.16 1.14 1.15 1.18 1.14 1.12 1.07 0.96 0.88 0.82 0.73 0.68 0.67 0.66 0.66 0.65 0.62 0.60 0.60 0.62 0.64 0.61 0.54 0.44 0.38 0.38 0.33 0.26 0.26 0.24 0.16 0.15 0.13
0.16 0.20 0.21 0.22 0.24 0.29 0.38 0.54 0.68 0.78 0.88 0.96 1.00 0.99 1.01 0.99 0.99 0.95 0.90 0.83 0.73 0.63 0.60 0.61 0.61 0.64 0.66 0.68 0.70 0.67 0.63 0.63 0.59 0.53 0.47 0.44 0.41 0.39 0.40 0.39 0.30 0.24 0.20
0.15 0.17 0.20 0.22 0.23 0.24 0.25 0.31 0.42 0.50 0.62 0.74 0.76 0.77 0.83 0.79 0.72 0.72 0.73 0.69 0.64 0.62 0.62 0.62 0.63 0.65 0.67 0.67 0.65 0.61 0.57 0.58 0.57 0.54 0.50 0.44 0.38 0.39 0.43 0.46 0.50 0.46 0.37
0.13 0.16 0.16 0.16 0.15 0.13 0.13 0.16 0.23 0.30 0.36 0.46 0.52 0.51 0.57 0.60 0.57 0.54 0.54 0.53 0.51 0.52 0.54 0.56 0.58 0.57 0.58 0.56 0.53 0.49 0.47 0.48 0.47 0.45 0.44 0.42 0.37 0.36 0.38 0.43 0.50 0.59 0.55
0.08 0.11 0.11 0.09 0.07 0.06 0.06 0.09 0.12 0.18 0.24 0.29 0.33 0.34 0.36 0.40 0.40 0.39 0.37 0.35 0.37 0.38 0.41 0.45 0.47 0.46 0.44 0.41 0.40 0.37 0.35 0.35 0.34 0.33 0.34 0.34 0.32 0.32 0.35 0.39 0.44 0.51 0.58
0.05 0.06 0.06 0.05 0.03 0.02 0.03 0.05 0.08 0.12 0.15 0.20 0.24 0.25 0.24 0.28 0.30 0.27 0.26 0.28 0.29 0.30 0.33 0.36 0.37 0.36 0.35 0.34 0.33 0.31 0.28 0.26 0.24 0.24 0.25 0.26 0.26 0.28 0.29 0.33 0.38 0.43 0.49
0.04 0.04 0.03 0.03 0.02 0.02 0.03 0.05 0.09 0.09 0.09 0.11 0.16 0.15 0.15 0.18 0.22 0.21 0.19 0.21 0.22 0.22 0.23 0.24 0.24 0.24 0.23 0.23 0.24 0.24 0.24 0.23 0.22 0.21 0.22 0.23 0.25 0.27 0.29 0.32 0.35 0.38 0.40
0.03 0.02 0.03 0.03 0.03 0.04 0.05 0.08 0.09 0.07 0.07 0.09 0.11 0.10 0.11 0.13 0.15 0.16 0.17 0.17 0.17 0.18 0.16 0.13 0.13 0.12 0.13 0.13 0.14 0.15 0.15 0.17 0.18 0.20 0.21 0.23 0.25 0.28 0.29 0.30 0.31 0.32 0.32
0.03 0.02 0.02 0.03 0.03 0.04 0.07 0.09 0.08 0.07 0.08 0.10 0.11 0.12 0.13 0.14 0.16 0.15 0.15 0.14 0.14 0.14 0.13 0.11 0.10 0.10 0.10 0.11 0.11 0.12 0.14 0.16 0.18 0.20 0.23 0.25 0.27 0.28 0.29 0.30 0.30 0.29 0.26
0.03 0.02 0.03 0.04 0.04 0.04 0.06 0.08 0.10 0.10 0.12 0.14 0.14 0.15 0.15 0.15 0.16 0.16 0.14 0.11 0.09 0.09 0.09 0.09 0.10 0.11 0.11 0.12 0.14 0.16 0.19 0.22 0.25 0.27 0.29 0.30 0.32 0.31 0.28 0.25 0.22 0.19 0.19
0.03 0.02 0.03 0.04 0.05 0.05 0.06 0.08 0.11 0.13 0.14 0.16 0.15 0.15 0.15 0.15 0.14 0.13 0.11 0.10 0.10 0.11 0.13 0.14 0.17 0.20 0.23 0.31 0.28 0.23 0.24 0.27 0.29 0.31 0.31 0.30 0.29 0.25 0.23 0.21 0.19 0.19 0.23
0.04 0.03 0.03 0.03 0.04 0.04 0.08 0.13 0.16 0.15 0.17 0.17 0.15 0.15 0.16 0.17 0.15 0.15 0.17 0.21 0.25 0.26 0.29 0.31 0.33 0.35 0.42 0.48 0.41 0.37 0.32 0.32 0.32 0.30 0.27 0.24 0.21 0.19 0.14 0.13 0.14 0.16 0.19
0.03 0.02 0.02 0.03 0.03 0.04 0.08 0.15 0.21 0.24 0.27 0.29 0.25 0.21 0.22 0.27 0.31 0.35 0.39 0.45 0.53 0.57 0.59 0.60 0.57 0.54 0.53 0.51 0.43 0.38 0.33 0.31 0.27 0.22 0.17 0.14 0.11 0.09 0.09 0.10 0.14 0.12 0.08
0.04 0.03 0.03 0.03 0.04 0.05 0.08 0.13 0.22 0.28 0.33 0.37 0.39 0.39 0.41 0.48 0.53 0.60 0.65 0.67 0.73 0.73 0.69 0.66 0.61 0.54 0.47 0.40 0.30 0.23 0.19 0.17 0.14 0.11 0.08 0.07 0.06 0.07 0.11 0.15 0.17 0.07 0.02
0.08 0.05 0.05 0.06 0.08 0.10 0.14 0.21 0.29 0.38 0.44 0.49 0.54 0.55 0.57 0.60 0.62 0.63 0.63 0.61 0.61 0.58 0.51 0.46 0.40 0.35 0.29 0.24 0.18 0.14 0.10 0.08 0.06 0.05 0.04 0.04 0.05 0.08 0.14 0.14 0.09 0.02 0.01
0.18 0.17 0.16 0.18 0.20 0.22 0.29 0.38 0.45 0.53 0.58 0.59 0.63 0.64 0.61 0.58 0.54 0.47 0.41 0.37 0.33 0.29 0.26 0.23 0.20 0.16 0.14 0.12 0.09 0.08 0.06 0.04 0.04 0.03 0.03 0.03 0.07 0.12 0.13 0.08 0.02 0.02 0.05
0.19 0.23 0.27 0.27 0.28 0.33 0.40 0.47 0.53 0.55 0.52 0.46 0.42 0.39 0.34 0.30 0.27 0.23 0.20 0.18 0.17 0.15 0.13 0.11 0.09 0.07 0.06 0.06 0.06 0.06 0.07 0.07 0.05 0.04 0.03 0.05 0.10 0.11 0.06 0.02 0.02 0.04 0.03
0.08 0.12 0.17 0.20 0.20 0.22 0.24 0.26 0.25 0.23 0.20 0.16 0.14 0.13 0.12 0.11 0.11 0.11 0.10 0.09 0.09 0.08 0.08 0.07 0.07 0.06 0.05 0.06 0.08 0.09 0.10 0.11 0.09 0.07 0.07 0.09 0.08 0.04 0.02 0.01 0.02 0.01 0.00
0.05 0.05 0.06 0.06 0.06 0.06 0.06 0.06 0.06 0.06 0.06 0.06 0.06 0.06 0.07 0.07 0.07 0.06 0.06 0.06 0.06 0.06 0.07 0.07 0.07 0.07 0.08 0.08 0.09 0.11 0.12 0.12 0.11 0.09 0.09 0.07 0.05 0.04 0.03 0.02 0.01 0.01 0.01
0.06 0.06 0.07 0.07 0.07 0.07 0.06 0.06 0.06 0.06 0.06 0.06 0.07 0.08 0.09 0.09 0.09 0.10 0.10 0.11 0.10 0.11 0.11 0.10 0.10 0.10 0.10 0.10 0.13 0.15 0.14 0.14 0.14 0.13 0.09 0.07 0.06 0.04 0.03 0.02 0.02 0.01 0.01
0.05 0.06 0.07 0.09 0.09 0.08 0.08 0.08 0.07 0.07 0.08 0.08 0.09 0.09 0.10 0.11 0.11 0.12 0.12 0.13 0.13 0.14 0.14 0.13 0.12 0.12 0.12 0.13 0.16 0.17 0.17 0.18 0.18 0.17 0.11 0.07 0.05 0.04 0.03 0.03 0.03 0.02 0.03

GEFSMW_prec_meanprecacc_102.txt.gz
Total_Precipitation_Accumulation
0.61 0.79 0.97 1.18 1.37 1.57 1.68 1.70 1.64 1.66 1.68 1.61 1.44 1.23 1.00 0.88 0.72 0.60 0.50 0.44 0.41 0.39 0.30 0.18 0.17 0.17 0.14 0.13 0.14 0.13 0.12 0.11 0.13 0.10 0.05 0.03 0.02 0.01 0.01 0.01 0.02 0.02 0.03
0.50 0.60 0.80 0.98 1.24 1.44 1.65 1.76 1.75 1.77 1.66 1.52 1.52 1.46 1.36 1.19 1.06 0.93 0.78 0.61 0.53 0.52 0.46 0.38 0.35 0.33 0.29 0.25 0.24 0.23 0.20 0.17 0.20 0.18 0.16 0.07 0.03 0.01 0.02 0.02 0.02 0.03 0.03
0.45 0.51 0.60 0.70 0.97 1.24 1.53 1.68 1.78 1.83 1.84 1.79 1.91 1.82 1.64 1.37 1.10 0.92 0.85 0.77 0.70 0.65 0.59 0.56 0.55 0.52 0.48 0.42 0.41 0.40 0.36 0.31 0.30 0.29 0.30 0.18 0.07 0.04 0.03 0.03 0.03 0.03 0.03
0.43 0.49 0.55 0.61 0.77 1.02 1.26 1.44 1.68 1.85 1.93 2.01 1.97 1.85 1.62 1.35 1.09 1.03 1.11 1.07 0.93 0.81 0.74 0.69 0.67 0.66 0.59 0.51 0.55 0.58 0.52 0.48 0.40 0.37 0.33 0.27 0.20 0.17 0.10 0.05 0.05 0.05 0.04
0.38 0.42 0.50 0.57 0.66 0.86 1.06 1.19 1.39 1.67 1.76 1.74 1.75 1.81 1.68 1.47 1.32 1.23 1.15 1.09 0.97 0.87 0.80 0.74 0.72 0.70 0.66 0.61 0.60 0.60 0.60 0.59 0.53 0.45 0.41 0.37 0.28 0.20 0.19 0.12 0.07 0.08 0.08
0.41 0.44 0.49 0.52 0.56 0.68 0.87 1.05 1.12 1.30 1.45 1.45 1.52 1.59 1.51 1.45 1.34 1.18 1.08 1.02 0.93 0.83 0.78 0.74 0.72 0.70 0.67 0.63 0.63 0.66 0.67 0.65 0.58 0.49 0.42 0.43 0.37 0.29 0.29 0.26 0.18 0.16 0.14
0.49 0.52 0.50 0.49 0.49 0.55 0.62 0.79 0.94 1.03 1.17 1.27 1.32 1.34 1.36 1.32 1.26 1.18 1.08 1.01 0.92 0.80 0.73 0.71 0.69 0.70 0.71 0.73 0.74 0.71 0.66 0.67 0.63 0.58 0.52 0.49 0.45 0.43 0.44 0.43 0.33 0.27 0.22
0.53 0.52 0.51 0.57 0.57 0.55 0.52 0.60 0.70 0.77 0.89 1.04 1.09 1.10 1.13 1.09 1.00 0.96 0.91 0.85 0.79 0.76 0.75 0.74 0.73 0.74 0.75 0.74 0.72 0.67 0.63 0.64 0.63 0.61 0.57 0.50 0.44 0.45 0.48 0.51 0.56 0.51 0.41
0.49 0.52 0.53 0.52 0.51 0.46 0.46 0.50 0.57 0.61 0.62 0.72 0.80 0.82 0.84 0.84 0.81 0.76 0.72 0.68 0.65 0.65 0.66 0.69 0.70 0.69 0.67 0.65 0.62 0.57 0.55 0.55 0.55 0.53 0.52 0.48 0.43 0.42 0.43 0.48 0.55 0.64 0.59
0.35 0.40 0.40 0.38 0.34 0.33 0.37 0.43 0.47 0.52 0.51 0.53 0.58 0.63 0.62 0.61 0.59 0.58 0.55 0.50 0.49 0.50 0.52 0.56 0.59 0.58 0.55 0.51 0.49 0.47 0.44 0.44 0.43 0.43 0.44 0.42 0.39 0.38 0.40 0.44 0.48 0.55 0.61
0.24 0.27 0.27 0.24 0.21 0.22 0.25 0.33 0.41 0.45 0.41 0.45 0.51 0.52 0.52 0.54 0.52 0.47 0.44 0.44 0.42 0.41 0.44 0.46 0.47 0.46 0.45 0.44 0.43 0.41 0.38 0.36 0.33 0.32 0.33 0.34 0.34 0.34 0.34 0.37 0.41 0.46 0.51
0.21 0.18 0.16 0.14 0.12 0.13 0.16 0.21 0.28 0.33 0.32 0.34 0.42 0.40 0.39 0.44 0.48 0.45 0.40 0.39 0.37 0.33 0.31 0.32 0.33 0.32 0.31 0.32 0.33 0.34 0.33 0.32 0.32 0.31 0.31 0.31 0.31 0.33 0.34 0.36 0.39 0.40 0.42
0.12 0.10 0.10 0.11 0.10 0.10 0.13 0.17 0.22 0.23 0.26 0.28 0.30 0.29 0.29 0.31 0.35 0.38 0.38 0.36 0.36 0.32 0.26 0.21 0.20 0.20 0.21 0.22 0.23 0.24 0.25 0.27 0.28 0.30 0.31 0.32 0.33 0.34 0.34 0.35 0.35 0.35 0.34
0.07 0.06 0.07 0.08 0.08 0.08 0.12 0.15 0.15 0.15 0.16 0.17 0.20 0.22 0.23 0.24 0.27 0.28 0.29 0.29 0.30 0.30 0.27 0.21 0.18 0.18 0.18 0.19 0.20 0.20 0.22 0.24 0.26 0.27 0.30 0.32 0.33 0.34 0.35 0.35 0.35 0.33 0.29
0.06 0.04 0.05 0.07 0.07 0.07 0.09 0.11 0.13 0.12 0.14 0.17 0.17 0.18 0.19 0.20 0.21 0.21 0.20 0.18 0.18 0.19 0.21 0.21 0.21 0.20 0.19 0.19 0.21 0.23 0.27 0.29 0.31 0.33 0.34 0.35 0.37 0.36 0.33 0.29 0.25 0.22 0.21
0.04 0.03 0.03 0.05 0.06 0.06 0.07 0.09 0.12 0.13 0.15 0.17 0.16 0.16 0.17 0.17 0.16 0.16 0.15 0.14 0.14 0.15 0.19 0.23 0.26 0.29 0.31 0.39 0.35 0.30 0.31 0.34 0.35 0.36 0.35 0.33 0.32 0.29 0.27 0.24 0.22 0.22 0.26
0.04 0.04 0.04 0.03 0.04 0.04 0.08 0.13 0.16 0.15 0.17 0.17 0.15 0.15 0.16 0.18 0.17 0.17 0.20 0.25 0.28 0.29 0.33 0.36 0.39 0.41 0.48 0.55 0.48 0.44 0.37 0.36 0.35 0.33 0.30 0.26 0.23 0.21 0.16 0.15 0.16 0.19 0.23
0.03 0.03 0.02 0.03 0.03 0.04 0.08 0.15 0.21 0.24 0.27 0.29 0.25 0.21 0.22 0.27 0.32 0.36 0.41 0.48 0.56 0.60 0.63 0.64 0.62 0.58 0.58 0.55 0.47 0.44 0.37 0.34 0.30 0.24 0.19 0.15 0.12 0.10 0.10 0.11 0.15 0.13 0.10
0.04 0.03 0.03 0.03 0.04 0.05 0.08 0.13 0.22 0.28 0.33 0.37 0.39 0.39 0.41 0.48 0.53 0.61 0.67 0.69 0.76 0.76 0.73 0.71 0.67 0.60 0.52 0.44 0.34 0.27 0.22 0.20 0.18 0.13 0.10 0.08 0.07 0.08 0.13 0.17 0.18 0.08 0.03
0.08 0.05 0.05 0.06 0.08 0.10 0.14 0.21 0.29 0.38 0.44 0.49 0.54 0.56 0.57 0.60 0.62 0.63 0.63 0.62 0.62 0.60 0.54 0.49 0.44 0.39 0.34 0.29 0.22 0.17 0.14 0.11 0.09 0.07 0.06 0.06 0.07 0.10 0.16 0.16 0.11 0.04 0.02
0.18 0.17 0.16 0.18 0.20 0.22 0.29 0.38 0.45 0.53 0.58 0.59 0.63 0.64 0.61 0.58 0.54 0.47 0.41 0.37 0.34 0.30 0.27 0.25 0.22 0.19 0.17 0.15 0.13 0.11 0.09 0.07 0.06 0.06 0.05 0.05 0.11 0.17 0.18 0.12 0.06 0.05 0.08
0.19 0.23 0.27 0.27 0.28 0.33 0.40 0.47 0.53 0.55 0.52 0.46 0.43 0.39 0.34 0.30 0.27 0.23 0.21 0.19 0.17 0.16 0.14 0.12 0.11 0.09 0.08 0.09 0.09 0.10 0.11 0.12 0.10 0.08 0.06 0.08 0.15 0.16 0.12 0.09 0.08 0.10 0.09
0.08 0.12 0.17 0.20 0.20 0.22 0.24 0.26 0.25 0.23 0.20 0.16 0.14 0.13 0.12 0.11 0.11 0.11 0.10 0.10 0.10 0.09 0.09 0.09 0.08 0.08 0.08 0.09 0.11 0.12 0.15 0.17 0.16 0.13 0.12 0.14 0.14 0.12 0.10 0.09 0.09 0.08 0.07
0.05 0.05 0.06 0.06 0.06 0.06 0.06 0.06 0.06 0.06 0.06 0.06 0.06 0.07 0.07 0.07 0.07 0.07 0.07 0.07 0.07 0.08 0.08 0.09 0.09 0.09 0.10 0.10 0.12 0.14 0.16 0.19 0.19 0.17 0.16 0.15 0.13 0.12 0.11 0.10 0.09 0.07 0.06
0.06 0.06 0.07 0.07 0.07 0.07 0.06 0.06 0.06 0.06 0.06 0.06 0.07 0.08 0.09 0.10 0.10 0.11 0.11 0.12 0.12 0.12 0.13 0.12 0.12 0.13 0.12 0.13 0.18 0.20 0.20 0.22 0.23 0.23 0.20 0.18 0.16 0.14 0.11 0.09 0.08 0.07 0.07
0.05 0.06 0.07 0.09 0.09 0.08 0.08 0.08 0.08 0.08 0.08 0.09 0.09 0.10 0.11 0.12 0.12 0.13 0.13 0.15 0.15 0.16 0.17 0.16 0.15 0.14 0.15 0.17 0.21 0.23 0.24 0.26 0.30 0.32 0.23 0.17 0.14 0.13 0.11 0.10 0.10 0.09 0.09

GEFSMW_prec_meanprecacc_108.txt.gz
Total_Precipitation_Accumulation
0.62 0.80 0.98 1.19 1.43 1.63 1.72 1.74 1.68 1.69 1.72 1.69 1.52 1.31 1.10 1.01 0.87 0.75 0.65 0.58 0.54 0.51 0.39 0.25 0.23 0.21 0.16 0.15 0.15 0.14 0.13 0.12 0.13 0.10 0.05 0.03 0.02 0.01 0.01 0.01 0.02 0.02 0.03
0.54 0.63 0.82 1.01 1.27 1.52 1.72 1.81 1.81 1.82 1.70 1.56 1.59 1.53 1.45 1.29 1.17 1.08 0.94 0.76 0.67 0.65 0.57 0.47 0.41 0.37 0.32 0.27 0.26 0.25 0.21 0.18 0.20 0.19 0.16 0.07 0.03 0.01 0.02 0.03 0.02 0.03 0.03
0.49 0.54 0.65 0.76 1.02 1.29 1.59 1.75 1.86 1.90 1.89 1.84 1.96 1.89 1.75 1.49 1.22 1.04 0.99 0.94 0.87 0.82 0.75 0.70 0.65 0.60 0.53 0.46 0.44 0.43 0.37 0.32 0.30 0.30 0.30 0.18 0.08 0.04 0.03 0.03 0.03 0.03 0.03
0.50 0.55 0.61 0.68 0.84 1.08 1.31 1.50 1.75 1.92 2.01 2.09 2.04 1.92 1.70 1.44 1.19 1.14 1.22 1.21 1.10 0.99 0.94 0.87 0.82 0.78 0.69 0.58 0.60 0.61 0.55 0.50 0.42 0.39 0.35 0.29 0.21 0.17 0.10 0.05 0.05 0.05 0.04
0.49 0.53 0.60 0.66 0.77 0.96 1.15 1.27 1.48 1.76 1.85 1.83 1.83 1.90 1.76 1.55 1.41 1.34 1.29 1.25 1.15 1.05 0.97 0.93 0.91 0.84 0.78 0.71 0.67 0.65 0.64 0.62 0.56 0.48 0.43 0.40 0.30 0.21 0.20 0.13 0.08 0.08 0.08
0.55 0.58 0.63 0.66 0.69 0.79 0.99 1.16 1.24 1.43 1.55 1.54 1.61 1.69 1.61 1.55 1.45 1.30 1.21 1.18 1.13 1.03 0.96 0.91 0.89 0.87 0.81 0.75 0.73 0.74 0.73 0.70 0.63 0.53 0.46 0.46 0.40 0.31 0.31 0.27 0.18 0.17 0.15
0.66 0.69 0.66 0.69 0.69 0.72 0.78 0.94 1.06 1.17 1.30 1.40 1.48 1.49 1.50 1.46 1.41 1.31 1.21 1.15 1.09 1.00 0.93 0.90 0.87 0.86 0.85 0.85 0.85 0.80 0.74 0.73 0.69 0.63 0.57 0.53 0.48 0.46 0.46 0.46 0.35 0.28 0.23
0.76 0.77 0.75 0.83 0.85 0.82 0.78 0.80 0.86 0.91 1.02 1.20 1.30 1.32 1.34 1.29 1.21 1.14 1.07 1.01 0.95 0.94 0.93 0.93 0.93 0.91 0.90 0.87 0.85 0.78 0.71 0.71 0.69 0.66 0.62 0.56 0.49 0.49 0.52 0.55 0.60 0.56 0.44
0.78 0.82 0.85 0.86 0.82 0.76 0.76 0.77 0.82 0.80 0.78 0.87 0.98 1.06 1.11 1.09 1.03 0.97 0.90 0.86 0.84 0.84 0.86 0.90 0.92 0.91 0.86 0.80 0.76 0.70 0.65 0.64 0.63 0.60 0.58 0.54 0.48 0.47 0.48 0.52 0.60 0.69 0.64
0.64 0.71 0.73 0.70 0.67 0.65 0.66 0.71 0.74 0.75 0.69 0.70 0.78 0.89 0.90 0.86 0.82 0.81 0.78 0.71 0.68 0.69 0.71 0.76 0.80 0.79 0.75 0.69 0.65 0.61 0.58 0.57 0.54 0.53 0.53 0.50 0.46 0.46 0.47 0.50 0.55 0.61 0.67
0.47 0.49 0.50 0.52 0.50 0.54 0.60 0.69 0.76 0.76 0.64 0.66 0.74 0.78 0.80 0.79 0.74 0.69 0.68 0.67 0.62 0.60 0.63 0.65 0.67 0.66 0.65 0.63 0.60 0.55 0.50 0.48 0.44 0.43 0.43 0.43 0.43 0.43 0.44 0.46 0.50 0.54 0.60
0.40 0.38 0.36 0.34 0.33 0.35 0.42 0.52 0.60 0.62 0.57 0.57 0.66 0.64 0.64 0.70 0.69 0.65 0.62 0.61 0.57 0.51 0.49 0.51 0.51 0.50 0.50 0.50 0.50 0.49 0.46 0.44 0.42 0.39 0.39 0.38 0.39 0.40 0.41 0.44 0.47 0.49 0.50
0.28 0.24 0.23 0.25 0.25 0.26 0.31 0.39 0.46 0.47 0.48 0.50 0.53 0.52 0.51 0.54 0.55 0.57 0.56 0.54 0.54 0.50 0.43 0.38 0.38 0.38 0.38 0.38 0.39 0.39 0.39 0.39 0.39 0.39 0.40 0.41 0.42 0.44 0.43 0.43 0.44 0.44 0.44
0.19 0.17 0.17 0.18 0.18 0.20 0.25 0.29 0.31 0.33 0.35 0.36 0.38 0.39 0.41 0.43 0.43 0.44 0.47 0.46 0.45 0.46 0.44 0.39 0.35 0.34 0.35 0.36 0.36 0.36 0.36 0.37 0.37 0.37 0.39 0.40 0.41 0.41 0.42 0.43 0.44 0.43 0.40
0.11 0.10 0.11 0.13 0.13 0.14 0.16 0.19 0.22 0.24 0.26 0.28 0.29 0.30 0.31 0.33 0.35 0.34 0.34 0.34 0.35 0.36 0.38 0.38 0.38 0.35 0.33 0.33 0.34 0.36 0.38 0.40 0.41 0.41 0.42 0.43 0.45 0.45 0.42 0.38 0.35 0.32 0.33
0.06 0.05 0.06 0.08 0.09 0.09 0.10 0.12 0.16 0.18 0.20 0.22 0.22 0.22 0.23 0.23 0.24 0.24 0.24 0.24 0.26 0.30 0.34 0.38 0.42 0.45 0.45 0.53 0.49 0.42 0.42 0.45 0.45 0.44 0.43 0.42 0.42 0.39 0.37 0.34 0.32 0.33 0.36
0.05 0.04 0.04 0.04 0.05 0.06 0.09 0.14 0.17 0.17 0.18 0.19 0.17 0.17 0.19 0.21 0.20 0.20 0.24 0.29 0.33 0.37 0.42 0.46 0.50 0.54 0.61 0.68 0.61 0.55 0.47 0.46 0.45 0.42 0.38 0.35 0.33 0.31 0.25 0.23 0.24 0.26 0.30
0.03 0.03 0.02 0.03 0.03 0.05 0.09 0.15 0.22 0.24 0.28 0.30 0.26 0.22 0.23 0.28 0.33 0.38 0.42 0.50 0.58 0.62 0.66 0.69 0.69 0.67 0.67 0.66 0.59 0.56 0.48 0.44 0.39 0.32 0.27 0.23 0.20 0.18 0.18 0.19 0.23 0.20 0.16
0.04 0.03 0.03 0.03 0.04 0.05 0.08 0.13 0.22 0.29 0.34 0.37 0.40 0.39 0.42 0.48 0.53 0.61 0.67 0.69 0.76 0.77 0.74 0.73 0.70 0.65 0.59 0.53 0.44 0.37 0.32 0.31 0.28 0.23 0.19 0.17 0.14 0.16 0.22 0.24 0.25 0.15 0.09
0.08 0.05 0.05 0.06 0.08 0.10 0.14 0.21 0.29 0.38 0.44 0.49 0.54 0.56 0.57 0.60 0.62 0.63 0.63 0.62 0.62 0.60 0.54 0.50 0.45 0.41 0.38 0.35 0.30 0.25 0.22 0.20 0.18 0.16 0.16 0.17 0.16 0.19 0.25 0.23 0.18 0.11 0.08
0.18 0.17 0.16 0.18 0.20 0.22 0.29 0.38 0.45 0.53 0.58 0.59 0.63 0.64 0.61 0.58 0.54 0.47 0.41 0.37 0.34 0.31 0.27 0.25 0.23 0.21 0.19 0.18 0.18 0.17 0.16 0.15 0.14 0.13 0.12 0.13 0.20 0.25 0.26 0.20 0.13 0.12 0.15
0.19 0.23 0.27 0.27 0.28 0.33 0.40 0.47 0.53 0.55 0.52 0.46 0.43 0.39 0.34 0.30 0.27 0.23 0.21 0.19 0.17 0.16 0.15 0.13 0.11 0.10 0.10 0.11 0.12 0.14 0.16 0.18 0.17 0.15 0.13 0.15 0.23 0.24 0.20 0.17 0.15 0.17 0.16
0.08 0.12 0.17 0.20 0.20 0.22 0.24 0.26 0.25 0.23 0.20 0.16 0.14 0.13 0.12 0.11 0.11 0.11 0.11 0.10 0.10 0.10 0.09 0.09 0.09 0.09 0.09 0.11 0.14 0.16 0.19 0.23 0.22 0.18 0.19 0.21 0.21 0.18 0.17 0.16 0.16 0.16 0.14
0.05 0.05 0.06 0.06 0.06 0.06 0.06 0.06 0.06 0.06 0.06 0.06 0.06 0.07 0.07 0.07 0.07 0.07 0.07 0.07 0.07 0.08 0.09 0.10 0.10 0.10 0.11 0.12 0.15 0.18 0.20 0.23 0.24 0.23 0.22 0.21 0.19 0.18 0.17 0.16 0.16 0.15 0.13
0.06 0.06 0.07 0.07 0.07 0.07 0.06 0.06 0.06 0.06 0.06 0.06 0.07 0.08 0.09 0.10 0.11 0.11 0.11 0.12 0.12 0.13 0.14 0.13 0.13 0.14 0.14 0.14 0.20 0.23 0.24 0.26 0.27 0.29 0.25 0.23 0.21 0.19 0.17 0.16 0.15 0.14 0.14
0.05 0.06 0.07 0.09 0.09 0.08 0.08 0.08 0.08 0.08 0.08 0.09 0.09 0.10 0.11 0.12 0.12 0.13 0.13 0.15 0.15 0.17 0.18 0.17 0.17 0.16 0.16 0.19 0.24 0.26 0.27 0.30 0.35 0.37 0.29 0.22 0.20 0.19 0.17 0.17 0.17 0.17 0.17

GEFSMW_prec_meanprecacc_114.txt.gz
Total_Precipitation_Accumulation
0.62 0.80 0.98 1.20 1.43 1.65 1.73 1.74 1.70 1.71 1.74 1.71 1.57 1.38 1.18 1.10 0.97 0.86 0.79 0.71 0.64 0.60 0.49 0.36 0.34 0.34 0.30 0.28 0.24 0.20 0.18 0.16 0.15 0.11 0.06 0.03 0.02 0.01 0.01 0.01 0.02 0.02 0.03
0.54 0.63 0.83 1.01 1.28 1.53 1.77 1.84 1.82 1.83 1.72 1.58 1.61 1.57 1.50 1.36 1.25 1.16 1.02 0.86 0.78 0.76 0.70 0.61 0.54 0.49 0.44 0.40 0.37 0.34 0.28 0.22 0.24 0.21 0.17 0.07 0.03 0.01 0.02 0.03 0.02 0.03 0.03
0.49 0.55 0.66 0.76 1.02 1.30 1.62 1.79 1.89 1.92 1.92 1.86 1.98 1.91 1.79 1.54 1.28 1.10 1.06 1.01 0.95 0.92 0.86 0.82 0.80 0.75 0.68 0.59 0.56 0.53 0.46 0.38 0.34 0.33 0.33 0.19 0.08 0.04 0.03 0.03 0.03 0.03 0.03
0.51 0.57 0.62 0.69 0.86 1.10 1.33 1.53 1.80 1.97 2.05 2.11 2.06 1.94 1.73 1.48 1.24 1.19 1.28 1.27 1.17 1.06 1.02 0.97 0.93 0.91 0.82 0.72 0.73 0.73 0.65 0.59 0.49 0.44 0.38 0.31 0.22 0.18 0.10 0.05 0.05 0.05 0.04
0.51 0.55 0.62 0.68 0.80 1.00 1.19 1.32 1.53 1.82 1.91 1.88 1.87 1.94 1.81 1.58 1.45 1.39 1.35 1.31 1.21 1.10 1.02 0.99 0.99 0.95 0.90 0.82 0.80 0.79 0.76 0.72 0.64 0.54 0.48 0.43 0.32 0.23 0.21 0.13 0.08 0.08 0.08
0.59 0.61 0.67 0.71 0.73 0.83 1.03 1.21 1.29 1.49 1.62 1.61 1.68 1.76 1.68 1.60 1.49 1.35 1.27 1.25 1.20 1.09 1.02 0.96 0.95 0.96 0.92 0.86 0.84 0.86 0.87 0.83 0.73 0.61 0.52 0.49 0.42 0.33 0.33 0.29 0.19 0.17 0.15
0.72 0.75 0.72 0.75 0.76 0.79 0.84 0.99 1.11 1.21 1.35 1.46 1.55 1.56 1.58 1.54 1.47 1.36 1.28 1.22 1.16 1.07 1.00 0.96 0.94 0.93 0.94 0.96 0.97 0.93 0.86 0.86 0.81 0.74 0.65 0.59 0.52 0.49 0.50 0.49 0.38 0.30 0.24
0.85 0.86 0.84 0.93 0.94 0.91 0.85 0.87 0.93 0.97 1.08 1.25 1.35 1.39 1.43 1.39 1.30 1.22 1.15 1.09 1.03 1.01 1.01 1.02 1.03 1.02 1.01 0.99 0.96 0.90 0.84 0.83 0.80 0.76 0.72 0.66 0.57 0.56 0.58 0.61 0.65 0.60 0.46
0.90 0.95 0.99 1.00 0.94 0.88 0.86 0.85 0.90 0.88 0.86 0.95 1.05 1.12 1.18 1.18 1.12 1.06 0.99 0.95 0.92 0.93 0.95 0.98 1.01 1.02 0.99 0.94 0.90 0.84 0.79 0.78 0.76 0.71 0.69 0.64 0.58 0.56 0.56 0.59 0.67 0.76 0.70
0.77 0.86 0.87 0.84 0.84 0.85 0.84 0.85 0.89 0.91 0.86 0.85 0.91 1.00 1.00 0.95 0.92 0.91 0.87 0.80 0.78 0.78 0.80 0.86 0.91 0.91 0.89 0.84 0.82 0.79 0.76 0.76 0.72 0.68 0.67 0.63 0.58 0.57 0.57 0.60 0.65 0.72 0.79
0.58 0.61 0.63 0.65 0.67 0.72 0.79 0.87 0.96 0.96 0.84 0.86 0.90 0.91 0.92 0.93 0.86 0.81 0.79 0.80 0.75 0.74 0.76 0.78 0.80 0.80 0.80 0.79 0.77 0.72 0.68 0.67 0.65 0.63 0.62 0.61 0.58 0.58 0.57 0.58 0.61 0.64 0.69
0.51 0.49 0.49 0.48 0.46 0.50 0.56 0.66 0.76 0.76 0.72 0.73 0.82 0.79 0.80 0.88 0.86 0.79 0.74 0.73 0.70 0.63 0.62 0.64 0.66 0.65 0.64 0.65 0.66 0.65 0.62 0.59 0.57 0.56 0.57 0.57 0.56 0.56 0.55 0.57 0.59 0.59 0.60
0.38 0.35 0.35 0.37 0.35 0.36 0.41 0.51 0.59 0.59 0.60 0.62 0.65 0.65 0.66 0.72 0.73 0.74 0.73 0.69 0.68 0.62 0.54 0.51 0.53 0.54 0.55 0.55 0.55 0.56 0.55 0.55 0.54 0.52 0.53 0.54 0.57 0.59 0.57 0.56 0.56 0.54 0.53
0.25 0.24 0.24 0.25 0.25 0.27 0.33 0.38 0.40 0.42 0.44 0.45 0.46 0.47 0.51 0.54 0.55 0.57 0.60 0.59 0.59 0.57 0.53 0.48 0.46 0.46 0.49 0.52 0.54 0.54 0.54 0.54 0.54 0.54 0.55 0.54 0.55 0.55 0.54 0.55 0.55 0.53 0.50
0.15 0.15 0.15 0.16 0.17 0.19 0.23 0.26 0.30 0.33 0.37 0.39 0.40 0.40 0.40 0.43 0.45 0.44 0.43 0.43 0.44 0.44 0.44 0.45 0.46 0.45 0.44 0.46 0.50 0.52 0.54 0.55 0.56 0.56 0.57 0.57 0.59 0.58 0.55 0.50 0.47 0.44 0.44
0.09 0.08 0.08 0.10 0.12 0.12 0.14 0.18 0.24 0.28 0.30 0.33 0.35 0.37 0.36 0.36 0.36 0.36 0.35 0.34 0.35 0.37 0.40 0.43 0.48 0.52 0.54 0.64 0.60 0.55 0.56 0.59 0.59 0.57 0.54 0.52 0.53 0.49 0.47 0.44 0.41 0.42 0.46
0.06 0.05 0.05 0.06 0.06 0.08 0.12 0.18 0.22 0.22 0.24 0.25 0.24 0.25 0.27 0.29 0.29 0.30 0.33 0.38 0.42 0.44 0.49 0.52 0.56 0.61 0.69 0.77 0.69 0.65 0.57 0.58 0.58 0.55 0.50 0.46 0.42 0.41 0.35 0.35 0.36 0.37 0.40
0.04 0.03 0.03 0.03 0.04 0.06 0.10 0.17 0.24 0.26 0.29 0.32 0.29 0.25 0.26 0.31 0.36 0.42 0.47 0.55 0.62 0.66 0.70 0.74 0.75 0.73 0.74 0.73 0.65 0.63 0.56 0.53 0.48 0.43 0.38 0.34 0.30 0.28 0.28 0.30 0.35 0.32 0.28
0.04 0.03 0.03 0.03 0.04 0.06 0.08 0.14 0.22 0.29 0.34 0.38 0.40 0.40 0.42 0.49 0.54 0.63 0.70 0.71 0.78 0.78 0.76 0.74 0.72 0.68 0.62 0.57 0.48 0.42 0.37 0.38 0.37 0.32 0.28 0.26 0.24 0.27 0.32 0.34 0.35 0.25 0.19
0.08 0.05 0.05 0.06 0.08 0.10 0.14 0.21 0.29 0.38 0.45 0.49 0.55 0.56 0.57 0.61 0.62 0.63 0.64 0.63 0.63 0.60 0.54 0.50 0.46 0.42 0.39 0.36 0.31 0.28 0.25 0.23 0.22 0.23 0.23 0.26 0.25 0.29 0.35 0.33 0.28 0.21 0.17
0.19 0.17 0.16 0.18 0.20 0.22 0.29 0.38 0.45 0.53 0.58 0.59 0.63 0.64 0.61 0.58 0.54 0.47 0.41 0.37 0.34 0.31 0.27 0.25 0.24 0.21 0.19 0.19 0.19 0.19 0.17 0.17 0.17 0.17 0.18 0.21 0.30 0.35 0.37 0.31 0.23 0.23 0.25
0.19 0.23 0.27 0.27 0.28 0.33 0.40 0.47 0.53 0.55 0.52 0.46 0.43 0.39 0.34 0.30 0.27 0.23 0.21 0.19 0.17 0.16 0.15 0.13 0.12 0.11 0.11 0.12 0.13 0.15 0.18 0.20 0.19 0.18 0.17 0.20 0.31 0.33 0.30 0.27 0.26 0.30 0.29
0.08 0.12 0.17 0.20 0.20 0.22 0.24 0.26 0.25 0.23 0.20 0.16 0.14 0.13 0.12 0.11 0.11 0.11 0.11 0.10 0.10 0.10 0.09 0.09 0.09 0.09 0.10 0.12 0.15 0.17 0.20 0.24 0.23 0.21 0.22 0.25 0.27 0.25 0.25 0.26 0.28 0.27 0.24
0.05 0.05 0.06 0.06 0.06 0.06 0.06 0.06 0.06 0.06 0.06 0.06 0.06 0.07 0.07 0.07 0.07 0.07 0.07 0.07 0.08 0.08 0.09 0.10 0.10 0.11 0.12 0.13 0.16 0.19 0.22 0.25 0.25 0.25 0.25 0.24 0.23 0.23 0.23 0.24 0.24 0.23 0.22
0.06 0.06 0.07 0.07 0.07 0.07 0.06 0.06 0.06 0.06 0.06 0.06 0.07 0.08 0.09 0.10 0.11 0.11 0.11 0.12 0.12 0.14 0.15 0.14 0.14 0.15 0.15 0.15 0.22 0.25 0.26 0.28 0.30 0.32 0.28 0.26 0.24 0.23 0.21 0.21 0.21 0.21 0.22
0.05 0.06 0.07 0.09 0.09 0.08 0.08 0.08 0.08 0.08 0.08 0.09 0.09 0.10 0.11 0.12 0.12 0.13 0.13 0.15 0.15 0.17 0.18 0.17 0.17 0.17 0.17 0.21 0.26 0.28 0.29 0.32 0.38 0.40 0.32 0.25 0.23 0.22 0.21 0.20 0.22 0.23 0.24

GEFSMW_prec_meanprecacc_120.txt.gz
Total_Precipitation_Accumulation
0.62 0.80 0.98 1.20 1.43 1.65 1.74 1.75 1.71 1.71 1.74 1.72 1.59 1.39 1.20 1.13 1.01 0.93 0.88 0.82 0.77 0.74 0.60 0.44 0.42 0.43 0.40 0.38 0.36 0.34 0.32 0.27 0.23 0.18 0.10 0.05 0.03 0.02 0.01 0.02 0.02 0.02 0.03
0.54 0.63 0.83 1.01 1.28 1.53 1.77 1.85 1.83 1.85 1.72 1.59 1.63 1.60 1.52 1.38 1.27 1.21 1.11 0.97 0.90 0.89 0.81 0.70 0.62 0.58 0.52 0.49 0.48 0.48 0.44 0.39 0.39 0.34 0.28 0.15 0.07 0.03 0.02 0.03 0.03 0.03 0.03
0.49 0.55 0.66 0.76 1.02 1.31 1.62 1.80 1.91 1.94 1.92 1.87 1.99 1.93 1.81 1.58 1.31 1.14 1.13 1.10 1.05 1.02 0.96 0.92 0.90 0.86 0.79 0.69 0.66 0.65 0.59 0.53 0.50 0.48 0.47 0.30 0.15 0.08 0.04 0.03 0.03 0.03 0.03
0.51 0.57 0.63 0.70 0.86 1.10 1.34 1.54 1.81 2.00 2.07 2.12 2.07 1.95 1.74 1.50 1.27 1.23 1.33 1.34 1.26 1.16 1.10 1.07 1.04 1.04 0.95 0.85 0.86 0.87 0.79 0.75 0.65 0.60 0.52 0.42 0.29 0.23 0.14 0.06 0.06 0.05 0.04
0.52 0.57 0.63 0.69 0.81 1.01 1.19 1.33 1.55 1.86 1.95 1.90 1.88 1.95 1.82 1.60 1.48 1.44 1.41 1.38 1.30 1.21 1.12 1.07 1.08 1.05 1.01 0.95 0.94 0.93 0.91 0.87 0.80 0.69 0.63 0.57 0.43 0.30 0.27 0.17 0.09 0.09 0.08
0.60 0.63 0.68 0.72 0.75 0.85 1.05 1.23 1.31 1.52 1.68 1.66 1.71 1.78 1.70 1.63 1.53 1.39 1.32 1.32 1.28 1.17 1.10 1.04 1.02 1.03 1.00 0.95 0.94 0.98 1.00 0.96 0.86 0.74 0.65 0.61 0.52 0.41 0.39 0.34 0.22 0.19 0.16
0.74 0.77 0.74 0.78 0.80 0.82 0.87 1.02 1.14 1.25 1.40 1.53 1.61 1.61 1.63 1.59 1.52 1.42 1.34 1.29 1.23 1.14 1.06 1.03 1.00 1.01 1.02 1.04 1.07 1.04 0.98 0.99 0.95 0.87 0.78 0.70 0.62 0.57 0.57 0.56 0.43 0.34 0.26
0.88 0.89 0.88 0.97 0.99 0.97 0.91 0.93 0.98 1.01 1.12 1.31 1.44 1.47 1.51 1.47 1.38 1.30 1.22 1.17 1.11 1.08 1.08 1.10 1.11 1.10 1.09 1.07 1.06 1.01 0.96 0.96 0.94 0.91 0.87 0.80 0.70 0.69 0.70 0.71 0.75 0.68 0.52
0.93 0.98 1.02 1.03 0.99 0.93 0.92 0.92 0.96 0.93 0.90 0.99 1.11 1.19 1.26 1.26 1.20 1.14 1.06 1.02 1.00 1.00 1.02 1.07 1.09 1.09 1.07 1.02 1.00 0.95 0.91 0.92 0.91 0.87 0.85 0.81 0.73 0.72 0.71 0.73 0.80 0.89 0.80
0.81 0.89 0.90 0.87 0.89 0.90 0.88 0.90 0.95 0.97 0.91 0.89 0.95 1.04 1.04 1.01 0.97 0.96 0.92 0.85 0.83 0.83 0.86 0.92 0.97 0.98 0.96 0.93 0.92 0.88 0.86 0.88 0.85 0.83 0.84 0.82 0.75 0.72 0.72 0.74 0.79 0.86 0.92
0.62 0.65 0.66 0.69 0.73 0.78 0.84 0.92 1.01 1.00 0.89 0.91 0.95 0.95 0.97 0.98 0.91 0.85 0.83 0.83 0.79 0.77 0.81 0.84 0.86 0.87 0.88 0.88 0.86 0.81 0.77 0.77 0.77 0.77 0.78 0.78 0.77 0.78 0.77 0.76 0.79 0.82 0.87
0.54 0.54 0.53 0.52 0.52 0.56 0.62 0.70 0.79 0.80 0.77 0.79 0.87 0.84 0.86 0.95 0.92 0.84 0.79 0.78 0.74 0.67 0.66 0.69 0.71 0.71 0.70 0.72 0.73 0.73 0.71 0.68 0.67 0.68 0.71 0.71 0.72 0.74 0.75 0.78 0.80 0.80 0.80
0.40 0.38 0.39 0.41 0.40 0.41 0.45 0.55 0.62 0.62 0.64 0.67 0.70 0.71 0.72 0.78 0.80 0.82 0.81 0.77 0.74 0.67 0.60 0.57 0.58 0.60 0.60 0.60 0.61 0.62 0.62 0.63 0.63 0.62 0.64 0.67 0.72 0.76 0.75 0.76 0.76 0.74 0.73
0.27 0.26 0.26 0.27 0.28 0.31 0.37 0.42 0.45 0.47 0.49 0.49 0.50 0.51 0.55 0.59 0.60 0.62 0.65 0.65 0.65 0.62 0.58 0.53 0.51 0.51 0.54 0.58 0.59 0.60 0.61 0.62 0.63 0.63 0.64 0.65 0.67 0.69 0.71 0.74 0.74 0.71 0.69
0.17 0.16 0.16 0.18 0.19 0.21 0.26 0.30 0.34 0.39 0.43 0.43 0.43 0.44 0.44 0.46 0.48 0.47 0.47 0.47 0.48 0.49 0.49 0.50 0.50 0.48 0.48 0.50 0.54 0.57 0.60 0.61 0.63 0.63 0.64 0.66 0.70 0.71 0.69 0.67 0.66 0.65 0.66
0.10 0.09 0.09 0.11 0.13 0.14 0.16 0.21 0.27 0.32 0.34 0.37 0.38 0.40 0.40 0.39 0.39 0.39 0.38 0.37 0.38 0.41 0.44 0.48 0.52 0.56 0.58 0.70 0.66 0.60 0.61 0.65 0.65 0.63 0.60 0.59 0.62 0.60 0.60 0.58 0.56 0.60 0.66
0.08 0.07 0.07 0.07 0.07 0.09 0.14 0.20 0.24 0.25 0.27 0.28 0.29 0.29 0.30 0.33 0.34 0.36 0.39 0.44 0.49 0.50 0.54 0.58 0.62 0.66 0.73 0.81 0.73 0.69 0.61 0.62 0.63 0.60 0.55 0.51 0.48 0.48 0.41 0.43 0.46 0.48 0.53
0.04 0.04 0.04 0.04 0.05 0.07 0.12 0.19 0.27 0.29 0.31 0.34 0.33 0.30 0.30 0.36 0.42 0.48 0.54 0.63 0.70 0.73 0.77 0.81 0.82 0.81 0.81 0.78 0.69 0.67 0.59 0.56 0.52 0.47 0.42 0.38 0.34 0.32 0.32 0.34 0.41 0.39 0.36
0.04 0.04 0.04 0.04 0.05 0.07 0.09 0.15 0.24 0.31 0.35 0.40 0.43 0.43 0.46 0.53 0.59 0.68 0.77 0.79 0.85 0.85 0.82 0.80 0.78 0.74 0.69 0.63 0.53 0.46 0.40 0.41 0.40 0.35 0.32 0.31 0.29 0.33 0.38 0.39 0.41 0.31 0.25
0.08 0.06 0.06 0.07 0.09 0.11 0.15 0.22 0.30 0.39 0.45 0.50 0.56 0.57 0.58 0.62 0.64 0.65 0.67 0.67 0.66 0.64 0.58 0.54 0.50 0.47 0.43 0.41 0.36 0.32 0.28 0.27 0.25 0.26 0.26 0.30 0.29 0.34 0.41 0.38 0.33 0.27 0.23
0.19 0.17 0.16 0.18 0.20 0.23 0.30 0.39 0.46 0.54 0.59 0.60 0.63 0.64 0.61 0.59 0.55 0.48 0.41 0.38 0.35 0.32 0.28 0.26 0.24 0.22 0.20 0.21 0.21 0.21 0.20 0.20 0.20 0.19 0.20 0.23 0.32 0.38 0.40 0.34 0.26 0.27 0.30
0.19 0.23 0.27 0.27 0.28 0.33 0.40 0.47 0.53 0.56 0.52 0.46 0.43 0.39 0.34 0.30 0.27 0.23 0.21 0.19 0.17 0.16 0.15 0.13 0.12 0.11 0.11 0.12 0.13 0.16 0.19 0.22 0.20 0.19 0.18 0.22 0.33 0.35 0.33 0.31 0.30 0.34 0.33
0.08 0.12 0.17 0.20 0.20 0.22 0.24 0.26 0.25 0.23 0.20 0.16 0.14 0.13 0.12 0.11 0.11 0.11 0.11 0.10 0.10 0.10 0.09 0.09 0.09 0.09 0.10 0.12 0.15 0.18 0.21 0.25 0.24 0.21 0.23 0.27 0.29 0.28 0.28 0.31 0.34 0.33 0.29
0.05 0.05 0.06 0.06 0.06 0.06 0.06 0.06 0.06 0.06 0.06 0.06 0.06 0.07 0.07 0.07 0.07 0.07 0.07 0.07 0.08 0.08 0.09 0.10 0.10 0.11 0.12 0.13 0.16 0.19 0.22 0.25 0.26 0.26 0.25 0.25 0.24 0.25 0.26 0.28 0.30 0.31 0.31
0.06 0.06 0.07 0.07 0.07 0.07 0.06 0.06 0.06 0.06 0.06 0.06 0.07 0.08 0.09 0.10 0.11 0.11 0.11 0.12 0.12 0.14 0.15 0.14 0.15 0.16 0.15 0.16 0.22 0.26 0.27 0.29 0.31 0.33 0.29 0.27 0.26 0.25 0.24 0.25 0.26 0.28 0.31
0.05 0.06 0.07 0.09 0.09 0.08 0.08 0.08 0.08 0.08 0.08 0.09 0.09 0.10 0.11 0.12 0.12 0.13 0.13 0.15 0.15 0.17 0.18 0.18 0.18 0.17 0.18 0.21 0.26 0.29 0.30 0.34 0.39 0.41 0.33 0.27 0.24 0.24 0.24 0.24 0.27 0.29 0.31

GEFSMW_prec_meanprecacc_126.txt.gz
Total_Precipitation_Accumulation
0.62 0.80 0.98 1.20 1.43 1.65 1.74 1.75 1.71 1.71 1.74 1.72 1.59 1.39 1.20 1.13 1.02 0.95 0.90 0.86 0.83 0.82 0.70 0.55 0.54 0.55 0.52 0.48 0.46 0.44 0.42 0.36 0.34 0.29 0.19 0.12 0.09 0.08 0.06 0.05 0.04 0.04 0.04
0.54 0.63 0.83 1.01 1.28 1.53 1.77 1.85 1.83 1.85 1.72 1.59 1.63 1.60 1.53 1.39 1.28 1.22 1.13 1.00 0.95 0.95 0.91 0.81 0.73 0.69 0.63 0.60 0.59 0.58 0.53 0.49 0.49 0.45 0.39 0.25 0.15 0.10 0.07 0.07 0.06 0.05 0.05
0.50 0.55 0.66 0.76 1.02 1.31 1.62 1.80 1.91 1.94 1.93 1.87 1.99 1.94 1.82 1.58 1.32 1.15 1.15 1.14 1.10 1.08 1.04 1.03 1.01 0.98 0.92 0.79 0.76 0.76 0.70 0.63 0.61 0.58 0.58 0.39 0.23 0.15 0.11 0.09 0.08 0.07 0.06
0.51 0.57 0.63 0.70 0.86 1.10 1.34 1.54 1.81 2.00 2.07 2.13 2.08 1.96 1.74 1.51 1.27 1.24 1.34 1.37 1.31 1.22 1.17 1.15 1.15 1.14 1.07 0.97 0.97 0.99 0.90 0.85 0.76 0.70 0.62 0.50 0.36 0.30 0.20 0.12 0.10 0.10 0.08
0.52 0.57 0.63 0.69 0.81 1.01 1.20 1.33 1.55 1.86 1.96 1.91 1.89 1.96 1.83 1.61 1.49 1.46 1.43 1.41 1.33 1.26 1.20 1.17 1.18 1.16 1.12 1.05 1.05 1.07 1.05 1.01 0.92 0.80 0.73 0.67 0.53 0.39 0.34 0.22 0.14 0.13 0.13
0.60 0.63 0.68 0.72 0.75 0.85 1.05 1.23 1.32 1.53 1.68 1.67 1.72 1.79 1.71 1.64 1.54 1.41 1.36 1.36 1.31 1.23 1.17 1.14 1.15 1.17 1.16 1.11 1.10 1.14 1.16 1.13 1.03 0.91 0.78 0.73 0.64 0.51 0.48 0.41 0.28 0.24 0.20
0.75 0.78 0.75 0.78 0.80 0.82 0.88 1.03 1.14 1.25 1.41 1.55 1.64 1.63 1.64 1.61 1.54 1.44 1.38 1.34 1.29 1.21 1.14 1.11 1.11 1.13 1.14 1.17 1.23 1.22 1.16 1.16 1.12 1.04 0.94 0.86 0.76 0.70 0.69 0.67 0.52 0.41 0.32
0.89 0.90 0.89 0.98 1.00 0.97 0.92 0.94 0.99 1.02 1.13 1.33 1.47 1.50 1.54 1.50 1.40 1.32 1.25 1.21 1.15 1.13 1.15 1.17 1.19 1.20 1.18 1.17 1.16 1.13 1.09 1.10 1.08 1.05 1.01 0.95 0.85 0.83 0.83 0.83 0.87 0.78 0.60
0.94 0.99 1.03 1.04 1.00 0.95 0.93 0.94 0.98 0.94 0.92 1.01 1.14 1.22 1.29 1.30 1.23 1.16 1.08 1.06 1.05 1.06 1.09 1.14 1.16 1.16 1.14 1.10 1.09 1.05 1.02 1.04 1.03 1.00 0.98 0.94 0.86 0.85 0.85 0.87 0.94 1.03 0.92
0.81 0.90 0.91 0.88 0.90 0.91 0.90 0.92 0.96 0.99 0.93 0.91 0.97 1.06 1.06 1.04 1.00 0.98 0.94 0.87 0.87 0.88 0.91 0.98 1.04 1.05 1.04 1.01 1.01 0.98 0.95 0.98 0.95 0.93 0.95 0.92 0.86 0.84 0.86 0.89 0.93 1.02 1.08
0.62 0.66 0.67 0.70 0.74 0.78 0.85 0.93 1.02 1.01 0.90 0.92 0.96 0.97 0.98 1.00 0.92 0.85 0.84 0.85 0.82 0.81 0.84 0.87 0.91 0.92 0.93 0.94 0.92 0.88 0.85 0.85 0.85 0.85 0.86 0.87 0.86 0.87 0.88 0.89 0.93 0.98 1.04
0.55 0.54 0.53 0.52 0.52 0.57 0.62 0.71 0.80 0.80 0.78 0.80 0.88 0.86 0.88 0.97 0.93 0.86 0.81 0.80 0.77 0.70 0.70 0.73 0.75 0.76 0.76 0.77 0.79 0.78 0.76 0.75 0.73 0.74 0.77 0.78 0.80 0.82 0.84 0.89 0.94 0.95 0.97
0.41 0.38 0.39 0.41 0.40 0.41 0.46 0.55 0.62 0.63 0.64 0.67 0.71 0.71 0.73 0.79 0.82 0.84 0.83 0.79 0.78 0.71 0.63 0.60 0.62 0.62 0.63 0.63 0.65 0.66 0.66 0.67 0.67 0.66 0.69 0.71 0.77 0.82 0.81 0.83 0.85 0.85 0.85
0.29 0.27 0.27 0.28 0.29 0.32 0.38 0.42 0.45 0.47 0.49 0.49 0.51 0.51 0.56 0.60 0.61 0.63 0.67 0.68 0.67 0.65 0.60 0.55 0.53 0.52 0.55 0.59 0.60 0.61 0.62 0.64 0.64 0.65 0.67 0.68 0.71 0.73 0.76 0.79 0.80 0.79 0.78
0.18 0.17 0.17 0.18 0.20 0.22 0.26 0.30 0.35 0.39 0.43 0.44 0.43 0.44 0.45 0.47 0.48 0.48 0.47 0.48 0.50 0.52 0.53 0.52 0.52 0.50 0.49 0.52 0.55 0.59 0.61 0.63 0.65 0.66 0.67 0.69 0.74 0.75 0.74 0.73 0.72 0.72 0.75
0.11 0.10 0.10 0.11 0.14 0.15 0.17 0.22 0.27 0.32 0.35 0.38 0.39 0.40 0.40 0.40 0.40 0.40 0.39 0.37 0.39 0.42 0.46 0.50 0.54 0.58 0.59 0.71 0.67 0.61 0.63 0.66 0.67 0.65 0.63 0.62 0.65 0.64 0.64 0.63 0.62 0.66 0.73
0.08 0.08 0.08 0.08 0.08 0.10 0.15 0.21 0.25 0.26 0.27 0.29 0.29 0.30 0.31 0.34 0.35 0.37 0.40 0.45 0.49 0.50 0.54 0.59 0.63 0.67 0.74 0.82 0.74 0.70 0.62 0.63 0.65 0.62 0.57 0.53 0.51 0.52 0.45 0.47 0.51 0.53 0.60
0.05 0.04 0.04 0.05 0.06 0.08 0.12 0.20 0.27 0.30 0.32 0.35 0.33 0.30 0.31 0.37 0.43 0.49 0.55 0.64 0.71 0.74 0.78 0.81 0.82 0.82 0.82 0.80 0.71 0.68 0.59 0.57 0.53 0.48 0.43 0.40 0.36 0.34 0.35 0.37 0.45 0.44 0.42
0.05 0.04 0.04 0.05 0.06 0.08 0.10 0.16 0.25 0.31 0.36 0.41 0.44 0.44 0.47 0.54 0.60 0.69 0.77 0.80 0.86 0.86 0.83 0.80 0.79 0.75 0.70 0.65 0.55 0.47 0.41 0.42 0.41 0.36 0.33 0.33 0.31 0.35 0.41 0.41 0.43 0.34 0.29
0.09 0.06 0.06 0.07 0.09 0.12 0.16 0.22 0.30 0.39 0.46 0.50 0.57 0.58 0.60 0.63 0.65 0.66 0.68 0.68 0.67 0.65 0.59 0.55 0.52 0.48 0.45 0.43 0.38 0.34 0.30 0.28 0.27 0.27 0.27 0.31 0.31 0.38 0.44 0.41 0.36 0.30 0.26
0.19 0.17 0.17 0.18 0.21 0.24 0.31 0.39 0.46 0.55 0.59 0.60 0.64 0.65 0.62 0.59 0.55 0.49 0.42 0.40 0.37 0.33 0.30 0.27 0.25 0.23 0.21 0.22 0.23 0.24 0.23 0.23 0.23 0.22 0.23 0.25 0.35 0.41 0.43 0.37 0.30 0.30 0.33
0.19 0.24 0.27 0.28 0.29 0.34 0.41 0.48 0.53 0.56 0.52 0.46 0.43 0.39 0.34 0.30 0.27 0.24 0.21 0.20 0.18 0.17 0.16 0.14 0.13 0.12 0.11 0.12 0.14 0.17 0.20 0.23 0.22 0.20 0.20 0.23 0.35 0.37 0.35 0.33 0.32 0.35 0.34
0.08 0.12 0.17 0.20 0.20 0.22 0.24 0.26 0.25 0.23 0.20 0.17 0.14 0.13 0.12 0.11 0.11 0.11 0.11 0.10 0.10 0.10 0.10 0.10 0.09 0.09 0.10 0.12 0.16 0.18 0.21 0.25 0.25 0.22 0.24 0.28 0.30 0.29 0.29 0.32 0.35 0.34 0.30
0.05 0.05 0.06 0.06 0.06 0.06 0.06 0.06 0.06 0.06 0.06 0.06 0.06 0.07 0.07 0.07 0.07 0.07 0.07 0.07 0.08 0.08 0.09 0.10 0.11 0.11 0.12 0.13 0.16 0.20 0.22 0.25 0.27 0.26 0.26 0.25 0.25 0.26 0.27 0.29 0.31 0.32 0.32
0.06 0.06 0.07 0.07 0.07 0.07 0.06 0.06 0.06 0.06 0.06 0.06 0.07 0.08 0.09 0.10 0.11 0.11 0.11 0.12 0.12 0.14 0.15 0.14 0.15 0.16 0.16 0.16 0.23 0.27 0.27 0.30 0.32 0.34 0.29 0.27 0.26 0.25 0.24 0.25 0.27 0.29 0.32
0.05 0.06 0.07 0.09 0.09 0.08 0.08 0.08 0.08 0.08 0.08 0.09 0.09 0.10 0.11 0.12 0.12 0.13 0.13 0.15 0.15 0.17 0.18 0.18 0.18 0.17 0.18 0.22 0.27 0.29 0.31 0.34 0.40 0.42 0.33 0.27 0.25 0.25 0.24 0.25 0.28 0.30 0.33

GEFSMW_prec_meanprecacc_132.txt.gz
Total_Precipitation_Accumulation
0.62 0.80 0.98 1.20 1.43 1.65 1.74 1.75 1.71 1.71 1.74 1.72 1.59 1.39 1.20 1.13 1.02 0.95 0.90 0.87 0.85 0.87 0.79 0.65 0.64 0.66 0.60 0.55 0.53 0.51 0.48 0.42 0.41 0.36 0.25 0.18 0.15 0.12 0.09 0.08 0.08 0.08 0.08
0.54 0.63 0.83 1.01 1.28 1.53 1.77 1.85 1.83 1.85 1.72 1.59 1.63 1.60 1.53 1.39 1.28 1.23 1.13 1.00 0.96 0.97 0.96 0.92 0.87 0.83 0.76 0.70 0.68 0.67 0.61 0.56 0.56 0.51 0.46 0.30 0.19 0.13 0.10 0.10 0.09 0.09 0.09
0.50 0.55 0.66 0.76 1.02 1.31 1.62 1.80 1.91 1.94 1.93 1.87 1.99 1.94 1.82 1.58 1.32 1.15 1.15 1.14 1.11 1.09 1.07 1.07 1.08 1.07 1.02 0.91 0.87 0.86 0.80 0.74 0.71 0.68 0.68 0.47 0.27 0.18 0.14 0.12 0.11 0.11 0.10
0.51 0.57 0.63 0.70 0.86 1.10 1.34 1.54 1.81 2.00 2.07 2.13 2.08 1.96 1.74 1.51 1.27 1.24 1.34 1.37 1.31 1.23 1.18 1.17 1.17 1.17 1.11 1.03 1.07 1.10 1.02 0.98 0.90 0.85 0.75 0.61 0.43 0.36 0.24 0.15 0.14 0.14 0.12
0.52 0.57 0.63 0.69 0.81 1.01 1.20 1.33 1.55 1.86 1.96 1.91 1.89 1.96 1.83 1.61 1.49 1.46 1.43 1.41 1.34 1.27 1.21 1.19 1.20 1.18 1.15 1.08 1.10 1.15 1.16 1.13 1.06 0.96 0.89 0.85 0.67 0.49 0.42 0.28 0.18 0.18 0.17
0.60 0.63 0.68 0.72 0.75 0.85 1.05 1.23 1.32 1.53 1.68 1.67 1.72 1.79 1.71 1.64 1.54 1.41 1.36 1.36 1.32 1.24 1.18 1.15 1.17 1.19 1.18 1.13 1.13 1.18 1.22 1.22 1.14 1.03 0.92 0.88 0.79 0.64 0.60 0.51 0.35 0.30 0.25
0.75 0.78 0.75 0.79 0.80 0.82 0.88 1.03 1.14 1.25 1.41 1.55 1.64 1.63 1.65 1.62 1.55 1.45 1.38 1.35 1.30 1.22 1.16 1.13 1.14 1.17 1.19 1.21 1.27 1.26 1.22 1.24 1.22 1.16 1.07 0.99 0.89 0.82 0.82 0.78 0.61 0.49 0.38
0.89 0.90 0.89 0.98 1.01 0.98 0.92 0.94 0.99 1.02 1.14 1.33 1.47 1.51 1.55 1.52 1.42 1.33 1.26 1.22 1.16 1.14 1.16 1.20 1.23 1.25 1.25 1.24 1.24 1.21 1.16 1.17 1.15 1.13 1.11 1.05 0.96 0.95 0.96 0.96 0.98 0.88 0.68
0.94 0.99 1.03 1.04 1.00 0.96 0.94 0.94 0.98 0.95 0.92 1.01 1.14 1.23 1.30 1.30 1.24 1.16 1.09 1.07 1.06 1.07 1.11 1.16 1.20 1.21 1.20 1.17 1.16 1.13 1.09 1.11 1.10 1.07 1.06 1.03 0.96 0.96 0.96 0.97 1.04 1.13 1.00
0.81 0.90 0.91 0.88 0.90 0.92 0.90 0.93 0.97 0.99 0.93 0.91 0.97 1.06 1.06 1.04 1.00 0.99 0.94 0.88 0.89 0.90 0.93 1.00 1.06 1.07 1.07 1.05 1.05 1.03 1.01 1.03 1.01 0.99 1.02 1.00 0.93 0.92 0.93 0.97 1.01 1.09 1.14
0.62 0.66 0.67 0.70 0.74 0.79 0.85 0.93 1.03 1.02 0.91 0.93 0.96 0.97 0.99 1.00 0.92 0.86 0.85 0.86 0.83 0.82 0.86 0.88 0.93 0.95 0.95 0.96 0.95 0.92 0.90 0.91 0.90 0.90 0.92 0.92 0.91 0.93 0.93 0.94 0.98 1.03 1.10
0.55 0.54 0.53 0.52 0.52 0.57 0.62 0.71 0.80 0.81 0.79 0.81 0.90 0.86 0.88 0.97 0.94 0.86 0.81 0.81 0.77 0.71 0.70 0.74 0.77 0.77 0.78 0.79 0.81 0.82 0.80 0.79 0.78 0.78 0.82 0.83 0.85 0.86 0.88 0.93 0.97 0.99 1.01
0.41 0.38 0.39 0.41 0.41 0.41 0.46 0.55 0.63 0.63 0.65 0.68 0.73 0.73 0.74 0.80 0.82 0.85 0.84 0.80 0.78 0.72 0.64 0.61 0.63 0.64 0.65 0.65 0.67 0.69 0.70 0.71 0.70 0.70 0.72 0.74 0.79 0.84 0.84 0.85 0.88 0.88 0.88
0.30 0.27 0.27 0.28 0.29 0.32 0.38 0.42 0.45 0.47 0.49 0.49 0.51 0.53 0.58 0.60 0.61 0.64 0.68 0.68 0.68 0.65 0.61 0.56 0.54 0.53 0.56 0.60 0.62 0.63 0.65 0.66 0.66 0.67 0.69 0.70 0.72 0.74 0.77 0.80 0.81 0.81 0.80
0.19 0.17 0.17 0.18 0.20 0.22 0.26 0.30 0.35 0.39 0.43 0.44 0.43 0.44 0.46 0.48 0.49 0.48 0.47 0.48 0.50 0.52 0.53 0.53 0.53 0.50 0.50 0.52 0.56 0.59 0.63 0.65 0.67 0.68 0.68 0.70 0.75 0.76 0.75 0.74 0.73 0.74 0.78
0.12 0.11 0.10 0.11 0.14 0.15 0.17 0.22 0.27 0.32 0.35 0.38 0.39 0.40 0.40 0.40 0.41 0.40 0.39 0.37 0.39 0.42 0.46 0.50 0.54 0.58 0.60 0.71 0.68 0.62 0.63 0.67 0.67 0.66 0.64 0.63 0.66 0.65 0.65 0.64 0.64 0.69 0.76
0.09 0.08 0.08 0.08 0.08 0.10 0.15 0.21 0.25 0.26 0.27 0.29 0.29 0.30 0.31 0.34 0.35 0.37 0.40 0.45 0.49 0.50 0.54 0.59 0.63 0.67 0.75 0.83 0.74 0.70 0.62 0.64 0.65 0.62 0.58 0.53 0.51 0.53 0.46 0.48 0.52 0.55 0.62
0.05 0.05 0.05 0.05 0.06 0.08 0.13 0.20 0.27 0.30 0.32 0.35 0.34 0.31 0.31 0.37 0.43 0.49 0.55 0.64 0.71 0.74 0.78 0.81 0.83 0.82 0.82 0.80 0.71 0.68 0.60 0.57 0.53 0.48 0.44 0.40 0.36 0.35 0.36 0.38 0.46 0.45 0.43
0.05 0.04 0.04 0.05 0.07 0.09 0.11 0.16 0.25 0.32 0.36 0.41 0.45 0.45 0.47 0.54 0.60 0.69 0.77 0.80 0.86 0.86 0.83 0.80 0.79 0.75 0.70 0.65 0.56 0.48 0.42 0.42 0.41 0.36 0.33 0.33 0.31 0.36 0.42 0.42 0.44 0.35 0.30
0.09 0.06 0.07 0.08 0.10 0.13 0.16 0.23 0.30 0.39 0.46 0.50 0.57 0.59 0.60 0.63 0.66 0.67 0.68 0.68 0.68 0.65 0.59 0.55 0.52 0.48 0.45 0.43 0.38 0.35 0.30 0.29 0.27 0.27 0.28 0.32 0.32 0.38 0.45 0.42 0.37 0.31 0.27
0.19 0.17 0.17 0.19 0.21 0.25 0.31 0.39 0.46 0.55 0.59 0.60 0.64 0.65 0.62 0.60 0.57 0.50 0.44 0.41 0.38 0.34 0.30 0.27 0.26 0.23 0.22 0.22 0.23 0.24 0.23 0.24 0.24 0.23 0.24 0.26 0.36 0.42 0.44 0.38 0.31 0.32 0.35
0.20 0.24 0.27 0.28 0.29 0.35 0.42 0.48 0.54 0.56 0.52 0.46 0.43 0.40 0.34 0.30 0.28 0.25 0.22 0.21 0.20 0.18 0.17 0.15 0.13 0.12 0.12 0.13 0.14 0.17 0.20 0.23 0.23 0.21 0.21 0.24 0.36 0.38 0.36 0.34 0.33 0.37 0.36
0.08 0.12 0.17 0.20 0.21 0.22 0.25 0.27 0.26 0.23 0.20 0.17 0.14 0.13 0.12 0.11 0.12 0.11 0.11 0.10 0.11 0.11 0.10 0.10 0.10 0.10 0.10 0.12 0.16 0.18 0.22 0.26 0.25 0.23 0.25 0.28 0.30 0.29 0.30 0.32 0.36 0.35 0.31
0.06 0.05 0.06 0.07 0.07 0.06 0.06 0.06 0.06 0.06 0.06 0.06 0.06 0.07 0.07 0.07 0.07 0.07 0.07 0.07 0.08 0.08 0.09 0.10 0.11 0.11 0.12 0.13 0.16 0.20 0.23 0.26 0.27 0.26 0.26 0.26 0.25 0.26 0.27 0.29 0.31 0.32 0.33
0.06 0.06 0.07 0.07 0.07 0.07 0.06 0.06 0.06 0.06 0.06 0.06 0.07 0.08 0.09 0.10 0.11 0.11 0.11 0.12 0.12 0.14 0.15 0.14 0.15 0.16 0.16 0.16 0.23 0.27 0.28 0.30 0.32 0.34 0.29 0.27 0.26 0.25 0.25 0.26 0.27 0.29 0.33
0.05 0.06 0.07 0.09 0.09 0.08 0.08 0.08 0.08 0.08 0.08 0.09 0.09 0.10 0.11 0.12 0.12 0.13 0.13 0.15 0.15 0.17 0.18 0.18 0.18 0.17 0.18 0.22 0.27 0.29 0.31 0.34 0.40 0.42 0.33 0.27 0.25 0.25 0.25 0.26 0.28 0.31 0.34

GEFSMW_prec_meanprecacc_138.txt.gz
Total_Precipitation_Accumulation
0.62 0.80 0.98 1.20 1.43 1.65 1.74 1.75 1.71 1.71 1.74 1.72 1.59 1.39 1.20 1.13 1.02 0.95 0.91 0.88 0.88 0.92 0.84 0.70 0.70 0.73 0.66 0.60 0.57 0.56 0.53 0.47 0.46 0.42 0.30 0.22 0.18 0.15 0.11 0.10 0.10 0.10 0.10
0.54 0.63 0.83 1.01 1.28 1.53 1.77 1.85 1.83 1.85 1.72 1.59 1.63 1.60 1.53 1.39 1.28 1.23 1.13 1.00 0.96 0.98 0.98 0.95 0.92 0.90 0.86 0.83 0.78 0.76 0.70 0.63 0.64 0.58 0.53 0.36 0.24 0.17 0.13 0.13 0.12 0.11 0.12
0.50 0.55 0.66 0.76 1.02 1.31 1.62 1.80 1.91 1.94 1.93 1.87 1.99 1.94 1.82 1.58 1.32 1.15 1.15 1.14 1.11 1.10 1.07 1.08 1.10 1.10 1.06 0.97 0.95 0.95 0.89 0.81 0.79 0.76 0.77 0.56 0.34 0.23 0.18 0.17 0.15 0.15 0.14
0.51 0.57 0.63 0.70 0.86 1.10 1.34 1.54 1.81 2.00 2.07 2.13 2.08 1.96 1.75 1.51 1.27 1.24 1.34 1.37 1.31 1.23 1.19 1.18 1.18 1.18 1.13 1.05 1.09 1.13 1.05 1.03 0.95 0.92 0.84 0.71 0.52 0.44 0.32 0.22 0.22 0.21 0.18
0.52 0.57 0.63 0.69 0.81 1.01 1.20 1.33 1.55 1.86 1.96 1.91 1.89 1.96 1.83 1.61 1.49 1.46 1.43 1.41 1.34 1.27 1.21 1.19 1.20 1.18 1.15 1.09 1.11 1.16 1.18 1.16 1.10 1.02 0.98 0.96 0.83 0.67 0.59 0.43 0.32 0.31 0.28
0.60 0.63 0.68 0.72 0.75 0.85 1.05 1.23 1.32 1.53 1.68 1.67 1.72 1.79 1.71 1.64 1.54 1.41 1.36 1.36 1.32 1.24 1.18 1.16 1.17 1.19 1.18 1.14 1.14 1.19 1.24 1.24 1.17 1.07 0.97 0.95 0.88 0.77 0.75 0.66 0.48 0.42 0.35
0.75 0.78 0.75 0.79 0.80 0.82 0.88 1.03 1.14 1.25 1.41 1.55 1.64 1.63 1.65 1.62 1.55 1.45 1.38 1.35 1.30 1.23 1.16 1.13 1.15 1.18 1.20 1.23 1.29 1.29 1.25 1.27 1.25 1.19 1.11 1.04 0.94 0.88 0.89 0.86 0.69 0.57 0.45
0.89 0.90 0.89 0.98 1.01 0.98 0.92 0.94 0.99 1.02 1.14 1.33 1.47 1.51 1.55 1.52 1.42 1.33 1.26 1.22 1.16 1.14 1.16 1.21 1.24 1.26 1.26 1.26 1.27 1.24 1.20 1.21 1.19 1.17 1.15 1.09 1.00 1.00 1.01 1.01 1.04 0.95 0.75
0.94 0.99 1.03 1.04 1.00 0.96 0.94 0.94 0.98 0.95 0.92 1.01 1.14 1.23 1.30 1.30 1.24 1.16 1.09 1.07 1.07 1.07 1.11 1.16 1.21 1.22 1.21 1.19 1.18 1.16 1.13 1.15 1.14 1.11 1.11 1.07 1.00 0.99 0.99 1.01 1.09 1.19 1.06
0.81 0.90 0.91 0.88 0.90 0.92 0.90 0.93 0.97 1.00 0.94 0.91 0.97 1.06 1.06 1.04 1.00 0.99 0.94 0.88 0.89 0.90 0.93 1.00 1.07 1.08 1.07 1.06 1.07 1.05 1.03 1.07 1.04 1.03 1.05 1.03 0.96 0.95 0.97 1.01 1.05 1.14 1.21
0.63 0.66 0.67 0.70 0.74 0.79 0.85 0.93 1.03 1.03 0.91 0.93 0.97 0.97 0.99 1.00 0.92 0.86 0.85 0.86 0.83 0.82 0.86 0.89 0.93 0.95 0.96 0.96 0.96 0.93 0.91 0.93 0.93 0.93 0.94 0.95 0.95 0.97 0.97 0.99 1.03 1.08 1.15
0.55 0.54 0.53 0.52 0.52 0.57 0.62 0.71 0.80 0.81 0.79 0.82 0.90 0.87 0.89 0.97 0.94 0.86 0.81 0.81 0.77 0.71 0.71 0.74 0.77 0.78 0.78 0.80 0.82 0.82 0.81 0.80 0.79 0.80 0.85 0.85 0.88 0.90 0.93 0.98 1.02 1.05 1.07
0.42 0.39 0.39 0.41 0.41 0.41 0.46 0.55 0.63 0.63 0.65 0.68 0.73 0.73 0.74 0.80 0.82 0.85 0.84 0.80 0.78 0.72 0.64 0.62 0.63 0.64 0.65 0.66 0.68 0.70 0.70 0.71 0.71 0.71 0.73 0.76 0.82 0.87 0.87 0.90 0.92 0.92 0.92
0.31 0.27 0.27 0.28 0.29 0.32 0.38 0.42 0.45 0.47 0.49 0.50 0.51 0.54 0.59 0.61 0.62 0.64 0.68 0.68 0.68 0.65 0.61 0.57 0.54 0.54 0.57 0.61 0.63 0.65 0.66 0.67 0.67 0.68 0.70 0.72 0.74 0.76 0.79 0.83 0.84 0.84 0.84
0.19 0.17 0.17 0.18 0.20 0.22 0.26 0.30 0.35 0.39 0.43 0.44 0.43 0.45 0.46 0.49 0.51 0.49 0.48 0.48 0.50 0.53 0.53 0.53 0.53 0.51 0.50 0.53 0.56 0.60 0.63 0.66 0.68 0.68 0.69 0.72 0.78 0.79 0.77 0.76 0.75 0.76 0.80
0.12 0.11 0.10 0.11 0.14 0.15 0.17 0.22 0.27 0.32 0.35 0.38 0.40 0.41 0.41 0.41 0.42 0.42 0.40 0.38 0.39 0.42 0.46 0.50 0.55 0.58 0.60 0.72 0.68 0.62 0.63 0.67 0.68 0.67 0.64 0.64 0.67 0.66 0.66 0.65 0.65 0.70 0.78
0.09 0.09 0.08 0.08 0.08 0.10 0.15 0.21 0.25 0.26 0.27 0.30 0.30 0.30 0.31 0.34 0.35 0.37 0.41 0.46 0.50 0.51 0.55 0.59 0.64 0.68 0.75 0.83 0.75 0.70 0.62 0.64 0.65 0.63 0.58 0.54 0.52 0.53 0.46 0.49 0.53 0.56 0.63
0.05 0.05 0.05 0.05 0.06 0.08 0.13 0.20 0.28 0.30 0.32 0.36 0.34 0.31 0.32 0.37 0.43 0.49 0.55 0.64 0.72 0.75 0.78 0.82 0.83 0.82 0.82 0.80 0.71 0.68 0.60 0.57 0.54 0.48 0.44 0.40 0.36 0.35 0.36 0.39 0.46 0.45 0.43
0.05 0.04 0.05 0.06 0.07 0.09 0.11 0.16 0.25 0.32 0.36 0.41 0.45 0.45 0.47 0.55 0.60 0.69 0.78 0.81 0.87 0.86 0.83 0.81 0.79 0.75 0.70 0.65 0.56 0.48 0.42 0.43 0.41 0.37 0.33 0.33 0.31 0.36 0.42 0.43 0.44 0.35 0.30
0.09 0.06 0.07 0.08 0.11 0.14 0.17 0.23 0.31 0.40 0.46 0.51 0.57 0.59 0.61 0.64 0.66 0.67 0.69 0.69 0.69 0.66 0.60 0.56 0.52 0.48 0.45 0.43 0.38 0.35 0.31 0.29 0.28 0.27 0.28 0.32 0.32 0.39 0.46 0.42 0.38 0.32 0.28
0.19 0.17 0.17 0.19 0.22 0.25 0.32 0.40 0.46 0.55 0.60 0.61 0.64 0.65 0.63 0.62 0.58 0.50 0.44 0.42 0.39 0.34 0.31 0.28 0.26 0.23 0.22 0.22 0.23 0.24 0.23 0.24 0.24 0.23 0.24 0.26 0.36 0.42 0.45 0.39 0.31 0.33 0.36
0.20 0.24 0.27 0.28 0.29 0.35 0.43 0.49 0.54 0.56 0.52 0.47 0.43 0.40 0.35 0.31 0.29 0.26 0.23 0.22 0.20 0.19 0.17 0.15 0.13 0.12 0.12 0.13 0.15 0.17 0.21 0.24 0.23 0.22 0.21 0.25 0.37 0.39 0.37 0.34 0.34 0.38 0.36
0.08 0.12 0.17 0.20 0.21 0.22 0.25 0.27 0.26 0.24 0.20 0.17 0.15 0.14 0.13 0.13 0.13 0.13 0.12 0.11 0.12 0.11 0.11 0.10 0.10 0.10 0.10 0.12 0.16 0.19 0.22 0.26 0.25 0.23 0.25 0.29 0.31 0.30 0.30 0.33 0.37 0.36 0.32
0.06 0.05 0.06 0.07 0.07 0.06 0.06 0.06 0.06 0.06 0.06 0.06 0.07 0.07 0.07 0.08 0.08 0.08 0.07 0.07 0.08 0.08 0.09 0.10 0.11 0.11 0.12 0.13 0.16 0.20 0.23 0.26 0.27 0.26 0.26 0.26 0.25 0.26 0.27 0.29 0.32 0.33 0.33
0.06 0.06 0.07 0.07 0.07 0.07 0.06 0.06 0.06 0.06 0.06 0.07 0.07 0.08 0.09 0.10 0.11 0.11 0.11 0.12 0.12 0.14 0.15 0.14 0.15 0.17 0.16 0.16 0.23 0.28 0.28 0.30 0.33 0.34 0.30 0.27 0.26 0.25 0.25 0.26 0.28 0.30 0.33
0.05 0.06 0.07 0.09 0.09 0.08 0.08 0.08 0.08 0.08 0.08 0.09 0.09 0.10 0.11 0.12 0.12 0.13 0.13 0.15 0.16 0.17 0.18 0.18 0.18 0.17 0.19 0.22 0.27 0.29 0.31 0.35 0.40 0.42 0.33 0.27 0.25 0.26 0.25 0.26 0.29 0.31 0.35

GEFSMW_prec_meanprecacc_144.txt.gz
Total_Precipitation_Accumulation
0.62 0.80 0.98 1.20 1.43 1.65 1.74 1.75 1.71 1.71 1.74 1.72 1.59 1.40 1.21 1.14 1.04 0.96 0.92 0.90 0.91 0.96 0.90 0.76 0.75 0.78 0.71 0.64 0.62 0.62 0.57 0.50 0.49 0.45 0.32 0.24 0.20 0.17 0.13 0.12 0.12 0.12 0.13
0.54 0.63 0.83 1.01 1.28 1.53 1.77 1.85 1.84 1.85 1.72 1.59 1.64 1.61 1.54 1.40 1.29 1.23 1.14 1.01 0.97 0.99 1.00 0.98 0.96 0.95 0.93 0.91 0.86 0.83 0.76 0.68 0.68 0.62 0.56 0.38 0.26 0.18 0.15 0.16 0.16 0.15 0.15
0.50 0.55 0.66 0.76 1.02 1.31 1.62 1.80 1.91 1.94 1.93 1.87 1.99 1.94 1.82 1.58 1.32 1.15 1.15 1.14 1.11 1.10 1.07 1.08 1.11 1.12 1.09 1.02 1.01 1.01 0.95 0.87 0.83 0.79 0.81 0.59 0.36 0.25 0.20 0.20 0.20 0.20 0.20
0.51 0.57 0.63 0.70 0.86 1.10 1.34 1.54 1.81 2.00 2.07 2.13 2.08 1.96 1.75 1.51 1.27 1.24 1.34 1.37 1.31 1.23 1.19 1.18 1.18 1.19 1.14 1.07 1.12 1.16 1.08 1.06 0.98 0.95 0.87 0.74 0.56 0.48 0.35 0.25 0.26 0.27 0.26
0.52 0.57 0.63 0.69 0.81 1.01 1.20 1.33 1.55 1.86 1.96 1.91 1.89 1.96 1.83 1.61 1.49 1.46 1.43 1.41 1.34 1.27 1.21 1.19 1.21 1.18 1.16 1.10 1.12 1.17 1.19 1.18 1.13 1.05 1.01 1.00 0.86 0.71 0.63 0.47 0.36 0.36 0.35
0.60 0.63 0.68 0.72 0.75 0.85 1.05 1.23 1.32 1.53 1.68 1.67 1.72 1.79 1.71 1.64 1.54 1.41 1.36 1.36 1.32 1.24 1.18 1.16 1.18 1.20 1.19 1.15 1.14 1.20 1.25 1.26 1.19 1.09 1.00 0.98 0.92 0.80 0.79 0.70 0.52 0.45 0.38
0.75 0.78 0.75 0.79 0.80 0.82 0.88 1.03 1.14 1.25 1.41 1.55 1.64 1.63 1.65 1.62 1.55 1.45 1.38 1.35 1.31 1.23 1.16 1.14 1.15 1.18 1.20 1.24 1.30 1.30 1.26 1.29 1.27 1.22 1.14 1.07 0.98 0.93 0.94 0.92 0.74 0.60 0.48
0.89 0.90 0.89 0.98 1.01 0.98 0.92 0.94 0.99 1.02 1.14 1.33 1.47 1.51 1.55 1.52 1.42 1.33 1.26 1.22 1.16 1.14 1.16 1.21 1.24 1.26 1.27 1.26 1.27 1.25 1.21 1.21 1.20 1.18 1.17 1.12 1.04 1.05 1.07 1.08 1.11 1.00 0.79
0.94 0.99 1.03 1.04 1.00 0.96 0.94 0.94 0.98 0.95 0.92 1.01 1.14 1.23 1.30 1.30 1.24 1.16 1.09 1.08 1.07 1.07 1.11 1.16 1.21 1.22 1.21 1.19 1.19 1.16 1.13 1.16 1.16 1.13 1.12 1.09 1.02 1.02 1.03 1.06 1.15 1.25 1.12
0.81 0.90 0.91 0.88 0.90 0.92 0.90 0.93 0.97 1.00 0.94 0.91 0.97 1.06 1.06 1.04 1.00 0.99 0.94 0.88 0.89 0.90 0.93 1.00 1.07 1.08 1.07 1.06 1.07 1.05 1.03 1.07 1.05 1.04 1.06 1.04 0.97 0.96 0.99 1.03 1.07 1.17 1.24
0.63 0.66 0.67 0.70 0.74 0.79 0.85 0.93 1.03 1.03 0.91 0.93 0.97 0.97 0.99 1.00 0.92 0.86 0.85 0.86 0.83 0.82 0.86 0.89 0.93 0.95 0.96 0.96 0.96 0.93 0.91 0.93 0.93 0.94 0.96 0.96 0.96 0.98 0.99 1.01 1.05 1.10 1.18
0.55 0.54 0.53 0.52 0.52 0.57 0.62 0.71 0.80 0.81 0.79 0.82 0.90 0.87 0.89 0.97 0.94 0.86 0.82 0.81 0.77 0.71 0.71 0.74 0.77 0.78 0.79 0.80 0.82 0.82 0.81 0.80 0.80 0.80 0.85 0.86 0.89 0.92 0.95 1.00 1.04 1.07 1.09
0.42 0.39 0.39 0.41 0.41 0.41 0.46 0.55 0.63 0.63 0.65 0.68 0.73 0.73 0.74 0.80 0.82 0.85 0.84 0.80 0.78 0.72 0.64 0.62 0.63 0.64 0.66 0.67 0.68 0.70 0.70 0.72 0.72 0.71 0.74 0.77 0.82 0.88 0.88 0.91 0.93 0.94 0.94
0.31 0.27 0.27 0.28 0.29 0.32 0.38 0.42 0.45 0.47 0.49 0.50 0.51 0.54 0.59 0.62 0.62 0.64 0.68 0.68 0.68 0.65 0.61 0.57 0.54 0.54 0.57 0.61 0.63 0.65 0.67 0.67 0.68 0.69 0.71 0.73 0.75 0.77 0.80 0.84 0.85 0.85 0.85
0.19 0.17 0.17 0.18 0.20 0.22 0.26 0.30 0.35 0.39 0.43 0.44 0.43 0.45 0.47 0.49 0.51 0.49 0.48 0.48 0.51 0.53 0.53 0.53 0.53 0.51 0.50 0.53 0.57 0.60 0.64 0.66 0.68 0.69 0.70 0.72 0.78 0.80 0.78 0.76 0.76 0.77 0.81
0.12 0.11 0.10 0.11 0.14 0.15 0.17 0.22 0.27 0.32 0.35 0.38 0.40 0.41 0.41 0.41 0.42 0.42 0.41 0.39 0.40 0.43 0.46 0.51 0.55 0.59 0.60 0.72 0.69 0.63 0.64 0.68 0.68 0.67 0.64 0.64 0.68 0.66 0.67 0.66 0.65 0.70 0.78
0.09 0.09 0.08 0.08 0.08 0.10 0.16 0.21 0.25 0.26 0.28 0.30 0.30 0.30 0.32 0.34 0.35 0.38 0.42 0.46 0.51 0.52 0.56 0.60 0.65 0.69 0.76 0.84 0.75 0.71 0.63 0.65 0.66 0.63 0.58 0.54 0.52 0.53 0.46 0.49 0.53 0.56 0.64
0.05 0.05 0.05 0.05 0.06 0.08 0.13 0.20 0.28 0.30 0.33 0.36 0.34 0.31 0.32 0.38 0.43 0.49 0.56 0.65 0.72 0.76 0.79 0.83 0.84 0.83 0.83 0.81 0.72 0.69 0.61 0.58 0.54 0.49 0.44 0.40 0.37 0.35 0.36 0.39 0.47 0.45 0.43
0.05 0.04 0.05 0.06 0.07 0.09 0.11 0.16 0.25 0.32 0.36 0.41 0.45 0.45 0.47 0.55 0.61 0.70 0.79 0.81 0.87 0.87 0.84 0.81 0.79 0.76 0.71 0.66 0.57 0.49 0.42 0.43 0.42 0.37 0.34 0.34 0.31 0.36 0.43 0.43 0.45 0.35 0.31
0.09 0.06 0.07 0.08 0.11 0.14 0.17 0.23 0.31 0.40 0.46 0.51 0.57 0.59 0.61 0.64 0.66 0.68 0.70 0.70 0.69 0.66 0.60 0.56 0.52 0.49 0.45 0.43 0.39 0.35 0.31 0.30 0.28 0.28 0.29 0.33 0.33 0.39 0.46 0.43 0.38 0.32 0.28
0.19 0.17 0.17 0.19 0.22 0.26 0.32 0.40 0.46 0.55 0.61 0.61 0.64 0.65 0.63 0.62 0.58 0.51 0.45 0.43 0.40 0.36 0.31 0.28 0.26 0.24 0.22 0.22 0.23 0.25 0.24 0.25 0.25 0.24 0.25 0.27 0.37 0.43 0.46 0.40 0.32 0.33 0.36
0.20 0.24 0.27 0.28 0.29 0.35 0.43 0.50 0.55 0.57 0.53 0.47 0.43 0.41 0.35 0.32 0.30 0.26 0.24 0.23 0.22 0.21 0.19 0.16 0.14 0.13 0.12 0.13 0.15 0.18 0.21 0.24 0.23 0.22 0.22 0.25 0.37 0.39 0.37 0.35 0.34 0.38 0.37
0.08 0.12 0.17 0.20 0.21 0.22 0.25 0.28 0.26 0.24 0.21 0.17 0.15 0.15 0.14 0.14 0.14 0.14 0.13 0.13 0.14 0.14 0.13 0.13 0.12 0.11 0.11 0.13 0.16 0.19 0.22 0.26 0.26 0.23 0.25 0.29 0.31 0.30 0.30 0.33 0.37 0.36 0.32
0.06 0.05 0.06 0.07 0.07 0.06 0.06 0.06 0.06 0.06 0.06 0.06 0.07 0.07 0.08 0.09 0.09 0.09 0.09 0.10 0.11 0.12 0.13 0.14 0.13 0.13 0.13 0.14 0.16 0.21 0.23 0.26 0.27 0.26 0.26 0.26 0.25 0.26 0.27 0.30 0.32 0.33 0.34
0.06 0.06 0.07 0.07 0.07 0.07 0.06 0.06 0.06 0.06 0.06 0.07 0.07 0.09 0.10 0.11 0.12 0.12 0.12 0.14 0.14 0.16 0.18 0.17 0.18 0.19 0.18 0.17 0.24 0.29 0.29 0.31 0.33 0.34 0.30 0.27 0.26 0.25 0.25 0.26 0.28 0.30 0.33
0.05 0.06 0.07 0.09 0.09 0.08 0.08 0.08 0.08 0.08 0.08 0.09 0.09 0.10 0.11 0.12 0.13 0.14 0.14 0.16 0.17 0.18 0.20 0.19 0.19 0.19 0.20 0.24 0.29 0.31 0.32 0.35 0.41 0.42 0.33 0.27 0.25 0.26 0.25 0.26 0.29 0.31 0.35

GEFSMW_prec_meanprecacc_150.txt.gz
Total_Precipitation_Accumulation
0.63 0.80 0.98 1.20 1.44 1.65 1.74 1.76 1.72 1.72 1.75 1.74 1.64 1.45 1.25 1.18 1.08 1.01 0.97 0.93 0.96 1.04 0.97 0.80 0.77 0.81 0.74 0.68 0.68 0.68 0.65 0.56 0.53 0.48 0.34 0.24 0.21 0.17 0.14 0.12 0.12 0.12 0.13
0.55 0.63 0.83 1.01 1.28 1.53 1.77 1.85 1.84 1.85 1.72 1.59 1.65 1.64 1.58 1.43 1.32 1.27 1.19 1.06 1.00 1.03 1.05 1.04 0.99 0.97 0.95 0.93 0.89 0.87 0.81 0.73 0.73 0.66 0.59 0.39 0.26 0.18 0.15 0.16 0.16 0.16 0.16
0.50 0.55 0.66 0.76 1.02 1.31 1.62 1.80 1.91 1.94 1.93 1.87 2.00 1.95 1.84 1.61 1.35 1.19 1.19 1.18 1.14 1.13 1.09 1.11 1.14 1.13 1.11 1.03 1.02 1.03 1.00 0.92 0.87 0.83 0.85 0.61 0.37 0.26 0.20 0.20 0.21 0.21 0.20
0.51 0.57 0.63 0.70 0.86 1.10 1.34 1.54 1.81 2.00 2.07 2.13 2.08 1.96 1.75 1.52 1.29 1.26 1.36 1.38 1.33 1.25 1.21 1.20 1.19 1.20 1.15 1.08 1.12 1.16 1.10 1.10 1.04 0.99 0.90 0.77 0.58 0.50 0.36 0.26 0.27 0.28 0.27
0.52 0.57 0.63 0.69 0.81 1.01 1.20 1.33 1.55 1.86 1.96 1.91 1.89 1.96 1.83 1.61 1.50 1.46 1.44 1.41 1.34 1.28 1.22 1.20 1.22 1.19 1.16 1.11 1.13 1.18 1.19 1.19 1.17 1.10 1.05 1.03 0.89 0.73 0.65 0.48 0.36 0.36 0.36
0.60 0.63 0.68 0.72 0.75 0.85 1.05 1.23 1.32 1.53 1.68 1.67 1.72 1.79 1.71 1.64 1.54 1.41 1.36 1.37 1.33 1.24 1.18 1.16 1.18 1.21 1.19 1.15 1.15 1.21 1.25 1.26 1.20 1.12 1.04 1.00 0.94 0.82 0.81 0.71 0.53 0.46 0.39
0.75 0.78 0.75 0.79 0.80 0.82 0.88 1.03 1.14 1.25 1.41 1.55 1.64 1.63 1.65 1.62 1.55 1.45 1.38 1.35 1.31 1.23 1.17 1.15 1.15 1.18 1.21 1.24 1.30 1.30 1.27 1.29 1.27 1.23 1.16 1.10 1.00 0.94 0.95 0.93 0.75 0.61 0.49
0.89 0.90 0.89 0.98 1.01 0.98 0.92 0.94 0.99 1.02 1.14 1.33 1.47 1.51 1.55 1.52 1.42 1.33 1.26 1.22 1.16 1.14 1.17 1.22 1.25 1.26 1.27 1.26 1.27 1.25 1.21 1.22 1.20 1.19 1.17 1.13 1.06 1.06 1.09 1.09 1.12 1.02 0.80
0.94 0.99 1.03 1.04 1.00 0.96 0.94 0.94 0.98 0.95 0.92 1.01 1.14 1.23 1.30 1.30 1.24 1.16 1.09 1.08 1.07 1.07 1.11 1.16 1.21 1.22 1.21 1.19 1.19 1.16 1.13 1.16 1.16 1.13 1.13 1.10 1.02 1.03 1.04 1.07 1.16 1.27 1.13
0.81 0.90 0.91 0.88 0.91 0.92 0.91 0.93 0.97 1.00 0.94 0.91 0.97 1.06 1.06 1.04 1.00 0.99 0.94 0.88 0.89 0.90 0.93 1.00 1.07 1.08 1.08 1.06 1.07 1.06 1.03 1.07 1.05 1.04 1.07 1.05 0.98 0.97 1.00 1.04 1.09 1.19 1.26
0.63 0.66 0.67 0.70 0.74 0.79 0.85 0.93 1.03 1.03 0.91 0.93 0.97 0.97 0.99 1.00 0.92 0.86 0.85 0.86 0.83 0.82 0.86 0.89 0.93 0.95 0.96 0.96 0.96 0.93 0.91 0.93 0.93 0.94 0.96 0.96 0.96 0.99 1.00 1.02 1.06 1.12 1.20
0.55 0.54 0.53 0.52 0.52 0.57 0.62 0.71 0.80 0.81 0.79 0.82 0.90 0.87 0.89 0.97 0.94 0.86 0.82 0.81 0.77 0.71 0.71 0.74 0.77 0.78 0.79 0.80 0.82 0.82 0.81 0.80 0.80 0.81 0.86 0.87 0.89 0.93 0.96 1.01 1.05 1.08 1.11
0.42 0.39 0.39 0.41 0.41 0.41 0.46 0.55 0.63 0.63 0.65 0.68 0.73 0.73 0.74 0.80 0.82 0.85 0.84 0.80 0.78 0.72 0.64 0.62 0.63 0.64 0.66 0.67 0.68 0.70 0.70 0.72 0.72 0.71 0.74 0.77 0.83 0.89 0.89 0.92 0.95 0.95 0.97
0.31 0.27 0.27 0.28 0.29 0.32 0.38 0.42 0.45 0.47 0.49 0.50 0.51 0.54 0.59 0.62 0.62 0.64 0.68 0.68 0.68 0.65 0.61 0.57 0.54 0.54 0.57 0.61 0.63 0.65 0.67 0.67 0.68 0.69 0.71 0.73 0.75 0.78 0.80 0.84 0.86 0.85 0.86
0.19 0.17 0.17 0.18 0.20 0.22 0.26 0.30 0.35 0.39 0.43 0.44 0.43 0.45 0.47 0.49 0.51 0.49 0.48 0.48 0.51 0.53 0.53 0.53 0.53 0.51 0.50 0.53 0.57 0.60 0.64 0.66 0.68 0.69 0.70 0.72 0.79 0.80 0.78 0.77 0.76 0.77 0.82
0.12 0.11 0.10 0.11 0.14 0.15 0.17 0.22 0.27 0.32 0.35 0.38 0.40 0.41 0.41 0.41 0.42 0.42 0.41 0.39 0.40 0.43 0.46 0.51 0.55 0.59 0.60 0.73 0.69 0.63 0.64 0.68 0.69 0.67 0.65 0.64 0.68 0.67 0.67 0.66 0.66 0.71 0.79
0.09 0.09 0.08 0.08 0.08 0.10 0.16 0.21 0.25 0.26 0.28 0.30 0.30 0.30 0.32 0.34 0.35 0.38 0.42 0.46 0.51 0.52 0.56 0.60 0.65 0.69 0.76 0.84 0.76 0.71 0.63 0.65 0.66 0.63 0.58 0.54 0.52 0.54 0.47 0.50 0.54 0.57 0.64
0.05 0.05 0.05 0.05 0.06 0.08 0.13 0.20 0.28 0.30 0.33 0.36 0.34 0.31 0.32 0.38 0.43 0.49 0.56 0.65 0.72 0.76 0.80 0.83 0.84 0.84 0.83 0.81 0.72 0.69 0.61 0.58 0.54 0.49 0.44 0.40 0.37 0.35 0.36 0.39 0.47 0.45 0.44
0.05 0.04 0.05 0.06 0.07 0.09 0.11 0.16 0.25 0.32 0.36 0.41 0.45 0.45 0.47 0.55 0.61 0.70 0.79 0.81 0.87 0.87 0.84 0.82 0.80 0.77 0.71 0.66 0.57 0.49 0.43 0.43 0.42 0.37 0.34 0.34 0.31 0.37 0.43 0.43 0.45 0.35 0.31
0.09 0.06 0.07 0.08 0.11 0.14 0.17 0.23 0.31 0.40 0.46 0.51 0.57 0.59 0.61 0.64 0.66 0.68 0.70 0.70 0.69 0.66 0.60 0.57 0.53 0.50 0.46 0.44 0.39 0.36 0.31 0.30 0.29 0.28 0.29 0.33 0.33 0.40 0.47 0.43 0.38 0.32 0.28
0.19 0.17 0.17 0.19 0.22 0.26 0.32 0.40 0.46 0.55 0.61 0.61 0.64 0.65 0.63 0.62 0.58 0.51 0.45 0.43 0.40 0.36 0.32 0.29 0.27 0.24 0.23 0.23 0.24 0.26 0.25 0.25 0.25 0.25 0.25 0.28 0.38 0.44 0.47 0.40 0.32 0.34 0.37
0.20 0.24 0.27 0.28 0.29 0.35 0.43 0.50 0.55 0.57 0.53 0.47 0.43 0.41 0.35 0.32 0.30 0.26 0.24 0.23 0.22 0.21 0.19 0.17 0.15 0.13 0.13 0.14 0.16 0.18 0.22 0.25 0.24 0.23 0.22 0.26 0.38 0.40 0.38 0.35 0.35 0.39 0.37
0.08 0.12 0.17 0.20 0.21 0.22 0.25 0.28 0.26 0.24 0.21 0.17 0.15 0.15 0.14 0.14 0.15 0.14 0.13 0.14 0.14 0.14 0.14 0.13 0.12 0.12 0.12 0.13 0.17 0.19 0.23 0.27 0.27 0.24 0.26 0.30 0.31 0.30 0.31 0.34 0.38 0.37 0.32
0.06 0.05 0.06 0.07 0.07 0.06 0.06 0.06 0.06 0.06 0.06 0.06 0.07 0.07 0.08 0.09 0.09 0.09 0.09 0.10 0.11 0.12 0.14 0.14 0.14 0.14 0.14 0.14 0.17 0.21 0.24 0.27 0.28 0.28 0.27 0.27 0.26 0.26 0.28 0.30 0.32 0.33 0.34
0.06 0.06 0.07 0.07 0.07 0.07 0.06 0.06 0.06 0.06 0.06 0.07 0.07 0.09 0.10 0.11 0.12 0.12 0.13 0.15 0.16 0.18 0.19 0.19 0.19 0.20 0.20 0.19 0.26 0.31 0.31 0.33 0.34 0.35 0.31 0.28 0.27 0.26 0.25 0.26 0.28 0.30 0.33
0.05 0.06 0.07 0.09 0.09 0.08 0.08 0.08 0.08 0.08 0.08 0.09 0.09 0.10 0.11 0.12 0.13 0.14 0.14 0.17 0.19 0.21 0.22 0.22 0.22 0.21 0.22 0.26 0.31 0.33 0.34 0.37 0.42 0.43 0.34 0.28 0.26 0.26 0.26 0.26 0.29 0.31 0.35

GEFSMW_prec_meanprecacc_156.txt.gz
Total_Precipitation_Accumulation
0.66 0.83 1.01 1.22 1.45 1.67 1.76 1.77 1.72 1.72 1.75 1.76 1.66 1.47 1.27 1.21 1.11 1.07 1.10 1.08 1.05 1.09 1.02 0.87 0.85 0.88 0.79 0.70 0.68 0.69 0.66 0.57 0.54 0.49 0.35 0.25 0.21 0.18 0.14 0.12 0.12 0.12 0.13
0.57 0.66 0.85 1.02 1.29 1.54 1.78 1.86 1.84 1.85 1.73 1.60 1.66 1.66 1.60 1.46 1.35 1.29 1.24 1.18 1.15 1.12 1.10 1.09 1.05 1.05 1.02 0.97 0.91 0.89 0.83 0.75 0.74 0.68 0.60 0.40 0.26 0.19 0.15 0.16 0.16 0.16 0.16
0.52 0.57 0.67 0.77 1.03 1.31 1.62 1.81 1.91 1.94 1.93 1.87 2.00 1.95 1.85 1.63 1.39 1.22 1.22 1.23 1.24 1.25 1.18 1.16 1.18 1.20 1.19 1.11 1.07 1.06 1.03 0.95 0.89 0.85 0.87 0.63 0.38 0.26 0.21 0.20 0.21 0.21 0.20
0.52 0.58 0.63 0.70 0.87 1.10 1.34 1.54 1.81 2.00 2.07 2.13 2.08 1.96 1.76 1.53 1.31 1.28 1.39 1.41 1.38 1.32 1.29 1.26 1.24 1.24 1.20 1.14 1.18 1.21 1.13 1.13 1.07 1.02 0.92 0.79 0.60 0.52 0.37 0.27 0.27 0.28 0.27
0.52 0.57 0.63 0.69 0.81 1.01 1.20 1.33 1.55 1.86 1.96 1.91 1.89 1.96 1.83 1.62 1.51 1.48 1.46 1.44 1.37 1.31 1.26 1.25 1.27 1.24 1.20 1.15 1.17 1.22 1.23 1.22 1.19 1.13 1.07 1.06 0.92 0.76 0.68 0.49 0.38 0.37 0.36
0.61 0.63 0.68 0.72 0.75 0.85 1.05 1.23 1.32 1.53 1.68 1.67 1.72 1.79 1.71 1.64 1.54 1.41 1.37 1.39 1.35 1.26 1.20 1.19 1.21 1.24 1.23 1.18 1.17 1.24 1.29 1.29 1.22 1.15 1.06 1.02 0.96 0.85 0.84 0.74 0.54 0.47 0.39
0.76 0.78 0.75 0.79 0.80 0.82 0.88 1.03 1.14 1.25 1.41 1.55 1.64 1.63 1.65 1.62 1.55 1.45 1.38 1.36 1.32 1.24 1.18 1.16 1.17 1.20 1.23 1.27 1.32 1.32 1.29 1.32 1.30 1.25 1.19 1.12 1.02 0.95 0.97 0.94 0.76 0.62 0.50
0.89 0.90 0.89 0.98 1.01 0.98 0.92 0.94 0.99 1.02 1.14 1.33 1.47 1.51 1.55 1.52 1.42 1.33 1.26 1.22 1.16 1.15 1.17 1.22 1.26 1.27 1.27 1.27 1.29 1.26 1.22 1.23 1.22 1.21 1.20 1.16 1.08 1.08 1.10 1.10 1.13 1.02 0.81
0.94 0.99 1.03 1.04 1.00 0.96 0.94 0.94 0.98 0.95 0.92 1.01 1.14 1.23 1.30 1.30 1.24 1.16 1.09 1.08 1.07 1.07 1.11 1.17 1.22 1.23 1.21 1.19 1.19 1.17 1.14 1.16 1.17 1.15 1.14 1.11 1.04 1.05 1.06 1.08 1.17 1.28 1.14
0.81 0.90 0.91 0.88 0.91 0.92 0.91 0.93 0.97 1.00 0.94 0.91 0.97 1.06 1.06 1.04 1.00 0.99 0.94 0.88 0.89 0.90 0.93 1.00 1.07 1.09 1.08 1.06 1.07 1.06 1.03 1.07 1.06 1.06 1.08 1.06 0.99 0.98 1.01 1.05 1.10 1.20 1.27
0.63 0.66 0.67 0.70 0.74 0.79 0.85 0.93 1.03 1.03 0.91 0.93 0.97 0.97 0.99 1.00 0.92 0.86 0.85 0.86 0.83 0.82 0.86 0.89 0.93 0.95 0.96 0.97 0.96 0.94 0.92 0.93 0.93 0.94 0.97 0.98 0.97 1.00 1.01 1.03 1.07 1.13 1.22
0.55 0.54 0.53 0.52 0.52 0.57 0.62 0.71 0.80 0.81 0.79 0.82 0.90 0.87 0.89 0.97 0.94 0.86 0.82 0.81 0.77 0.71 0.71 0.74 0.77 0.78 0.79 0.80 0.82 0.82 0.81 0.80 0.80 0.81 0.86 0.87 0.90 0.93 0.96 1.02 1.06 1.09 1.13
0.42 0.39 0.39 0.41 0.41 0.41 0.46 0.55 0.63 0.63 0.65 0.68 0.73 0.73 0.74 0.80 0.82 0.85 0.84 0.80 0.78 0.72 0.64 0.62 0.63 0.64 0.66 0.67 0.68 0.70 0.70 0.72 0.72 0.71 0.74 0.77 0.83 0.89 0.89 0.92 0.95 0.96 0.98
0.31 0.27 0.27 0.28 0.29 0.32 0.38 0.42 0.45 0.47 0.49 0.50 0.51 0.54 0.59 0.62 0.62 0.64 0.68 0.68 0.68 0.65 0.61 0.57 0.54 0.54 0.57 0.61 0.63 0.65 0.67 0.67 0.68 0.69 0.71 0.73 0.75 0.78 0.80 0.84 0.86 0.86 0.86
0.19 0.17 0.17 0.18 0.20 0.22 0.26 0.30 0.35 0.39 0.43 0.44 0.43 0.45 0.47 0.49 0.51 0.49 0.48 0.48 0.51 0.53 0.53 0.53 0.53 0.51 0.50 0.53 0.57 0.60 0.64 0.66 0.68 0.69 0.70 0.72 0.79 0.80 0.78 0.77 0.77 0.78 0.82
0.12 0.11 0.10 0.11 0.14 0.15 0.17 0.22 0.27 0.32 0.35 0.38 0.40 0.41 0.41 0.41 0.42 0.42 0.41 0.39 0.40 0.43 0.46 0.51 0.55 0.59 0.60 0.73 0.69 0.63 0.64 0.68 0.69 0.67 0.65 0.64 0.68 0.67 0.68 0.67 0.66 0.71 0.79
0.09 0.09 0.08 0.08 0.08 0.10 0.16 0.21 0.25 0.26 0.28 0.30 0.30 0.30 0.32 0.34 0.35 0.38 0.42 0.46 0.51 0.52 0.56 0.60 0.65 0.69 0.76 0.84 0.76 0.71 0.63 0.65 0.66 0.63 0.58 0.54 0.52 0.54 0.47 0.50 0.54 0.57 0.64
0.05 0.05 0.05 0.05 0.06 0.08 0.13 0.20 0.28 0.30 0.33 0.36 0.34 0.31 0.32 0.38 0.43 0.49 0.56 0.65 0.72 0.76 0.80 0.83 0.84 0.84 0.83 0.81 0.72 0.69 0.61 0.58 0.54 0.49 0.44 0.40 0.37 0.35 0.37 0.39 0.47 0.45 0.44
0.05 0.04 0.05 0.06 0.07 0.09 0.11 0.16 0.25 0.32 0.36 0.41 0.45 0.45 0.47 0.55 0.61 0.70 0.79 0.81 0.87 0.87 0.84 0.82 0.80 0.77 0.71 0.66 0.57 0.49 0.43 0.43 0.42 0.37 0.34 0.34 0.31 0.37 0.43 0.43 0.45 0.35 0.31
0.09 0.06 0.07 0.08 0.11 0.14 0.17 0.23 0.31 0.40 0.46 0.51 0.57 0.59 0.61 0.64 0.66 0.68 0.70 0.70 0.69 0.67 0.61 0.57 0.53 0.50 0.46 0.44 0.39 0.36 0.32 0.30 0.29 0.29 0.29 0.34 0.34 0.40 0.47 0.43 0.38 0.32 0.28
0.19 0.17 0.17 0.19 0.22 0.26 0.32 0.40 0.46 0.55 0.61 0.61 0.64 0.65 0.63 0.62 0.58 0.51 0.45 0.43 0.40 0.36 0.32 0.29 0.27 0.24 0.23 0.24 0.24 0.26 0.25 0.26 0.26 0.25 0.26 0.29 0.39 0.45 0.48 0.41 0.33 0.34 0.37
0.20 0.24 0.28 0.28 0.29 0.35 0.43 0.50 0.55 0.57 0.53 0.47 0.43 0.41 0.35 0.32 0.30 0.26 0.24 0.23 0.22 0.22 0.20 0.17 0.16 0.14 0.13 0.14 0.16 0.19 0.23 0.25 0.24 0.23 0.23 0.27 0.38 0.41 0.39 0.36 0.35 0.39 0.38
0.08 0.12 0.17 0.20 0.21 0.22 0.25 0.28 0.26 0.24 0.21 0.17 0.15 0.15 0.14 0.14 0.15 0.14 0.14 0.14 0.14 0.15 0.14 0.14 0.13 0.12 0.12 0.14 0.18 0.20 0.23 0.28 0.28 0.25 0.27 0.30 0.32 0.31 0.31 0.34 0.38 0.37 0.33
0.06 0.05 0.06 0.07 0.07 0.06 0.06 0.06 0.06 0.06 0.06 0.06 0.07 0.07 0.08 0.09 0.09 0.09 0.09 0.10 0.11 0.13 0.14 0.15 0.15 0.15 0.15 0.15 0.18 0.22 0.25 0.28 0.29 0.29 0.28 0.28 0.26 0.27 0.28 0.30 0.32 0.33 0.34
0.06 0.06 0.07 0.07 0.07 0.07 0.06 0.06 0.06 0.06 0.06 0.07 0.08 0.09 0.10 0.11 0.12 0.12 0.13 0.15 0.16 0.18 0.20 0.19 0.20 0.21 0.21 0.20 0.27 0.32 0.31 0.33 0.35 0.37 0.32 0.29 0.27 0.27 0.26 0.27 0.28 0.30 0.34
0.05 0.06 0.07 0.09 0.09 0.08 0.08 0.08 0.08 0.08 0.08 0.09 0.09 0.10 0.11 0.12 0.13 0.14 0.15 0.17 0.19 0.21 0.22 0.22 0.22 0.21 0.23 0.27 0.33 0.35 0.36 0.39 0.44 0.45 0.36 0.29 0.27 0.27 0.27 0.28 0.30 0.32 0.35

GEFSMW_prec_meanprecacc_162.txt.gz
Total_Precipitation_Accumulation
0.71 0.89 1.07 1.32 1.54 1.76 1.85 1.87 1.85 1.84 1.85 1.85 1.75 1.55 1.34 1.27 1.17 1.13 1.17 1.16 1.16 1.20 1.09 0.91 0.88 0.91 0.82 0.73 0.71 0.71 0.67 0.58 0.55 0.50 0.35 0.25 0.21 0.18 0.14 0.13 0.12 0.12 0.13
0.61 0.69 0.88 1.07 1.34 1.59 1.84 1.91 1.91 1.95 1.81 1.65 1.71 1.70 1.63 1.49 1.37 1.31 1.27 1.23 1.22 1.23 1.22 1.16 1.09 1.08 1.05 1.00 0.93 0.91 0.85 0.77 0.76 0.68 0.60 0.40 0.26 0.19 0.16 0.16 0.16 0.16 0.17
0.54 0.59 0.69 0.79 1.06 1.34 1.65 1.83 1.93 1.97 1.97 1.91 2.02 1.96 1.86 1.64 1.39 1.23 1.23 1.25 1.28 1.30 1.26 1.26 1.25 1.24 1.21 1.14 1.10 1.08 1.05 0.97 0.92 0.87 0.88 0.64 0.38 0.26 0.21 0.20 0.21 0.21 0.20
0.53 0.59 0.64 0.71 0.89 1.12 1.35 1.54 1.82 2.01 2.08 2.14 2.09 1.97 1.76 1.53 1.31 1.28 1.39 1.42 1.39 1.35 1.33 1.31 1.31 1.31 1.24 1.17 1.23 1.26 1.16 1.15 1.09 1.04 0.95 0.80 0.61 0.52 0.37 0.27 0.27 0.28 0.27
0.53 0.58 0.64 0.70 0.82 1.01 1.20 1.33 1.55 1.86 1.96 1.91 1.89 1.96 1.83 1.62 1.51 1.48 1.46 1.44 1.37 1.32 1.28 1.28 1.30 1.29 1.27 1.19 1.21 1.27 1.29 1.26 1.21 1.15 1.10 1.08 0.93 0.77 0.69 0.51 0.38 0.37 0.36
0.61 0.63 0.68 0.72 0.75 0.85 1.05 1.23 1.32 1.53 1.69 1.67 1.72 1.79 1.71 1.64 1.54 1.41 1.37 1.39 1.35 1.26 1.21 1.21 1.23 1.27 1.28 1.24 1.22 1.28 1.34 1.36 1.28 1.18 1.08 1.05 0.99 0.88 0.85 0.75 0.56 0.49 0.41
0.76 0.78 0.75 0.79 0.80 0.82 0.88 1.03 1.14 1.25 1.41 1.55 1.64 1.63 1.65 1.62 1.55 1.45 1.38 1.36 1.32 1.25 1.18 1.17 1.19 1.23 1.26 1.31 1.37 1.37 1.34 1.38 1.37 1.31 1.23 1.16 1.05 0.98 0.99 0.96 0.78 0.64 0.51
0.89 0.90 0.89 0.98 1.01 0.98 0.92 0.94 0.99 1.02 1.14 1.33 1.47 1.51 1.55 1.52 1.42 1.33 1.26 1.22 1.16 1.15 1.17 1.22 1.26 1.28 1.30 1.30 1.33 1.31 1.28 1.30 1.30 1.28 1.26 1.21 1.13 1.12 1.13 1.12 1.15 1.04 0.82
0.94 0.99 1.03 1.04 1.00 0.96 0.94 0.94 0.98 0.95 0.92 1.01 1.14 1.23 1.30 1.30 1.24 1.16 1.09 1.08 1.07 1.07 1.11 1.17 1.22 1.23 1.22 1.21 1.21 1.20 1.18 1.21 1.24 1.23 1.22 1.18 1.09 1.10 1.10 1.12 1.20 1.30 1.15
0.81 0.90 0.91 0.88 0.91 0.92 0.91 0.93 0.97 1.00 0.94 0.91 0.97 1.06 1.06 1.04 1.00 0.99 0.94 0.88 0.89 0.90 0.93 1.00 1.07 1.09 1.08 1.06 1.08 1.07 1.05 1.09 1.09 1.10 1.15 1.13 1.06 1.04 1.06 1.09 1.13 1.23 1.29
0.63 0.66 0.67 0.70 0.74 0.79 0.85 0.93 1.03 1.03 0.91 0.93 0.97 0.97 0.99 1.00 0.92 0.86 0.85 0.86 0.83 0.82 0.86 0.89 0.93 0.95 0.96 0.97 0.97 0.94 0.93 0.94 0.94 0.96 0.99 1.01 1.01 1.04 1.04 1.06 1.11 1.16 1.24
0.55 0.54 0.53 0.52 0.52 0.57 0.62 0.71 0.80 0.81 0.79 0.82 0.90 0.87 0.89 0.97 0.94 0.86 0.82 0.81 0.77 0.71 0.71 0.74 0.77 0.78 0.79 0.80 0.83 0.83 0.82 0.81 0.80 0.81 0.86 0.88 0.91 0.95 0.98 1.04 1.09 1.12 1.15
0.42 0.39 0.39 0.41 0.41 0.41 0.46 0.55 0.63 0.63 0.65 0.68 0.73 0.74 0.74 0.80 0.82 0.85 0.84 0.80 0.78 0.72 0.64 0.62 0.63 0.64 0.66 0.67 0.69 0.70 0.71 0.72 0.72 0.72 0.75 0.77 0.83 0.89 0.90 0.93 0.97 0.98 0.99
0.31 0.27 0.27 0.28 0.29 0.32 0.38 0.42 0.45 0.47 0.49 0.50 0.51 0.54 0.59 0.62 0.62 0.64 0.68 0.68 0.68 0.65 0.61 0.57 0.54 0.54 0.57 0.61 0.63 0.65 0.67 0.67 0.68 0.69 0.71 0.73 0.76 0.78 0.80 0.85 0.87 0.87 0.88
0.19 0.17 0.17 0.18 0.20 0.22 0.26 0.30 0.35 0.39 0.43 0.44 0.43 0.45 0.47 0.49 0.51 0.49 0.48 0.48 0.51 0.53 0.53 0.53 0.53 0.51 0.50 0.53 0.57 0.60 0.64 0.66 0.69 0.69 0.70 0.73 0.79 0.80 0.78 0.77 0.77 0.78 0.83
0.12 0.11 0.10 0.11 0.14 0.15 0.17 0.22 0.27 0.32 0.35 0.38 0.40 0.41 0.41 0.41 0.42 0.42 0.41 0.39 0.40 0.43 0.46 0.51 0.55 0.59 0.60 0.73 0.69 0.63 0.64 0.68 0.69 0.67 0.65 0.64 0.68 0.67 0.68 0.67 0.67 0.71 0.80
0.09 0.09 0.08 0.08 0.08 0.10 0.16 0.21 0.25 0.26 0.28 0.30 0.30 0.30 0.32 0.34 0.35 0.38 0.42 0.46 0.51 0.52 0.56 0.60 0.65 0.69 0.76 0.84 0.76 0.71 0.63 0.65 0.66 0.63 0.59 0.54 0.52 0.54 0.47 0.50 0.54 0.57 0.65
0.05 0.05 0.05 0.05 0.06 0.08 0.13 0.20 0.28 0.30 0.33 0.36 0.34 0.31 0.32 0.38 0.43 0.49 0.56 0.65 0.72 0.76 0.80 0.83 0.84 0.84 0.83 0.81 0.72 0.69 0.61 0.58 0.54 0.49 0.44 0.40 0.37 0.35 0.37 0.39 0.47 0.45 0.44
0.05 0.04 0.05 0.06 0.07 0.09 0.11 0.16 0.25 0.32 0.36 0.41 0.45 0.45 0.47 0.55 0.61 0.70 0.79 0.81 0.87 0.87 0.84 0.82 0.80 0.77 0.72 0.67 0.57 0.49 0.43 0.43 0.42 0.37 0.34 0.34 0.31 0.37 0.43 0.43 0.45 0.36 0.31
0.09 0.06 0.07 0.08 0.11 0.14 0.17 0.23 0.31 0.40 0.46 0.51 0.57 0.59 0.61 0.64 0.66 0.68 0.70 0.70 0.69 0.67 0.61 0.57 0.53 0.50 0.47 0.45 0.40 0.37 0.32 0.30 0.29 0.29 0.29 0.34 0.34 0.40 0.47 0.43 0.39 0.32 0.28
0.19 0.17 0.17 0.19 0.22 0.26 0.32 0.40 0.46 0.55 0.61 0.61 0.64 0.65 0.63 0.62 0.58 0.51 0.45 0.43 0.40 0.36 0.32 0.29 0.27 0.25 0.24 0.25 0.25 0.26 0.25 0.26 0.26 0.25 0.26 0.29 0.39 0.45 0.48 0.41 0.33 0.34 0.38
0.20 0.24 0.28 0.28 0.29 0.35 0.43 0.50 0.55 0.57 0.53 0.47 0.43 0.41 0.35 0.32 0.30 0.26 0.24 0.23 0.23 0.22 0.20 0.17 0.16 0.14 0.13 0.15 0.17 0.19 0.23 0.26 0.24 0.23 0.23 0.27 0.39 0.41 0.39 0.37 0.36 0.40 0.38
0.09 0.12 0.18 0.20 0.21 0.22 0.25 0.28 0.26 0.24 0.21 0.17 0.15 0.15 0.14 0.14 0.15 0.14 0.14 0.14 0.15 0.15 0.14 0.14 0.13 0.12 0.12 0.14 0.18 0.21 0.24 0.29 0.28 0.25 0.27 0.31 0.33 0.31 0.32 0.35 0.39 0.38 0.34
0.06 0.06 0.06 0.07 0.07 0.06 0.07 0.07 0.06 0.06 0.06 0.06 0.07 0.07 0.08 0.09 0.09 0.09 0.09 0.10 0.12 0.13 0.14 0.15 0.15 0.15 0.15 0.15 0.18 0.23 0.26 0.29 0.31 0.30 0.29 0.28 0.27 0.28 0.29 0.31 0.33 0.34 0.35
0.06 0.06 0.07 0.07 0.07 0.07 0.06 0.06 0.06 0.06 0.06 0.07 0.08 0.09 0.10 0.11 0.12 0.12 0.13 0.15 0.16 0.18 0.20 0.19 0.20 0.21 0.21 0.20 0.28 0.32 0.32 0.35 0.37 0.38 0.34 0.30 0.29 0.28 0.27 0.28 0.29 0.31 0.34
0.05 0.06 0.07 0.09 0.09 0.08 0.08 0.08 0.08 0.08 0.08 0.09 0.09 0.10 0.11 0.12 0.13 0.14 0.15 0.17 0.19 0.21 0.23 0.22 0.22 0.21 0.23 0.27 0.33 0.35 0.37 0.40 0.46 0.48 0.38 0.31 0.28 0.29 0.28 0.29 0.31 0.34 0.37

GEFSMW_prec_meanprecacc_168.txt.gz
Total_Precipitation_Accumulation
0.79 0.97 1.18 1.42 1.67 1.92 2.00 1.99 1.94 1.91 1.92 1.94 1.86 1.70 1.50 1.41 1.29 1.24 1.25 1.21 1.19 1.25 1.14 0.96 0.93 0.97 0.89 0.79 0.77 0.76 0.72 0.62 0.59 0.52 0.36 0.25 0.21 0.18 0.14 0.14 0.13 0.13 0.14
0.66 0.75 0.96 1.15 1.42 1.70 1.96 2.02 1.99 2.02 1.87 1.72 1.77 1.78 1.74 1.60 1.49 1.43 1.39 1.32 1.28 1.28 1.26 1.21 1.14 1.13 1.10 1.05 0.99 0.96 0.90 0.82 0.80 0.72 0.63 0.41 0.27 0.19 0.16 0.17 0.17 0.17 0.17
0.60 0.65 0.75 0.86 1.12 1.40 1.71 1.88 1.99 2.03 2.03 1.97 2.08 2.02 1.91 1.70 1.46 1.29 1.29 1.31 1.33 1.34 1.29 1.29 1.31 1.30 1.26 1.18 1.13 1.11 1.08 1.01 0.96 0.92 0.93 0.67 0.40 0.27 0.21 0.20 0.21 0.21 0.21
0.57 0.63 0.68 0.75 0.92 1.16 1.39 1.58 1.85 2.04 2.12 2.18 2.13 2.01 1.78 1.55 1.33 1.30 1.41 1.43 1.40 1.36 1.34 1.33 1.34 1.37 1.33 1.23 1.26 1.28 1.18 1.17 1.11 1.06 0.98 0.84 0.65 0.56 0.39 0.27 0.28 0.29 0.27
0.55 0.60 0.67 0.73 0.84 1.03 1.21 1.34 1.57 1.88 1.98 1.92 1.90 1.98 1.84 1.63 1.52 1.49 1.46 1.44 1.37 1.32 1.29 1.29 1.32 1.31 1.32 1.28 1.29 1.33 1.32 1.27 1.22 1.16 1.11 1.10 0.97 0.81 0.73 0.54 0.40 0.38 0.37
0.62 0.65 0.70 0.74 0.77 0.86 1.05 1.23 1.32 1.53 1.69 1.68 1.72 1.79 1.71 1.65 1.55 1.42 1.37 1.39 1.35 1.26 1.21 1.21 1.24 1.28 1.30 1.26 1.27 1.34 1.40 1.40 1.30 1.19 1.09 1.05 1.00 0.90 0.88 0.78 0.59 0.51 0.42
0.77 0.79 0.76 0.80 0.81 0.83 0.88 1.03 1.14 1.25 1.41 1.56 1.64 1.63 1.65 1.62 1.55 1.45 1.38 1.36 1.32 1.25 1.18 1.17 1.19 1.23 1.27 1.32 1.39 1.39 1.38 1.42 1.40 1.34 1.25 1.16 1.05 0.98 1.00 0.98 0.80 0.66 0.53
0.89 0.91 0.90 0.98 1.01 0.98 0.92 0.94 0.99 1.02 1.14 1.33 1.47 1.51 1.55 1.52 1.42 1.33 1.26 1.22 1.16 1.15 1.17 1.22 1.27 1.29 1.30 1.31 1.34 1.32 1.29 1.32 1.32 1.32 1.28 1.23 1.14 1.13 1.14 1.14 1.17 1.06 0.83
0.95 0.99 1.03 1.04 1.00 0.96 0.94 0.94 0.98 0.95 0.92 1.01 1.14 1.23 1.30 1.30 1.24 1.16 1.09 1.08 1.07 1.07 1.11 1.17 1.22 1.23 1.22 1.21 1.23 1.21 1.18 1.22 1.25 1.25 1.25 1.21 1.12 1.12 1.12 1.14 1.22 1.32 1.17
0.81 0.90 0.91 0.88 0.91 0.92 0.91 0.93 0.97 1.00 0.94 0.91 0.97 1.06 1.06 1.04 1.00 0.99 0.94 0.88 0.89 0.90 0.93 1.00 1.07 1.09 1.08 1.07 1.09 1.09 1.06 1.10 1.10 1.11 1.16 1.16 1.10 1.08 1.10 1.13 1.17 1.26 1.31
0.63 0.66 0.67 0.70 0.74 0.79 0.85 0.93 1.03 1.03 0.91 0.93 0.97 0.97 0.99 1.00 0.92 0.86 0.85 0.86 0.83 0.82 0.86 0.89 0.93 0.95 0.96 0.97 0.97 0.95 0.94 0.95 0.95 0.97 0.99 1.02 1.04 1.08 1.09 1.11 1.15 1.21 1.27
0.55 0.54 0.53 0.52 0.52 0.57 0.62 0.71 0.80 0.81 0.79 0.82 0.90 0.87 0.89 0.97 0.94 0.86 0.82 0.81 0.77 0.71 0.71 0.74 0.77 0.78 0.79 0.80 0.83 0.83 0.83 0.82 0.81 0.82 0.87 0.89 0.92 0.96 1.00 1.07 1.12 1.15 1.18
0.42 0.39 0.39 0.41 0.41 0.41 0.46 0.55 0.63 0.63 0.65 0.68 0.73 0.74 0.74 0.80 0.82 0.85 0.84 0.80 0.78 0.72 0.64 0.62 0.63 0.64 0.66 0.67 0.69 0.71 0.71 0.73 0.73 0.73 0.76 0.78 0.84 0.90 0.91 0.94 0.98 0.99 1.01
0.31 0.27 0.27 0.28 0.29 0.32 0.38 0.42 0.45 0.47 0.49 0.50 0.51 0.54 0.59 0.62 0.62 0.64 0.68 0.68 0.68 0.65 0.61 0.57 0.54 0.54 0.57 0.61 0.63 0.65 0.67 0.68 0.69 0.70 0.72 0.74 0.77 0.79 0.81 0.85 0.87 0.87 0.88
0.19 0.17 0.17 0.18 0.20 0.22 0.26 0.30 0.35 0.39 0.43 0.44 0.43 0.45 0.47 0.49 0.51 0.49 0.48 0.48 0.51 0.53 0.53 0.53 0.53 0.51 0.50 0.53 0.57 0.60 0.64 0.66 0.69 0.70 0.71 0.74 0.81 0.82 0.79 0.78 0.77 0.78 0.83
0.12 0.11 0.10 0.11 0.14 0.15 0.17 0.22 0.27 0.32 0.35 0.38 0.40 0.41 0.41 0.41 0.42 0.42 0.41 0.39 0.40 0.43 0.46 0.51 0.55 0.59 0.60 0.73 0.69 0.63 0.64 0.68 0.69 0.68 0.66 0.65 0.70 0.68 0.69 0.68 0.67 0.72 0.80
0.09 0.09 0.08 0.08 0.08 0.10 0.16 0.21 0.25 0.26 0.28 0.30 0.30 0.30 0.32 0.34 0.35 0.38 0.42 0.46 0.51 0.52 0.56 0.60 0.65 0.69 0.76 0.84 0.76 0.71 0.63 0.65 0.66 0.64 0.59 0.55 0.53 0.55 0.48 0.51 0.55 0.57 0.65
0.05 0.05 0.05 0.05 0.06 0.08 0.13 0.20 0.28 0.30 0.33 0.36 0.34 0.31 0.32 0.38 0.43 0.49 0.56 0.65 0.72 0.76 0.80 0.83 0.84 0.84 0.83 0.81 0.72 0.69 0.61 0.58 0.54 0.49 0.44 0.41 0.38 0.36 0.37 0.40 0.48 0.46 0.44
0.05 0.05 0.05 0.06 0.07 0.09 0.11 0.16 0.25 0.32 0.36 0.41 0.45 0.45 0.48 0.55 0.61 0.70 0.79 0.81 0.87 0.87 0.85 0.82 0.80 0.77 0.72 0.67 0.57 0.50 0.43 0.44 0.42 0.37 0.34 0.34 0.32 0.37 0.44 0.44 0.45 0.36 0.31
0.09 0.07 0.07 0.08 0.11 0.14 0.17 0.23 0.31 0.40 0.46 0.51 0.57 0.59 0.61 0.64 0.66 0.68 0.70 0.70 0.69 0.67 0.61 0.57 0.53 0.50 0.47 0.45 0.40 0.37 0.32 0.31 0.29 0.29 0.29 0.34 0.34 0.41 0.48 0.44 0.39 0.33 0.29
0.20 0.18 0.18 0.19 0.22 0.26 0.32 0.40 0.46 0.55 0.61 0.61 0.64 0.65 0.63 0.62 0.58 0.51 0.45 0.43 0.40 0.36 0.32 0.29 0.28 0.25 0.24 0.25 0.25 0.27 0.25 0.26 0.26 0.25 0.26 0.29 0.39 0.45 0.48 0.42 0.33 0.34 0.38
0.20 0.25 0.28 0.29 0.30 0.36 0.44 0.50 0.55 0.57 0.53 0.47 0.43 0.41 0.35 0.32 0.30 0.26 0.24 0.23 0.23 0.22 0.20 0.17 0.16 0.14 0.14 0.15 0.17 0.20 0.23 0.26 0.25 0.24 0.23 0.27 0.39 0.41 0.39 0.37 0.36 0.40 0.39
0.09 0.13 0.18 0.21 0.22 0.23 0.26 0.28 0.27 0.24 0.21 0.17 0.15 0.15 0.14 0.14 0.15 0.14 0.14 0.14 0.15 0.15 0.14 0.14 0.13 0.13 0.12 0.14 0.18 0.21 0.24 0.29 0.28 0.25 0.28 0.31 0.33 0.32 0.32 0.35 0.40 0.39 0.34
0.06 0.06 0.07 0.07 0.07 0.07 0.07 0.07 0.06 0.06 0.07 0.06 0.07 0.07 0.08 0.09 0.09 0.09 0.09 0.10 0.12 0.13 0.14 0.15 0.15 0.15 0.15 0.15 0.18 0.23 0.26 0.30 0.31 0.30 0.30 0.29 0.28 0.28 0.29 0.31 0.33 0.35 0.35
0.06 0.06 0.07 0.08 0.07 0.07 0.07 0.07 0.06 0.06 0.06 0.07 0.08 0.09 0.10 0.11 0.12 0.12 0.13 0.15 0.16 0.18 0.20 0.20 0.20 0.22 0.21 0.20 0.28 0.33 0.33 0.35 0.37 0.39 0.34 0.31 0.30 0.29 0.28 0.28 0.30 0.32 0.35
0.05 0.06 0.07 0.09 0.09 0.09 0.08 0.08 0.08 0.08 0.08 0.09 0.09 0.10 0.11 0.12 0.13 0.14 0.15 0.17 0.19 0.21 0.23 0.22 0.22 0.22 0.23 0.28 0.34 0.36 0.37 0.40 0.46 0.49 0.38 0.31 0.29 0.29 0.29 0.30 0.32 0.35 0.38

GEFSMW_prec_meanprecacc_174.txt.gz
Total_Precipitation_Accumulation
0.93 1.10 1.33 1.55 1.77 1.99 2.07 2.08 2.04 2.03 2.08 2.17 2.08 1.84 1.61 1.50 1.36 1.28 1.28 1.24 1.22 1.27 1.16 0.98 0.95 0.99 0.91 0.83 0.81 0.81 0.78 0.69 0.63 0.55 0.38 0.26 0.21 0.18 0.15 0.14 0.13 0.13 0.14
0.77 0.88 1.08 1.26 1.52 1.77 2.03 2.09 2.07 2.10 1.96 1.83 1.91 1.92 1.85 1.70 1.57 1.49 1.44 1.36 1.31 1.30 1.29 1.23 1.16 1.15 1.13 1.08 1.01 1.00 0.96 0.89 0.85 0.76 0.66 0.43 0.28 0.19 0.16 0.17 0.17 0.17 0.17
0.67 0.76 0.86 0.94 1.21 1.47 1.75 1.94 2.04 2.09 2.10 2.03 2.13 2.07 1.98 1.78 1.54 1.37 1.37 1.37 1.38 1.39 1.34 1.33 1.34 1.33 1.29 1.21 1.16 1.14 1.13 1.08 1.01 0.95 0.96 0.70 0.42 0.28 0.22 0.21 0.21 0.21 0.21
0.64 0.71 0.77 0.82 0.98 1.22 1.43 1.61 1.89 2.08 2.16 2.22 2.17 2.03 1.81 1.59 1.38 1.36 1.47 1.50 1.47 1.42 1.38 1.37 1.38 1.41 1.37 1.28 1.31 1.32 1.21 1.22 1.17 1.11 1.01 0.85 0.66 0.57 0.41 0.28 0.28 0.29 0.28
0.62 0.67 0.73 0.78 0.89 1.07 1.25 1.37 1.59 1.90 2.00 1.94 1.92 2.00 1.87 1.65 1.54 1.51 1.48 1.46 1.38 1.34 1.31 1.30 1.33 1.32 1.33 1.30 1.32 1.36 1.35 1.30 1.26 1.21 1.16 1.13 0.98 0.82 0.74 0.55 0.41 0.39 0.37
0.66 0.71 0.76 0.79 0.81 0.90 1.08 1.26 1.33 1.54 1.70 1.70 1.73 1.80 1.72 1.66 1.56 1.43 1.38 1.39 1.35 1.26 1.22 1.21 1.24 1.29 1.30 1.27 1.28 1.37 1.43 1.43 1.34 1.23 1.12 1.09 1.03 0.91 0.89 0.79 0.60 0.52 0.43
0.79 0.84 0.82 0.85 0.86 0.87 0.90 1.05 1.16 1.26 1.42 1.56 1.64 1.63 1.65 1.62 1.56 1.45 1.39 1.36 1.33 1.25 1.18 1.17 1.19 1.23 1.27 1.33 1.39 1.41 1.40 1.45 1.44 1.37 1.29 1.20 1.08 1.00 1.01 0.99 0.81 0.67 0.54
0.91 0.95 0.95 1.03 1.05 1.01 0.94 0.96 1.01 1.04 1.14 1.33 1.48 1.51 1.55 1.52 1.42 1.33 1.26 1.22 1.16 1.15 1.17 1.22 1.27 1.29 1.31 1.31 1.34 1.33 1.30 1.34 1.36 1.35 1.31 1.25 1.16 1.15 1.15 1.14 1.18 1.07 0.84
0.96 1.02 1.07 1.08 1.03 0.97 0.95 0.95 0.99 0.96 0.92 1.01 1.14 1.23 1.30 1.30 1.24 1.16 1.09 1.08 1.07 1.07 1.11 1.17 1.22 1.23 1.22 1.21 1.23 1.22 1.19 1.23 1.27 1.28 1.28 1.23 1.13 1.13 1.14 1.15 1.22 1.32 1.17
0.83 0.91 0.93 0.90 0.92 0.93 0.91 0.93 0.97 1.00 0.94 0.92 0.97 1.06 1.06 1.04 1.00 0.99 0.94 0.88 0.89 0.90 0.93 1.00 1.07 1.09 1.08 1.07 1.09 1.10 1.07 1.11 1.10 1.12 1.18 1.19 1.11 1.09 1.11 1.14 1.18 1.26 1.32
0.64 0.67 0.68 0.71 0.75 0.79 0.85 0.93 1.03 1.03 0.91 0.93 0.97 0.97 0.99 1.00 0.92 0.86 0.85 0.86 0.83 0.82 0.86 0.89 0.93 0.95 0.96 0.97 0.97 0.96 0.95 0.97 0.96 0.98 1.01 1.03 1.06 1.09 1.10 1.11 1.16 1.22 1.28
0.55 0.54 0.54 0.53 0.53 0.57 0.63 0.71 0.81 0.81 0.79 0.82 0.90 0.87 0.89 0.97 0.94 0.86 0.82 0.81 0.77 0.71 0.71 0.74 0.77 0.78 0.79 0.80 0.83 0.83 0.83 0.83 0.83 0.84 0.89 0.90 0.93 0.98 1.02 1.08 1.13 1.16 1.19
0.42 0.39 0.40 0.42 0.41 0.41 0.46 0.55 0.63 0.63 0.65 0.69 0.73 0.74 0.74 0.80 0.82 0.85 0.84 0.80 0.78 0.72 0.64 0.62 0.63 0.64 0.66 0.67 0.69 0.71 0.71 0.73 0.74 0.74 0.77 0.80 0.85 0.90 0.91 0.95 0.99 1.00 1.02
0.31 0.28 0.27 0.28 0.29 0.32 0.38 0.42 0.45 0.48 0.49 0.50 0.52 0.54 0.59 0.62 0.62 0.64 0.68 0.68 0.68 0.65 0.61 0.57 0.54 0.54 0.57 0.61 0.63 0.65 0.67 0.68 0.69 0.71 0.73 0.76 0.79 0.80 0.82 0.86 0.87 0.88 0.89
0.19 0.17 0.17 0.18 0.20 0.22 0.26 0.30 0.35 0.40 0.44 0.45 0.44 0.45 0.47 0.49 0.51 0.49 0.48 0.48 0.51 0.53 0.53 0.53 0.53 0.51 0.50 0.53 0.57 0.60 0.64 0.66 0.69 0.70 0.72 0.75 0.82 0.84 0.81 0.79 0.78 0.79 0.84
0.12 0.11 0.10 0.11 0.14 0.15 0.18 0.22 0.27 0.32 0.35 0.39 0.40 0.41 0.41 0.41 0.42 0.42 0.41 0.39 0.40 0.43 0.46 0.51 0.55 0.59 0.60 0.73 0.69 0.63 0.64 0.68 0.69 0.68 0.66 0.66 0.70 0.70 0.70 0.69 0.68 0.73 0.80
0.09 0.09 0.09 0.08 0.09 0.10 0.16 0.22 0.25 0.26 0.28 0.30 0.30 0.31 0.32 0.34 0.35 0.38 0.42 0.46 0.51 0.52 0.56 0.60 0.65 0.69 0.76 0.84 0.76 0.71 0.63 0.65 0.66 0.64 0.59 0.56 0.54 0.56 0.48 0.52 0.56 0.58 0.66
0.06 0.05 0.06 0.06 0.06 0.09 0.13 0.20 0.28 0.30 0.33 0.36 0.34 0.31 0.32 0.38 0.43 0.50 0.56 0.65 0.72 0.76 0.80 0.83 0.85 0.84 0.83 0.81 0.72 0.69 0.61 0.58 0.54 0.49 0.44 0.41 0.38 0.37 0.38 0.41 0.48 0.46 0.45
0.05 0.05 0.05 0.06 0.08 0.10 0.12 0.17 0.26 0.32 0.37 0.42 0.45 0.45 0.48 0.55 0.61 0.70 0.79 0.81 0.87 0.87 0.85 0.82 0.80 0.77 0.72 0.67 0.58 0.50 0.43 0.44 0.42 0.37 0.34 0.34 0.32 0.38 0.45 0.45 0.46 0.37 0.32
0.10 0.07 0.07 0.08 0.11 0.14 0.17 0.23 0.31 0.40 0.47 0.51 0.57 0.59 0.61 0.64 0.66 0.68 0.70 0.70 0.69 0.67 0.61 0.57 0.53 0.50 0.47 0.45 0.40 0.37 0.32 0.31 0.29 0.29 0.29 0.34 0.34 0.41 0.49 0.45 0.41 0.35 0.30
0.20 0.18 0.18 0.19 0.22 0.26 0.33 0.40 0.47 0.56 0.61 0.61 0.64 0.66 0.63 0.62 0.58 0.51 0.45 0.43 0.40 0.36 0.32 0.30 0.28 0.25 0.24 0.25 0.25 0.27 0.26 0.26 0.26 0.26 0.26 0.29 0.39 0.46 0.49 0.43 0.35 0.36 0.40
0.20 0.25 0.28 0.29 0.30 0.36 0.44 0.50 0.55 0.57 0.54 0.48 0.44 0.41 0.35 0.32 0.30 0.26 0.24 0.24 0.23 0.22 0.20 0.18 0.16 0.14 0.14 0.15 0.17 0.20 0.24 0.26 0.25 0.24 0.23 0.27 0.40 0.42 0.40 0.38 0.38 0.42 0.41
0.09 0.13 0.18 0.21 0.22 0.23 0.26 0.28 0.27 0.24 0.21 0.17 0.15 0.15 0.14 0.14 0.15 0.14 0.14 0.14 0.15 0.15 0.14 0.14 0.13 0.13 0.13 0.15 0.19 0.21 0.25 0.29 0.29 0.25 0.28 0.32 0.33 0.32 0.32 0.36 0.41 0.40 0.36
0.06 0.06 0.07 0.07 0.07 0.07 0.07 0.07 0.07 0.06 0.07 0.07 0.07 0.08 0.08 0.09 0.10 0.10 0.09 0.11 0.12 0.13 0.14 0.15 0.15 0.15 0.15 0.16 0.19 0.23 0.26 0.30 0.31 0.30 0.30 0.29 0.28 0.29 0.30 0.32 0.34 0.35 0.36
0.06 0.06 0.07 0.08 0.07 0.07 0.07 0.07 0.06 0.06 0.06 0.07 0.08 0.09 0.10 0.11 0.12 0.13 0.13 0.15 0.16 0.18 0.20 0.20 0.20 0.22 0.21 0.21 0.28 0.33 0.33 0.35 0.38 0.39 0.34 0.31 0.30 0.29 0.28 0.29 0.30 0.32 0.36
0.05 0.06 0.07 0.09 0.09 0.09 0.08 0.08 0.08 0.08 0.09 0.09 0.09 0.10 0.11 0.12 0.14 0.14 0.15 0.18 0.19 0.21 0.23 0.22 0.23 0.22 0.24 0.28 0.34 0.36 0.37 0.41 0.47 0.49 0.39 0.32 0.29 0.30 0.29 0.30 0.33 0.36 0.39

GEFSMW_prec_meanprecacc_180.txt.gz
Total_Precipitation_Accumulation
1.05 1.21 1.46 1.73 1.92 2.11 2.18 2.23 2.23 2.21 2.22 2.33 2.30 2.07 1.83 1.66 1.46 1.34 1.32 1.26 1.23 1.28 1.17 0.99 0.96 1.00 0.92 0.84 0.83 0.84 0.81 0.73 0.69 0.63 0.44 0.30 0.23 0.19 0.16 0.15 0.14 0.13 0.14
0.84 0.96 1.20 1.44 1.66 1.87 2.10 2.18 2.22 2.28 2.10 1.95 2.07 2.09 2.01 1.84 1.67 1.57 1.49 1.38 1.33 1.31 1.29 1.24 1.17 1.15 1.13 1.09 1.02 1.01 0.98 0.91 0.88 0.82 0.72 0.48 0.31 0.21 0.17 0.18 0.18 0.17 0.18
0.73 0.83 0.97 1.12 1.36 1.58 1.82 1.99 2.12 2.24 2.26 2.17 2.25 2.20 2.11 1.90 1.63 1.44 1.41 1.41 1.41 1.41 1.36 1.35 1.35 1.34 1.30 1.22 1.17 1.15 1.14 1.10 1.03 0.98 1.00 0.75 0.47 0.30 0.23 0.21 0.22 0.22 0.22
0.67 0.77 0.88 0.97 1.10 1.32 1.51 1.66 1.93 2.16 2.28 2.35 2.26 2.13 1.94 1.70 1.47 1.42 1.52 1.55 1.51 1.45 1.41 1.39 1.40 1.44 1.39 1.30 1.32 1.33 1.22 1.24 1.19 1.13 1.04 0.89 0.70 0.60 0.42 0.29 0.29 0.30 0.28
0.63 0.70 0.80 0.90 0.99 1.16 1.33 1.42 1.64 1.95 2.09 2.03 1.99 2.07 1.96 1.76 1.63 1.57 1.53 1.50 1.43 1.38 1.35 1.35 1.38 1.37 1.37 1.33 1.35 1.39 1.38 1.32 1.29 1.23 1.18 1.16 1.01 0.85 0.76 0.56 0.42 0.39 0.37
0.67 0.73 0.79 0.85 0.90 0.98 1.17 1.33 1.39 1.58 1.75 1.77 1.79 1.84 1.77 1.71 1.61 1.48 1.43 1.44 1.39 1.30 1.24 1.23 1.26 1.31 1.32 1.29 1.29 1.38 1.45 1.46 1.36 1.25 1.15 1.12 1.07 0.95 0.92 0.82 0.61 0.52 0.44
0.80 0.85 0.83 0.87 0.92 0.95 0.98 1.12 1.21 1.30 1.45 1.61 1.70 1.67 1.68 1.65 1.58 1.47 1.41 1.39 1.35 1.27 1.21 1.18 1.20 1.24 1.28 1.33 1.40 1.41 1.41 1.47 1.46 1.40 1.31 1.23 1.11 1.03 1.04 1.02 0.84 0.68 0.54
0.92 0.96 0.96 1.06 1.10 1.09 1.02 1.02 1.06 1.08 1.18 1.37 1.52 1.55 1.58 1.54 1.44 1.35 1.28 1.23 1.17 1.16 1.18 1.23 1.27 1.29 1.31 1.32 1.34 1.33 1.30 1.35 1.37 1.37 1.34 1.27 1.18 1.17 1.17 1.16 1.20 1.09 0.85
0.97 1.04 1.09 1.12 1.08 1.04 1.03 1.02 1.06 1.02 0.97 1.05 1.18 1.26 1.33 1.32 1.25 1.18 1.10 1.08 1.07 1.08 1.11 1.17 1.22 1.23 1.23 1.22 1.23 1.22 1.19 1.23 1.27 1.29 1.30 1.26 1.16 1.15 1.16 1.17 1.24 1.34 1.19
0.85 0.94 0.95 0.94 0.97 0.98 0.97 0.99 1.02 1.05 0.99 0.95 1.00 1.09 1.08 1.05 1.01 0.99 0.94 0.89 0.89 0.90 0.93 1.00 1.07 1.09 1.08 1.07 1.09 1.10 1.08 1.11 1.11 1.13 1.19 1.21 1.14 1.11 1.13 1.16 1.19 1.28 1.33
0.65 0.68 0.70 0.74 0.79 0.83 0.89 0.97 1.06 1.05 0.94 0.95 0.98 0.99 1.00 1.01 0.93 0.86 0.85 0.86 0.83 0.82 0.86 0.89 0.93 0.95 0.96 0.97 0.97 0.96 0.95 0.97 0.97 0.98 1.01 1.04 1.07 1.12 1.12 1.14 1.18 1.23 1.29
0.56 0.55 0.54 0.54 0.55 0.59 0.65 0.74 0.83 0.83 0.80 0.82 0.91 0.87 0.89 0.98 0.94 0.86 0.82 0.81 0.77 0.71 0.71 0.74 0.77 0.78 0.79 0.80 0.83 0.83 0.83 0.83 0.83 0.84 0.89 0.91 0.94 0.99 1.04 1.10 1.15 1.18 1.20
0.43 0.40 0.40 0.43 0.41 0.42 0.47 0.57 0.64 0.64 0.66 0.69 0.74 0.74 0.75 0.81 0.83 0.85 0.84 0.80 0.78 0.72 0.64 0.62 0.63 0.64 0.66 0.67 0.69 0.71 0.71 0.73 0.74 0.74 0.78 0.81 0.86 0.92 0.93 0.97 1.01 1.02 1.04
0.32 0.29 0.28 0.28 0.29 0.32 0.38 0.43 0.46 0.48 0.50 0.50 0.52 0.54 0.59 0.62 0.63 0.65 0.68 0.68 0.68 0.65 0.61 0.57 0.54 0.54 0.57 0.61 0.63 0.65 0.67 0.68 0.69 0.71 0.74 0.76 0.79 0.81 0.83 0.88 0.90 0.90 0.91
0.19 0.17 0.17 0.19 0.20 0.22 0.26 0.31 0.35 0.40 0.44 0.45 0.44 0.45 0.47 0.50 0.51 0.50 0.49 0.49 0.51 0.53 0.53 0.53 0.53 0.51 0.50 0.53 0.57 0.60 0.64 0.66 0.69 0.70 0.72 0.75 0.83 0.84 0.82 0.81 0.80 0.81 0.86
0.12 0.11 0.11 0.12 0.14 0.15 0.18 0.22 0.28 0.32 0.35 0.39 0.40 0.42 0.42 0.42 0.43 0.43 0.41 0.39 0.40 0.43 0.46 0.51 0.55 0.59 0.61 0.73 0.69 0.63 0.64 0.68 0.69 0.68 0.66 0.66 0.71 0.70 0.71 0.71 0.70 0.75 0.83
0.09 0.09 0.09 0.09 0.09 0.10 0.16 0.22 0.26 0.26 0.28 0.30 0.30 0.31 0.33 0.36 0.37 0.39 0.42 0.47 0.51 0.52 0.56 0.60 0.65 0.69 0.76 0.84 0.76 0.71 0.64 0.65 0.66 0.64 0.59 0.56 0.54 0.56 0.49 0.52 0.57 0.60 0.68
0.06 0.06 0.06 0.06 0.06 0.09 0.13 0.20 0.28 0.31 0.33 0.36 0.35 0.32 0.33 0.39 0.45 0.51 0.57 0.65 0.72 0.76 0.80 0.83 0.85 0.84 0.83 0.82 0.72 0.70 0.61 0.58 0.54 0.49 0.44 0.41 0.38 0.37 0.39 0.41 0.49 0.47 0.46
0.05 0.05 0.05 0.06 0.08 0.10 0.12 0.17 0.26 0.32 0.37 0.42 0.45 0.46 0.48 0.56 0.62 0.71 0.79 0.81 0.87 0.87 0.85 0.82 0.80 0.77 0.72 0.67 0.58 0.50 0.43 0.44 0.42 0.37 0.34 0.34 0.32 0.38 0.45 0.45 0.47 0.38 0.33
0.10 0.07 0.07 0.08 0.11 0.14 0.17 0.23 0.31 0.40 0.47 0.52 0.58 0.60 0.61 0.65 0.67 0.68 0.70 0.70 0.70 0.67 0.61 0.57 0.54 0.51 0.47 0.46 0.41 0.37 0.32 0.31 0.29 0.29 0.29 0.34 0.34 0.41 0.49 0.45 0.41 0.35 0.31
0.20 0.18 0.18 0.19 0.22 0.26 0.33 0.40 0.47 0.56 0.61 0.62 0.65 0.66 0.63 0.63 0.59 0.51 0.46 0.43 0.40 0.36 0.32 0.30 0.28 0.26 0.25 0.25 0.26 0.27 0.26 0.26 0.26 0.26 0.26 0.29 0.39 0.46 0.49 0.43 0.36 0.37 0.41
0.20 0.25 0.28 0.29 0.30 0.36 0.44 0.51 0.55 0.57 0.54 0.48 0.44 0.41 0.36 0.33 0.31 0.27 0.25 0.24 0.23 0.22 0.21 0.18 0.16 0.15 0.14 0.15 0.17 0.20 0.24 0.26 0.25 0.24 0.24 0.28 0.40 0.42 0.40 0.39 0.39 0.43 0.41
0.09 0.13 0.18 0.22 0.22 0.23 0.26 0.29 0.27 0.24 0.21 0.17 0.15 0.15 0.14 0.14 0.15 0.15 0.14 0.14 0.15 0.15 0.15 0.14 0.14 0.13 0.13 0.15 0.19 0.21 0.25 0.30 0.29 0.26 0.28 0.32 0.34 0.33 0.33 0.36 0.41 0.41 0.36
0.07 0.06 0.07 0.08 0.08 0.07 0.07 0.07 0.07 0.07 0.07 0.07 0.07 0.08 0.08 0.09 0.10 0.10 0.09 0.11 0.12 0.13 0.15 0.15 0.15 0.16 0.16 0.16 0.19 0.23 0.27 0.30 0.31 0.30 0.30 0.30 0.28 0.29 0.30 0.32 0.35 0.36 0.37
0.06 0.07 0.08 0.08 0.08 0.08 0.07 0.07 0.07 0.06 0.06 0.07 0.08 0.09 0.10 0.11 0.12 0.13 0.13 0.15 0.16 0.19 0.21 0.20 0.20 0.22 0.22 0.21 0.29 0.34 0.33 0.36 0.38 0.40 0.34 0.31 0.30 0.29 0.28 0.29 0.31 0.33 0.37
0.06 0.06 0.08 0.10 0.10 0.09 0.08 0.08 0.08 0.08 0.09 0.09 0.09 0.10 0.11 0.13 0.14 0.14 0.15 0.18 0.19 0.21 0.23 0.23 0.23 0.22 0.24 0.29 0.35 0.37 0.38 0.41 0.47 0.50 0.39 0.32 0.30 0.30 0.29 0.30 0.33 0.37 0.40

GEFSMW_prec_meanprecacc_186.txt.gz
Total_Precipitation_Accumulation
1.13 1.30 1.55 1.84 2.07 2.25 2.32 2.44 2.45 2.40 2.43 2.54 2.49 2.25 2.00 1.80 1.57 1.44 1.42 1.35 1.28 1.31 1.18 0.99 0.96 1.00 0.93 0.85 0.84 0.85 0.82 0.74 0.71 0.66 0.49 0.38 0.32 0.28 0.20 0.16 0.15 0.14 0.15
0.90 1.05 1.30 1.55 1.79 2.01 2.24 2.35 2.43 2.47 2.28 2.13 2.26 2.26 2.16 1.98 1.80 1.67 1.58 1.47 1.39 1.34 1.30 1.24 1.17 1.15 1.14 1.09 1.03 1.02 0.99 0.92 0.89 0.84 0.76 0.54 0.38 0.29 0.22 0.20 0.19 0.18 0.19
0.77 0.90 1.07 1.25 1.50 1.73 1.97 2.15 2.30 2.42 2.42 2.31 2.40 2.35 2.25 2.03 1.76 1.56 1.51 1.50 1.47 1.44 1.37 1.35 1.36 1.34 1.30 1.22 1.17 1.15 1.15 1.11 1.04 1.00 1.03 0.78 0.52 0.37 0.30 0.26 0.24 0.23 0.23
0.70 0.81 0.94 1.08 1.26 1.47 1.65 1.81 2.09 2.30 2.42 2.48 2.38 2.23 2.04 1.81 1.57 1.52 1.61 1.62 1.57 1.49 1.43 1.41 1.41 1.44 1.40 1.31 1.33 1.34 1.23 1.25 1.21 1.15 1.06 0.92 0.73 0.64 0.48 0.36 0.34 0.32 0.30
0.65 0.72 0.84 0.98 1.11 1.28 1.44 1.56 1.76 2.06 2.18 2.14 2.13 2.15 2.03 1.83 1.72 1.65 1.60 1.57 1.48 1.42 1.37 1.36 1.39 1.38 1.38 1.35 1.36 1.40 1.39 1.34 1.30 1.24 1.20 1.18 1.04 0.88 0.80 0.61 0.47 0.45 0.41
0.69 0.74 0.82 0.91 0.98 1.07 1.25 1.44 1.47 1.64 1.80 1.82 1.89 1.93 1.83 1.76 1.68 1.56 1.51 1.50 1.45 1.34 1.26 1.24 1.26 1.31 1.32 1.29 1.30 1.39 1.46 1.47 1.37 1.26 1.16 1.14 1.09 0.98 0.96 0.85 0.65 0.57 0.48
0.81 0.87 0.86 0.92 0.97 1.00 1.04 1.20 1.27 1.34 1.48 1.63 1.73 1.74 1.74 1.69 1.62 1.52 1.46 1.44 1.40 1.32 1.25 1.21 1.21 1.25 1.28 1.34 1.40 1.42 1.42 1.48 1.47 1.41 1.32 1.24 1.13 1.05 1.06 1.04 0.86 0.71 0.57
0.93 0.97 0.97 1.08 1.13 1.12 1.07 1.08 1.11 1.11 1.19 1.38 1.54 1.58 1.63 1.58 1.47 1.38 1.31 1.27 1.21 1.19 1.22 1.26 1.30 1.31 1.32 1.33 1.35 1.34 1.31 1.35 1.38 1.37 1.34 1.28 1.19 1.19 1.19 1.17 1.21 1.11 0.87
0.99 1.05 1.09 1.13 1.10 1.06 1.07 1.06 1.09 1.06 1.00 1.06 1.20 1.30 1.37 1.37 1.29 1.21 1.13 1.10 1.10 1.10 1.14 1.19 1.24 1.26 1.25 1.24 1.25 1.23 1.20 1.24 1.27 1.29 1.31 1.26 1.16 1.16 1.17 1.18 1.25 1.35 1.20
0.86 0.96 0.96 0.95 0.99 1.00 0.99 1.02 1.06 1.09 1.03 0.98 1.02 1.12 1.12 1.10 1.07 1.04 0.98 0.92 0.91 0.92 0.95 1.02 1.09 1.11 1.10 1.08 1.11 1.11 1.09 1.12 1.11 1.13 1.20 1.21 1.15 1.12 1.14 1.17 1.21 1.29 1.35
0.66 0.69 0.71 0.75 0.81 0.86 0.92 0.99 1.08 1.09 0.97 0.98 1.01 1.01 1.03 1.05 0.97 0.91 0.89 0.90 0.86 0.84 0.87 0.90 0.94 0.96 0.97 0.98 0.98 0.96 0.96 0.97 0.97 0.99 1.02 1.05 1.08 1.13 1.14 1.15 1.20 1.24 1.31
0.57 0.56 0.55 0.55 0.56 0.61 0.68 0.76 0.85 0.87 0.84 0.84 0.92 0.89 0.91 0.99 0.97 0.90 0.85 0.84 0.80 0.74 0.73 0.76 0.79 0.79 0.79 0.81 0.83 0.84 0.83 0.83 0.83 0.85 0.90 0.91 0.95 1.00 1.04 1.11 1.17 1.20 1.22
0.44 0.41 0.41 0.44 0.43 0.44 0.49 0.59 0.67 0.69 0.70 0.71 0.75 0.75 0.76 0.82 0.84 0.87 0.87 0.83 0.81 0.74 0.67 0.64 0.65 0.66 0.67 0.67 0.69 0.71 0.72 0.73 0.74 0.75 0.78 0.81 0.86 0.92 0.94 0.98 1.02 1.03 1.05
0.33 0.29 0.28 0.29 0.30 0.33 0.40 0.45 0.49 0.52 0.53 0.53 0.54 0.56 0.60 0.63 0.63 0.66 0.70 0.70 0.70 0.67 0.63 0.58 0.56 0.55 0.59 0.62 0.63 0.65 0.67 0.68 0.69 0.71 0.74 0.76 0.80 0.82 0.84 0.88 0.90 0.91 0.92
0.20 0.18 0.18 0.19 0.21 0.22 0.27 0.33 0.37 0.42 0.47 0.47 0.46 0.47 0.48 0.51 0.52 0.51 0.50 0.51 0.53 0.54 0.55 0.54 0.53 0.51 0.51 0.53 0.57 0.60 0.64 0.66 0.69 0.70 0.72 0.75 0.83 0.85 0.83 0.81 0.80 0.81 0.86
0.13 0.12 0.11 0.13 0.15 0.16 0.19 0.23 0.29 0.34 0.37 0.41 0.42 0.43 0.43 0.43 0.43 0.43 0.42 0.41 0.43 0.45 0.49 0.52 0.56 0.59 0.61 0.73 0.69 0.63 0.64 0.68 0.69 0.68 0.66 0.66 0.71 0.70 0.72 0.72 0.71 0.76 0.84
0.10 0.09 0.09 0.09 0.09 0.11 0.16 0.22 0.26 0.27 0.29 0.31 0.32 0.33 0.34 0.37 0.38 0.40 0.43 0.48 0.52 0.54 0.58 0.63 0.66 0.69 0.76 0.84 0.76 0.72 0.64 0.65 0.66 0.64 0.59 0.56 0.54 0.56 0.49 0.53 0.58 0.60 0.69
0.06 0.06 0.06 0.06 0.06 0.09 0.13 0.21 0.28 0.31 0.34 0.37 0.35 0.32 0.33 0.39 0.45 0.51 0.58 0.66 0.74 0.77 0.81 0.85 0.86 0.85 0.84 0.82 0.73 0.70 0.61 0.58 0.54 0.49 0.45 0.41 0.38 0.38 0.39 0.42 0.49 0.48 0.46
0.05 0.05 0.05 0.06 0.08 0.10 0.12 0.17 0.26 0.33 0.38 0.42 0.46 0.46 0.48 0.56 0.62 0.71 0.80 0.82 0.88 0.89 0.85 0.83 0.81 0.78 0.72 0.68 0.58 0.50 0.43 0.44 0.42 0.38 0.35 0.35 0.33 0.39 0.46 0.46 0.47 0.38 0.33
0.10 0.07 0.07 0.08 0.11 0.14 0.17 0.23 0.32 0.41 0.48 0.52 0.58 0.60 0.61 0.65 0.67 0.69 0.71 0.71 0.71 0.68 0.62 0.58 0.54 0.51 0.48 0.46 0.41 0.38 0.33 0.31 0.29 0.29 0.30 0.35 0.35 0.42 0.49 0.46 0.41 0.35 0.31
0.20 0.18 0.18 0.19 0.22 0.26 0.33 0.41 0.47 0.56 0.62 0.62 0.66 0.67 0.64 0.63 0.59 0.52 0.46 0.44 0.42 0.38 0.33 0.30 0.28 0.26 0.25 0.26 0.26 0.28 0.26 0.26 0.26 0.26 0.26 0.29 0.40 0.46 0.50 0.44 0.36 0.37 0.41
0.20 0.25 0.28 0.29 0.30 0.36 0.44 0.51 0.56 0.58 0.55 0.49 0.45 0.43 0.37 0.34 0.31 0.27 0.25 0.24 0.24 0.23 0.22 0.19 0.17 0.15 0.14 0.15 0.17 0.20 0.24 0.27 0.25 0.24 0.24 0.28 0.40 0.43 0.41 0.39 0.39 0.44 0.43
0.09 0.13 0.18 0.22 0.22 0.23 0.26 0.29 0.28 0.25 0.23 0.19 0.17 0.16 0.15 0.15 0.15 0.15 0.14 0.14 0.15 0.16 0.15 0.15 0.15 0.14 0.13 0.15 0.19 0.21 0.25 0.30 0.29 0.26 0.29 0.33 0.34 0.33 0.33 0.37 0.42 0.42 0.37
0.07 0.06 0.07 0.08 0.08 0.07 0.07 0.07 0.07 0.07 0.08 0.08 0.09 0.09 0.09 0.10 0.10 0.10 0.10 0.11 0.12 0.14 0.15 0.16 0.16 0.16 0.16 0.16 0.19 0.24 0.27 0.31 0.32 0.31 0.31 0.30 0.29 0.30 0.31 0.33 0.36 0.37 0.38
0.06 0.07 0.08 0.08 0.08 0.08 0.08 0.07 0.07 0.07 0.07 0.08 0.09 0.10 0.11 0.12 0.13 0.13 0.13 0.15 0.16 0.19 0.21 0.21 0.21 0.22 0.22 0.21 0.29 0.34 0.34 0.36 0.39 0.40 0.35 0.32 0.31 0.31 0.30 0.30 0.32 0.34 0.38
0.06 0.07 0.08 0.10 0.10 0.09 0.08 0.09 0.09 0.09 0.10 0.10 0.10 0.11 0.12 0.13 0.14 0.15 0.15 0.18 0.19 0.21 0.23 0.23 0.24 0.23 0.25 0.29 0.35 0.37 0.39 0.42 0.49 0.52 0.41 0.33 0.31 0.32 0.31 0.32 0.34 0.37 0.41

GEFSMW_prec_meanprecacc_192.txt.gz
Total_Precipitation_Accumulation
1.17 1.35 1.62 1.92 2.16 2.37 2.49 2.63 2.67 2.59 2.60 2.72 2.65 2.39 2.11 1.91 1.68 1.58 1.56 1.44 1.36 1.37 1.23 1.03 0.99 1.02 0.94 0.86 0.85 0.86 0.83 0.75 0.72 0.67 0.52 0.41 0.37 0.35 0.29 0.25 0.23 0.20 0.20
0.93 1.10 1.36 1.60 1.86 2.10 2.38 2.55 2.66 2.71 2.49 2.32 2.41 2.38 2.25 2.07 1.89 1.77 1.69 1.56 1.46 1.40 1.35 1.28 1.20 1.18 1.15 1.10 1.04 1.03 1.00 0.93 0.91 0.85 0.77 0.57 0.42 0.33 0.29 0.26 0.24 0.22 0.22
0.78 0.92 1.10 1.29 1.55 1.79 2.07 2.33 2.51 2.65 2.66 2.53 2.59 2.48 2.32 2.10 1.85 1.66 1.61 1.58 1.54 1.50 1.42 1.39 1.39 1.37 1.32 1.24 1.18 1.16 1.16 1.12 1.06 1.01 1.04 0.80 0.54 0.40 0.35 0.31 0.27 0.25 0.25
0.71 0.82 0.96 1.12 1.30 1.54 1.73 1.94 2.27 2.50 2.61 2.67 2.56 2.38 2.14 1.87 1.63 1.60 1.71 1.72 1.64 1.56 1.48 1.45 1.44 1.46 1.42 1.32 1.34 1.34 1.24 1.26 1.22 1.16 1.07 0.92 0.73 0.65 0.50 0.39 0.37 0.34 0.30
0.67 0.74 0.84 1.00 1.16 1.35 1.52 1.64 1.88 2.22 2.35 2.30 2.28 2.27 2.12 1.89 1.76 1.70 1.66 1.64 1.56 1.48 1.42 1.40 1.43 1.41 1.41 1.37 1.38 1.41 1.40 1.34 1.31 1.25 1.20 1.19 1.04 0.88 0.81 0.63 0.49 0.47 0.42
0.71 0.76 0.83 0.93 1.02 1.12 1.31 1.51 1.56 1.75 1.96 1.97 2.01 2.04 1.91 1.80 1.71 1.60 1.55 1.55 1.50 1.39 1.31 1.28 1.30 1.35 1.35 1.32 1.33 1.41 1.47 1.48 1.38 1.27 1.17 1.15 1.10 0.98 0.96 0.86 0.66 0.58 0.50
0.83 0.89 0.88 0.95 1.02 1.05 1.08 1.26 1.35 1.42 1.59 1.76 1.84 1.82 1.80 1.72 1.64 1.54 1.49 1.48 1.45 1.36 1.29 1.24 1.24 1.28 1.32 1.37 1.43 1.44 1.44 1.50 1.48 1.42 1.33 1.25 1.13 1.05 1.06 1.05 0.87 0.72 0.58
0.96 0.99 0.99 1.11 1.16 1.15 1.11 1.14 1.18 1.17 1.27 1.47 1.63 1.66 1.68 1.60 1.49 1.39 1.32 1.29 1.24 1.23 1.25 1.29 1.32 1.33 1.35 1.35 1.38 1.36 1.33 1.37 1.40 1.39 1.34 1.28 1.19 1.19 1.19 1.17 1.21 1.11 0.88
1.01 1.07 1.11 1.15 1.13 1.09 1.12 1.13 1.15 1.10 1.05 1.13 1.25 1.36 1.43 1.40 1.31 1.22 1.14 1.12 1.12 1.13 1.16 1.21 1.26 1.28 1.27 1.25 1.27 1.25 1.22 1.26 1.30 1.31 1.32 1.27 1.17 1.16 1.17 1.18 1.25 1.36 1.21
0.88 0.98 0.98 0.97 1.02 1.03 1.05 1.09 1.12 1.13 1.06 1.03 1.07 1.16 1.17 1.14 1.09 1.05 0.99 0.93 0.93 0.94 0.97 1.04 1.10 1.12 1.11 1.10 1.12 1.13 1.10 1.14 1.13 1.15 1.22 1.23 1.16 1.13 1.14 1.17 1.21 1.29 1.35
0.68 0.71 0.73 0.78 0.83 0.89 0.98 1.06 1.15 1.13 1.01 1.02 1.05 1.05 1.06 1.08 1.00 0.93 0.90 0.91 0.87 0.85 0.89 0.91 0.96 0.98 0.98 0.99 0.99 0.98 0.97 0.99 0.99 1.01 1.04 1.07 1.09 1.14 1.14 1.16 1.20 1.25 1.31
0.59 0.58 0.57 0.57 0.58 0.64 0.72 0.81 0.91 0.91 0.88 0.88 0.96 0.93 0.94 1.02 0.99 0.91 0.86 0.85 0.82 0.75 0.75 0.77 0.80 0.81 0.81 0.82 0.84 0.85 0.85 0.85 0.85 0.86 0.91 0.92 0.96 1.00 1.05 1.12 1.17 1.20 1.22
0.46 0.42 0.43 0.45 0.44 0.46 0.53 0.63 0.72 0.73 0.74 0.76 0.79 0.78 0.78 0.84 0.86 0.89 0.87 0.84 0.82 0.75 0.68 0.66 0.67 0.67 0.68 0.69 0.70 0.72 0.73 0.75 0.76 0.76 0.79 0.82 0.87 0.93 0.94 0.98 1.02 1.04 1.06
0.35 0.31 0.29 0.30 0.31 0.34 0.43 0.48 0.53 0.56 0.58 0.58 0.59 0.59 0.63 0.65 0.66 0.68 0.71 0.71 0.70 0.68 0.64 0.60 0.57 0.57 0.60 0.64 0.65 0.67 0.68 0.69 0.70 0.72 0.75 0.77 0.80 0.82 0.84 0.88 0.90 0.91 0.92
0.22 0.20 0.19 0.20 0.22 0.23 0.29 0.35 0.42 0.47 0.52 0.53 0.51 0.51 0.52 0.53 0.54 0.54 0.53 0.53 0.54 0.55 0.56 0.55 0.55 0.53 0.53 0.56 0.59 0.63 0.66 0.68 0.70 0.71 0.72 0.76 0.83 0.85 0.83 0.81 0.81 0.82 0.87
0.15 0.13 0.12 0.13 0.16 0.17 0.20 0.25 0.32 0.39 0.43 0.47 0.47 0.48 0.47 0.46 0.46 0.46 0.46 0.45 0.45 0.47 0.50 0.53 0.57 0.60 0.62 0.75 0.71 0.65 0.66 0.70 0.70 0.69 0.67 0.67 0.71 0.70 0.72 0.72 0.71 0.76 0.84
0.11 0.10 0.11 0.11 0.11 0.12 0.18 0.24 0.28 0.29 0.32 0.36 0.37 0.37 0.38 0.41 0.41 0.42 0.46 0.52 0.56 0.57 0.60 0.65 0.68 0.71 0.78 0.86 0.78 0.73 0.65 0.66 0.67 0.65 0.60 0.56 0.55 0.56 0.49 0.54 0.58 0.61 0.70
0.06 0.06 0.07 0.07 0.08 0.10 0.14 0.22 0.29 0.32 0.36 0.40 0.39 0.37 0.37 0.43 0.48 0.54 0.60 0.69 0.77 0.80 0.83 0.87 0.88 0.87 0.86 0.85 0.75 0.71 0.62 0.59 0.55 0.50 0.45 0.42 0.39 0.38 0.39 0.42 0.50 0.48 0.47
0.05 0.05 0.05 0.06 0.08 0.10 0.12 0.17 0.26 0.34 0.39 0.44 0.48 0.49 0.52 0.59 0.64 0.73 0.82 0.85 0.91 0.92 0.89 0.85 0.83 0.80 0.74 0.70 0.61 0.52 0.44 0.44 0.43 0.38 0.35 0.35 0.33 0.39 0.46 0.46 0.48 0.38 0.33
0.10 0.07 0.07 0.08 0.11 0.14 0.17 0.24 0.32 0.41 0.48 0.53 0.59 0.61 0.63 0.67 0.69 0.70 0.73 0.73 0.73 0.70 0.64 0.61 0.57 0.54 0.50 0.48 0.43 0.40 0.34 0.32 0.30 0.29 0.30 0.35 0.35 0.42 0.50 0.46 0.42 0.35 0.31
0.20 0.18 0.18 0.19 0.22 0.26 0.33 0.41 0.48 0.57 0.62 0.63 0.66 0.68 0.65 0.64 0.60 0.53 0.47 0.45 0.43 0.39 0.34 0.32 0.30 0.28 0.27 0.28 0.28 0.30 0.28 0.28 0.28 0.27 0.27 0.29 0.40 0.46 0.50 0.44 0.36 0.38 0.42
0.21 0.25 0.28 0.29 0.30 0.36 0.44 0.51 0.56 0.58 0.55 0.49 0.46 0.43 0.38 0.35 0.32 0.28 0.26 0.25 0.24 0.24 0.22 0.20 0.18 0.16 0.15 0.17 0.19 0.22 0.25 0.28 0.26 0.25 0.25 0.29 0.41 0.43 0.41 0.40 0.40 0.44 0.43
0.09 0.13 0.18 0.22 0.22 0.23 0.26 0.29 0.28 0.25 0.23 0.20 0.18 0.18 0.17 0.17 0.17 0.16 0.15 0.15 0.16 0.17 0.16 0.16 0.16 0.15 0.14 0.16 0.21 0.23 0.27 0.31 0.30 0.27 0.30 0.33 0.35 0.34 0.34 0.38 0.43 0.43 0.38
0.07 0.07 0.07 0.08 0.08 0.07 0.07 0.07 0.07 0.07 0.08 0.08 0.09 0.10 0.11 0.12 0.13 0.12 0.12 0.12 0.13 0.15 0.16 0.17 0.17 0.17 0.17 0.18 0.21 0.25 0.28 0.32 0.33 0.32 0.31 0.31 0.30 0.30 0.32 0.34 0.36 0.38 0.39
0.07 0.07 0.08 0.08 0.08 0.08 0.08 0.08 0.07 0.07 0.07 0.08 0.10 0.11 0.12 0.14 0.15 0.15 0.15 0.17 0.18 0.20 0.22 0.21 0.22 0.23 0.23 0.23 0.31 0.36 0.36 0.38 0.40 0.41 0.36 0.33 0.32 0.31 0.30 0.31 0.32 0.35 0.39
0.06 0.07 0.08 0.10 0.10 0.09 0.08 0.09 0.09 0.10 0.10 0.10 0.11 0.11 0.13 0.14 0.16 0.16 0.17 0.19 0.21 0.22 0.24 0.24 0.25 0.24 0.26 0.31 0.37 0.39 0.40 0.44 0.51 0.53 0.42 0.34 0.32 0.32 0.32 0.33 0.35 0.38 0.42

GEFSMW_prec_meanprecacc_198.txt.gz
Total_Precipitation_Accumulation
1.20 1.39 1.66 2.03 2.26 2.45 2.57 2.71 2.75 2.72 2.74 2.89 2.82 2.54 2.26 2.09 1.85 1.75 1.73 1.58 1.47 1.49 1.34 1.13 1.10 1.11 1.01 0.91 0.88 0.88 0.84 0.76 0.72 0.68 0.53 0.44 0.39 0.37 0.30 0.26 0.25 0.24 0.24
0.95 1.12 1.38 1.67 1.96 2.19 2.46 2.61 2.74 2.82 2.63 2.47 2.58 2.55 2.41 2.21 2.01 1.90 1.85 1.70 1.56 1.51 1.48 1.40 1.31 1.27 1.23 1.15 1.07 1.05 1.02 0.95 0.92 0.86 0.78 0.58 0.44 0.36 0.31 0.27 0.26 0.25 0.25
0.80 0.94 1.12 1.33 1.63 1.88 2.15 2.39 2.56 2.72 2.78 2.67 2.73 2.66 2.52 2.26 1.98 1.77 1.74 1.71 1.64 1.59 1.50 1.49 1.50 1.47 1.40 1.29 1.22 1.19 1.19 1.15 1.07 1.02 1.05 0.81 0.56 0.42 0.37 0.33 0.29 0.27 0.27
0.73 0.84 0.97 1.14 1.35 1.62 1.82 2.02 2.32 2.55 2.69 2.78 2.69 2.52 2.32 2.04 1.76 1.71 1.82 1.83 1.72 1.64 1.57 1.54 1.53 1.56 1.49 1.38 1.38 1.38 1.26 1.28 1.24 1.18 1.08 0.93 0.74 0.66 0.52 0.41 0.39 0.36 0.32
0.68 0.75 0.86 1.02 1.18 1.40 1.61 1.73 1.93 2.26 2.39 2.37 2.37 2.38 2.24 2.03 1.89 1.80 1.76 1.74 1.64 1.55 1.49 1.49 1.52 1.50 1.49 1.44 1.44 1.45 1.44 1.37 1.33 1.27 1.22 1.20 1.05 0.89 0.82 0.64 0.51 0.48 0.44
0.72 0.78 0.85 0.95 1.04 1.16 1.36 1.55 1.60 1.79 2.00 2.01 2.07 2.12 2.00 1.90 1.81 1.68 1.64 1.64 1.57 1.45 1.37 1.33 1.36 1.41 1.42 1.39 1.39 1.47 1.52 1.51 1.40 1.29 1.19 1.16 1.11 0.99 0.97 0.87 0.67 0.60 0.51
0.84 0.90 0.90 0.97 1.04 1.07 1.11 1.30 1.39 1.45 1.62 1.81 1.88 1.87 1.87 1.80 1.72 1.61 1.55 1.55 1.51 1.41 1.33 1.28 1.28 1.32 1.36 1.41 1.47 1.48 1.48 1.54 1.51 1.44 1.34 1.26 1.14 1.06 1.07 1.05 0.88 0.73 0.60
0.96 1.00 1.00 1.12 1.18 1.17 1.14 1.16 1.21 1.20 1.29 1.51 1.67 1.70 1.73 1.67 1.55 1.45 1.38 1.34 1.29 1.27 1.29 1.32 1.35 1.36 1.38 1.39 1.41 1.39 1.36 1.42 1.44 1.42 1.37 1.30 1.21 1.20 1.19 1.18 1.22 1.12 0.89
1.02 1.08 1.12 1.16 1.14 1.11 1.15 1.16 1.19 1.14 1.07 1.15 1.28 1.39 1.48 1.46 1.35 1.26 1.18 1.16 1.15 1.16 1.20 1.26 1.29 1.30 1.29 1.29 1.31 1.29 1.26 1.30 1.34 1.36 1.36 1.30 1.19 1.18 1.18 1.19 1.26 1.37 1.22
0.89 0.99 0.99 0.99 1.03 1.06 1.09 1.14 1.17 1.19 1.10 1.05 1.09 1.19 1.21 1.19 1.13 1.08 1.03 0.96 0.95 0.96 1.00 1.08 1.14 1.15 1.13 1.12 1.16 1.16 1.14 1.17 1.17 1.19 1.26 1.27 1.20 1.16 1.16 1.19 1.22 1.31 1.36
0.69 0.72 0.74 0.79 0.86 0.92 1.03 1.12 1.22 1.19 1.06 1.06 1.08 1.08 1.09 1.12 1.04 0.96 0.93 0.93 0.89 0.87 0.91 0.94 1.00 1.02 1.01 1.01 1.01 1.00 0.99 1.01 1.01 1.04 1.07 1.10 1.13 1.17 1.17 1.18 1.21 1.26 1.32
0.60 0.59 0.58 0.58 0.60 0.67 0.76 0.86 0.96 0.96 0.93 0.93 1.00 0.97 0.98 1.06 1.04 0.95 0.89 0.88 0.84 0.77 0.76 0.79 0.83 0.84 0.84 0.84 0.86 0.86 0.86 0.86 0.86 0.88 0.94 0.95 0.99 1.04 1.08 1.14 1.19 1.21 1.23
0.48 0.44 0.43 0.46 0.45 0.48 0.55 0.66 0.75 0.77 0.79 0.81 0.85 0.85 0.85 0.91 0.92 0.92 0.90 0.86 0.85 0.79 0.70 0.68 0.69 0.70 0.71 0.72 0.72 0.73 0.74 0.75 0.76 0.77 0.81 0.84 0.90 0.96 0.98 1.01 1.04 1.05 1.06
0.37 0.33 0.31 0.31 0.32 0.35 0.44 0.50 0.55 0.59 0.63 0.65 0.66 0.67 0.71 0.73 0.73 0.73 0.74 0.74 0.74 0.72 0.67 0.62 0.60 0.60 0.63 0.67 0.68 0.68 0.69 0.70 0.71 0.73 0.77 0.80 0.83 0.85 0.87 0.91 0.92 0.92 0.93
0.25 0.22 0.21 0.22 0.23 0.25 0.30 0.37 0.44 0.49 0.56 0.59 0.60 0.60 0.60 0.60 0.61 0.60 0.57 0.56 0.57 0.60 0.60 0.58 0.56 0.55 0.55 0.58 0.62 0.65 0.67 0.69 0.71 0.72 0.74 0.78 0.86 0.89 0.86 0.84 0.83 0.83 0.88
0.18 0.16 0.15 0.15 0.17 0.19 0.21 0.26 0.34 0.41 0.46 0.52 0.55 0.55 0.55 0.54 0.53 0.52 0.51 0.48 0.49 0.51 0.56 0.58 0.60 0.62 0.64 0.77 0.74 0.68 0.68 0.72 0.72 0.71 0.69 0.69 0.73 0.73 0.75 0.74 0.73 0.77 0.85
0.13 0.13 0.14 0.14 0.13 0.14 0.19 0.25 0.29 0.31 0.35 0.40 0.42 0.44 0.46 0.48 0.48 0.49 0.52 0.57 0.61 0.61 0.65 0.70 0.73 0.73 0.79 0.88 0.79 0.75 0.67 0.68 0.69 0.66 0.62 0.58 0.57 0.58 0.51 0.56 0.60 0.62 0.70
0.07 0.08 0.10 0.11 0.11 0.12 0.16 0.24 0.31 0.34 0.38 0.42 0.43 0.43 0.45 0.50 0.54 0.60 0.67 0.76 0.84 0.86 0.88 0.92 0.93 0.91 0.89 0.87 0.77 0.74 0.64 0.60 0.56 0.51 0.46 0.43 0.40 0.39 0.40 0.43 0.51 0.49 0.47
0.06 0.06 0.07 0.10 0.12 0.14 0.15 0.20 0.28 0.35 0.41 0.46 0.50 0.52 0.56 0.65 0.70 0.78 0.87 0.91 0.98 0.98 0.94 0.90 0.88 0.84 0.77 0.73 0.64 0.56 0.47 0.46 0.44 0.39 0.36 0.36 0.34 0.40 0.47 0.47 0.48 0.39 0.34
0.11 0.08 0.08 0.10 0.15 0.18 0.21 0.26 0.34 0.43 0.50 0.55 0.61 0.65 0.67 0.71 0.74 0.75 0.77 0.77 0.78 0.75 0.69 0.65 0.61 0.58 0.53 0.51 0.47 0.43 0.37 0.34 0.31 0.30 0.31 0.36 0.36 0.43 0.51 0.47 0.43 0.36 0.32
0.21 0.19 0.18 0.20 0.24 0.29 0.37 0.43 0.49 0.58 0.63 0.64 0.67 0.70 0.67 0.67 0.64 0.56 0.50 0.47 0.45 0.42 0.38 0.36 0.34 0.32 0.31 0.31 0.31 0.33 0.31 0.30 0.30 0.28 0.28 0.30 0.41 0.47 0.50 0.45 0.37 0.38 0.42
0.21 0.25 0.29 0.29 0.31 0.38 0.47 0.53 0.58 0.59 0.55 0.50 0.47 0.44 0.39 0.36 0.34 0.30 0.28 0.27 0.27 0.27 0.24 0.22 0.21 0.19 0.18 0.20 0.22 0.24 0.28 0.30 0.29 0.27 0.26 0.30 0.42 0.44 0.43 0.41 0.41 0.45 0.45
0.10 0.13 0.19 0.22 0.22 0.24 0.27 0.30 0.29 0.26 0.23 0.20 0.18 0.18 0.17 0.18 0.18 0.17 0.16 0.16 0.18 0.19 0.18 0.18 0.17 0.17 0.17 0.19 0.23 0.25 0.29 0.33 0.32 0.29 0.31 0.35 0.38 0.36 0.36 0.39 0.44 0.44 0.40
0.07 0.07 0.08 0.08 0.08 0.08 0.08 0.08 0.07 0.08 0.08 0.09 0.10 0.11 0.12 0.12 0.13 0.13 0.12 0.13 0.14 0.16 0.17 0.18 0.18 0.19 0.19 0.20 0.23 0.27 0.30 0.34 0.35 0.33 0.33 0.32 0.31 0.32 0.34 0.35 0.38 0.39 0.40
0.07 0.07 0.08 0.09 0.08 0.08 0.08 0.08 0.07 0.07 0.07 0.09 0.10 0.11 0.13 0.14 0.15 0.16 0.16 0.18 0.19 0.21 0.23 0.23 0.23 0.25 0.25 0.25 0.33 0.38 0.37 0.40 0.41 0.43 0.38 0.34 0.33 0.32 0.31 0.32 0.34 0.36 0.40
0.06 0.07 0.08 0.10 0.10 0.09 0.09 0.09 0.09 0.10 0.10 0.11 0.11 0.11 0.13 0.14 0.16 0.17 0.17 0.20 0.21 0.23 0.25 0.25 0.26 0.25 0.27 0.33 0.39 0.41 0.42 0.46 0.53 0.55 0.44 0.36 0.33 0.33 0.33 0.34 0.37 0.40 0.43

GEFSMW_prec_meanprecacc_204.txt.gz
Total_Precipitation_Accumulation
1.22 1.41 1.70 2.08 2.31 2.54 2.68 2.86 2.87 2.80 2.80 2.94 2.91 2.65 2.38 2.20 1.95 1.85 1.85 1.69 1.59 1.62 1.49 1.26 1.20 1.19 1.07 0.96 0.94 0.93 0.89 0.79 0.74 0.70 0.55 0.45 0.41 0.39 0.32 0.27 0.26 0.25 0.25
0.97 1.13 1.39 1.70 1.99 2.24 2.53 2.73 2.87 2.93 2.72 2.54 2.65 2.65 2.51 2.31 2.12 2.00 1.96 1.81 1.68 1.62 1.60 1.55 1.43 1.38 1.31 1.23 1.14 1.11 1.07 0.98 0.94 0.88 0.81 0.60 0.46 0.38 0.32 0.29 0.27 0.26 0.26
0.83 0.95 1.14 1.35 1.64 1.91 2.20 2.46 2.67 2.83 2.87 2.74 2.81 2.75 2.61 2.35 2.07 1.86 1.82 1.80 1.76 1.70 1.61 1.63 1.63 1.59 1.52 1.40 1.32 1.26 1.23 1.18 1.11 1.05 1.09 0.84 0.58 0.43 0.39 0.34 0.30 0.28 0.28
0.74 0.85 0.99 1.16 1.37 1.65 1.86 2.07 2.39 2.63 2.77 2.84 2.75 2.60 2.39 2.12 1.84 1.79 1.89 1.90 1.82 1.74 1.68 1.64 1.65 1.67 1.60 1.50 1.51 1.50 1.35 1.33 1.28 1.22 1.12 0.97 0.77 0.68 0.54 0.43 0.40 0.36 0.33
0.69 0.76 0.87 1.03 1.20 1.44 1.65 1.78 1.99 2.32 2.45 2.41 2.42 2.44 2.29 2.09 1.95 1.87 1.83 1.81 1.73 1.66 1.61 1.59 1.62 1.60 1.58 1.53 1.54 1.55 1.54 1.46 1.39 1.32 1.27 1.24 1.08 0.92 0.84 0.66 0.53 0.50 0.45
0.72 0.78 0.85 0.96 1.06 1.18 1.39 1.58 1.64 1.84 2.05 2.06 2.10 2.16 2.05 1.94 1.84 1.73 1.69 1.70 1.64 1.53 1.47 1.44 1.45 1.49 1.50 1.46 1.46 1.54 1.60 1.60 1.49 1.36 1.24 1.22 1.15 1.03 1.00 0.89 0.69 0.62 0.52
0.85 0.91 0.90 0.99 1.05 1.10 1.14 1.32 1.41 1.49 1.67 1.86 1.92 1.90 1.92 1.85 1.76 1.65 1.59 1.60 1.57 1.46 1.40 1.36 1.37 1.40 1.42 1.47 1.53 1.54 1.54 1.60 1.59 1.53 1.42 1.32 1.19 1.11 1.11 1.09 0.91 0.76 0.62
0.97 1.01 1.00 1.13 1.19 1.19 1.16 1.18 1.24 1.23 1.33 1.55 1.71 1.75 1.78 1.73 1.60 1.50 1.41 1.37 1.33 1.31 1.34 1.38 1.41 1.44 1.45 1.44 1.46 1.44 1.41 1.47 1.49 1.48 1.44 1.37 1.27 1.25 1.24 1.22 1.26 1.15 0.91
1.03 1.10 1.13 1.17 1.14 1.12 1.17 1.18 1.22 1.17 1.10 1.18 1.32 1.44 1.53 1.51 1.41 1.30 1.22 1.19 1.18 1.19 1.23 1.30 1.34 1.35 1.36 1.35 1.36 1.33 1.29 1.33 1.37 1.40 1.40 1.35 1.24 1.22 1.22 1.23 1.30 1.40 1.24
0.89 0.99 1.00 0.99 1.04 1.07 1.10 1.16 1.20 1.22 1.13 1.09 1.14 1.23 1.25 1.24 1.19 1.13 1.06 0.99 0.98 0.99 1.02 1.11 1.18 1.19 1.18 1.17 1.21 1.21 1.17 1.20 1.19 1.21 1.29 1.30 1.23 1.18 1.18 1.22 1.25 1.34 1.39
0.69 0.72 0.74 0.79 0.87 0.93 1.04 1.14 1.24 1.22 1.09 1.09 1.11 1.11 1.12 1.17 1.11 1.03 0.97 0.96 0.92 0.90 0.94 0.96 1.02 1.04 1.04 1.04 1.04 1.03 1.03 1.05 1.04 1.06 1.09 1.12 1.15 1.19 1.18 1.19 1.24 1.28 1.34
0.60 0.59 0.58 0.59 0.61 0.68 0.77 0.87 0.98 0.98 0.95 0.96 1.03 1.00 1.00 1.09 1.09 1.01 0.95 0.92 0.87 0.79 0.79 0.82 0.85 0.86 0.86 0.86 0.88 0.89 0.89 0.90 0.90 0.91 0.96 0.98 1.01 1.06 1.09 1.15 1.21 1.24 1.26
0.48 0.44 0.44 0.46 0.46 0.49 0.57 0.67 0.77 0.79 0.83 0.85 0.88 0.88 0.88 0.93 0.95 0.96 0.95 0.91 0.88 0.82 0.73 0.70 0.71 0.72 0.73 0.73 0.74 0.75 0.76 0.77 0.79 0.81 0.84 0.87 0.92 0.98 0.99 1.03 1.06 1.07 1.09
0.37 0.33 0.31 0.32 0.32 0.37 0.46 0.52 0.58 0.62 0.66 0.68 0.69 0.71 0.75 0.76 0.75 0.76 0.77 0.77 0.77 0.75 0.70 0.64 0.61 0.61 0.64 0.68 0.69 0.70 0.70 0.71 0.72 0.74 0.79 0.83 0.86 0.87 0.89 0.93 0.94 0.94 0.95
0.25 0.22 0.21 0.22 0.24 0.26 0.31 0.39 0.47 0.52 0.59 0.63 0.64 0.65 0.66 0.66 0.66 0.64 0.61 0.59 0.61 0.62 0.63 0.60 0.59 0.57 0.57 0.60 0.64 0.67 0.69 0.70 0.72 0.72 0.75 0.80 0.88 0.91 0.89 0.86 0.85 0.85 0.90
0.18 0.16 0.15 0.15 0.18 0.20 0.22 0.28 0.37 0.44 0.48 0.54 0.58 0.61 0.62 0.62 0.61 0.58 0.55 0.52 0.52 0.54 0.58 0.61 0.62 0.64 0.66 0.79 0.75 0.69 0.70 0.74 0.73 0.71 0.69 0.70 0.75 0.75 0.77 0.77 0.76 0.80 0.87
0.14 0.14 0.14 0.14 0.13 0.15 0.21 0.27 0.32 0.35 0.38 0.42 0.44 0.48 0.52 0.57 0.58 0.57 0.59 0.62 0.65 0.65 0.69 0.73 0.76 0.76 0.82 0.91 0.81 0.77 0.69 0.70 0.71 0.68 0.63 0.59 0.58 0.60 0.53 0.57 0.62 0.65 0.73
0.08 0.08 0.11 0.11 0.11 0.13 0.18 0.25 0.34 0.39 0.42 0.46 0.46 0.46 0.49 0.56 0.63 0.70 0.76 0.83 0.89 0.91 0.93 0.95 0.96 0.94 0.92 0.90 0.80 0.76 0.66 0.63 0.59 0.53 0.47 0.44 0.41 0.40 0.42 0.45 0.53 0.51 0.50
0.07 0.07 0.08 0.10 0.13 0.15 0.17 0.22 0.32 0.40 0.45 0.50 0.54 0.56 0.60 0.70 0.77 0.87 0.95 0.98 1.04 1.04 0.99 0.95 0.92 0.88 0.82 0.77 0.67 0.59 0.49 0.49 0.47 0.42 0.38 0.37 0.35 0.41 0.49 0.48 0.50 0.41 0.35
0.11 0.08 0.09 0.11 0.16 0.20 0.23 0.29 0.38 0.47 0.54 0.58 0.64 0.68 0.71 0.76 0.80 0.82 0.84 0.84 0.84 0.81 0.75 0.71 0.67 0.63 0.58 0.56 0.51 0.48 0.40 0.37 0.35 0.34 0.34 0.38 0.38 0.45 0.53 0.49 0.45 0.38 0.33
0.22 0.20 0.19 0.21 0.25 0.31 0.39 0.46 0.53 0.62 0.67 0.67 0.70 0.72 0.71 0.72 0.70 0.62 0.56 0.54 0.51 0.47 0.44 0.41 0.39 0.36 0.35 0.36 0.36 0.38 0.35 0.35 0.34 0.32 0.32 0.33 0.43 0.50 0.53 0.47 0.39 0.40 0.44
0.22 0.26 0.30 0.31 0.33 0.40 0.49 0.56 0.61 0.63 0.60 0.54 0.50 0.48 0.42 0.40 0.38 0.35 0.32 0.32 0.31 0.32 0.30 0.28 0.26 0.24 0.23 0.25 0.26 0.29 0.33 0.36 0.33 0.32 0.30 0.34 0.46 0.47 0.45 0.43 0.42 0.47 0.46
0.10 0.15 0.20 0.24 0.25 0.25 0.29 0.32 0.32 0.29 0.27 0.24 0.23 0.22 0.21 0.21 0.21 0.21 0.20 0.20 0.22 0.23 0.22 0.22 0.22 0.22 0.21 0.23 0.28 0.31 0.35 0.39 0.38 0.34 0.36 0.39 0.41 0.39 0.38 0.41 0.46 0.45 0.41
0.08 0.08 0.09 0.10 0.11 0.10 0.10 0.10 0.10 0.11 0.11 0.12 0.14 0.15 0.16 0.16 0.16 0.16 0.15 0.16 0.17 0.19 0.20 0.21 0.21 0.21 0.22 0.23 0.26 0.31 0.35 0.39 0.39 0.38 0.37 0.36 0.35 0.35 0.36 0.38 0.40 0.41 0.41
0.07 0.08 0.09 0.11 0.12 0.11 0.10 0.10 0.11 0.10 0.11 0.11 0.13 0.15 0.16 0.17 0.18 0.18 0.19 0.20 0.21 0.24 0.26 0.24 0.24 0.26 0.26 0.26 0.35 0.40 0.40 0.42 0.44 0.46 0.41 0.38 0.36 0.35 0.34 0.34 0.35 0.37 0.42
0.07 0.08 0.09 0.11 0.13 0.12 0.11 0.11 0.12 0.13 0.13 0.13 0.13 0.14 0.15 0.17 0.18 0.18 0.19 0.22 0.23 0.25 0.26 0.26 0.27 0.26 0.28 0.34 0.40 0.42 0.43 0.48 0.55 0.58 0.47 0.39 0.36 0.36 0.35 0.36 0.39 0.42 0.45

GEFSMW_prec_meanprecacc_210.txt.gz
Total_Precipitation_Accumulation
1.22 1.42 1.72 2.09 2.32 2.55 2.71 2.89 2.94 2.89 2.88 2.99 2.94 2.68 2.42 2.25 2.00 1.91 1.91 1.79 1.70 1.71 1.57 1.35 1.33 1.36 1.26 1.15 1.11 1.07 0.97 0.85 0.78 0.73 0.59 0.50 0.44 0.41 0.33 0.28 0.27 0.25 0.26
0.98 1.13 1.40 1.70 1.99 2.25 2.55 2.75 2.90 2.99 2.80 2.63 2.71 2.69 2.56 2.36 2.18 2.06 2.04 1.88 1.77 1.71 1.68 1.63 1.54 1.53 1.47 1.39 1.28 1.24 1.18 1.06 0.99 0.92 0.84 0.64 0.50 0.40 0.34 0.30 0.28 0.26 0.27
0.83 0.95 1.14 1.36 1.65 1.92 2.21 2.48 2.70 2.87 2.95 2.84 2.88 2.81 2.67 2.41 2.14 1.93 1.90 1.89 1.84 1.77 1.67 1.69 1.71 1.69 1.63 1.51 1.44 1.37 1.32 1.28 1.19 1.10 1.12 0.87 0.61 0.46 0.41 0.36 0.32 0.30 0.29
0.74 0.85 1.01 1.18 1.37 1.65 1.87 2.09 2.42 2.68 2.83 2.92 2.81 2.66 2.46 2.19 1.90 1.86 1.96 1.97 1.89 1.81 1.73 1.68 1.70 1.74 1.68 1.60 1.62 1.61 1.44 1.42 1.38 1.31 1.17 1.00 0.80 0.71 0.56 0.45 0.42 0.39 0.35
0.70 0.77 0.89 1.05 1.21 1.45 1.67 1.80 2.01 2.34 2.48 2.45 2.46 2.48 2.34 2.14 2.00 1.93 1.89 1.87 1.79 1.73 1.67 1.64 1.66 1.65 1.65 1.62 1.65 1.69 1.66 1.55 1.48 1.42 1.35 1.29 1.11 0.94 0.86 0.68 0.55 0.53 0.47
0.74 0.80 0.87 0.98 1.06 1.19 1.42 1.60 1.66 1.87 2.09 2.09 2.13 2.21 2.09 1.97 1.88 1.77 1.74 1.75 1.69 1.59 1.53 1.49 1.52 1.55 1.55 1.54 1.58 1.67 1.73 1.71 1.57 1.44 1.32 1.28 1.21 1.07 1.03 0.92 0.72 0.64 0.55
0.85 0.92 0.92 1.01 1.06 1.12 1.15 1.34 1.44 1.52 1.70 1.88 1.95 1.94 1.98 1.89 1.80 1.69 1.63 1.63 1.60 1.50 1.44 1.40 1.42 1.46 1.48 1.53 1.62 1.66 1.67 1.71 1.66 1.58 1.47 1.38 1.27 1.18 1.18 1.14 0.96 0.81 0.66
0.98 1.01 1.02 1.14 1.20 1.21 1.19 1.22 1.27 1.26 1.36 1.57 1.74 1.77 1.83 1.79 1.66 1.55 1.45 1.41 1.37 1.34 1.37 1.42 1.46 1.48 1.50 1.50 1.53 1.52 1.51 1.57 1.57 1.53 1.48 1.40 1.31 1.31 1.32 1.30 1.33 1.23 0.98
1.03 1.10 1.13 1.17 1.15 1.13 1.19 1.21 1.25 1.20 1.13 1.21 1.34 1.46 1.55 1.56 1.47 1.36 1.27 1.24 1.24 1.24 1.26 1.33 1.38 1.39 1.40 1.39 1.41 1.39 1.35 1.39 1.44 1.45 1.43 1.37 1.26 1.25 1.27 1.28 1.35 1.45 1.30
0.89 0.99 1.00 0.99 1.04 1.07 1.12 1.19 1.24 1.26 1.17 1.12 1.17 1.25 1.27 1.27 1.24 1.20 1.12 1.05 1.04 1.03 1.06 1.14 1.21 1.23 1.22 1.21 1.24 1.25 1.23 1.25 1.24 1.26 1.32 1.33 1.25 1.21 1.21 1.25 1.29 1.37 1.42
0.69 0.73 0.74 0.79 0.87 0.93 1.05 1.15 1.26 1.25 1.13 1.14 1.16 1.14 1.14 1.19 1.15 1.08 1.04 1.02 0.97 0.93 0.96 0.99 1.05 1.07 1.07 1.08 1.08 1.07 1.08 1.10 1.09 1.10 1.12 1.14 1.17 1.22 1.21 1.23 1.27 1.31 1.37
0.61 0.59 0.58 0.59 0.61 0.68 0.78 0.88 1.00 1.01 1.00 1.01 1.09 1.04 1.03 1.12 1.12 1.05 1.00 0.96 0.92 0.83 0.82 0.84 0.87 0.89 0.88 0.89 0.92 0.93 0.93 0.95 0.95 0.95 0.99 1.00 1.03 1.08 1.12 1.18 1.24 1.27 1.28
0.48 0.44 0.44 0.46 0.46 0.49 0.57 0.69 0.78 0.83 0.88 0.89 0.93 0.93 0.92 0.97 0.98 1.00 0.99 0.94 0.92 0.85 0.77 0.74 0.75 0.75 0.75 0.76 0.77 0.79 0.80 0.82 0.84 0.85 0.87 0.89 0.95 1.00 1.01 1.04 1.07 1.09 1.11
0.37 0.33 0.31 0.32 0.33 0.37 0.47 0.54 0.59 0.65 0.72 0.73 0.74 0.75 0.79 0.79 0.79 0.79 0.80 0.80 0.81 0.78 0.74 0.69 0.66 0.65 0.67 0.71 0.72 0.72 0.73 0.74 0.76 0.79 0.83 0.86 0.89 0.90 0.91 0.95 0.96 0.96 0.97
0.25 0.22 0.21 0.22 0.24 0.26 0.32 0.41 0.49 0.56 0.63 0.68 0.70 0.70 0.70 0.70 0.69 0.67 0.64 0.62 0.64 0.67 0.66 0.65 0.64 0.61 0.60 0.63 0.67 0.69 0.71 0.73 0.75 0.76 0.79 0.83 0.92 0.95 0.92 0.88 0.86 0.86 0.91
0.18 0.16 0.15 0.16 0.18 0.20 0.23 0.29 0.39 0.47 0.52 0.59 0.64 0.66 0.67 0.66 0.64 0.61 0.59 0.55 0.56 0.58 0.62 0.65 0.66 0.67 0.69 0.83 0.80 0.73 0.73 0.76 0.76 0.74 0.72 0.72 0.78 0.78 0.80 0.79 0.77 0.81 0.88
0.14 0.14 0.15 0.14 0.13 0.15 0.21 0.29 0.35 0.39 0.42 0.46 0.50 0.54 0.57 0.61 0.62 0.61 0.62 0.66 0.68 0.69 0.73 0.77 0.80 0.81 0.87 0.95 0.85 0.80 0.72 0.73 0.74 0.71 0.66 0.62 0.60 0.62 0.54 0.59 0.63 0.65 0.74
0.09 0.09 0.11 0.12 0.12 0.14 0.19 0.27 0.36 0.43 0.47 0.51 0.52 0.52 0.54 0.61 0.67 0.73 0.79 0.86 0.93 0.94 0.96 0.99 1.00 1.00 0.99 0.97 0.85 0.80 0.69 0.66 0.62 0.56 0.51 0.47 0.44 0.42 0.44 0.46 0.53 0.51 0.50
0.08 0.07 0.08 0.11 0.14 0.16 0.18 0.24 0.34 0.43 0.50 0.55 0.58 0.60 0.65 0.74 0.82 0.91 0.99 1.02 1.08 1.07 1.02 0.99 0.96 0.92 0.87 0.83 0.73 0.63 0.53 0.52 0.49 0.45 0.41 0.40 0.37 0.44 0.51 0.50 0.51 0.42 0.36
0.12 0.09 0.09 0.12 0.17 0.21 0.24 0.31 0.41 0.51 0.58 0.63 0.69 0.73 0.75 0.80 0.84 0.86 0.88 0.87 0.87 0.84 0.79 0.74 0.70 0.67 0.62 0.61 0.55 0.52 0.43 0.39 0.36 0.36 0.37 0.42 0.41 0.48 0.55 0.51 0.46 0.40 0.34
0.23 0.21 0.20 0.22 0.26 0.32 0.40 0.49 0.56 0.67 0.71 0.71 0.76 0.78 0.75 0.76 0.74 0.66 0.60 0.57 0.54 0.50 0.47 0.44 0.42 0.40 0.39 0.40 0.40 0.42 0.39 0.37 0.36 0.34 0.33 0.36 0.47 0.54 0.56 0.49 0.41 0.42 0.46
0.23 0.27 0.31 0.32 0.33 0.41 0.51 0.58 0.64 0.68 0.65 0.59 0.56 0.54 0.47 0.44 0.43 0.38 0.36 0.35 0.34 0.34 0.33 0.30 0.29 0.28 0.26 0.28 0.30 0.33 0.37 0.39 0.36 0.34 0.32 0.36 0.49 0.51 0.49 0.47 0.46 0.51 0.49
0.12 0.16 0.21 0.25 0.25 0.27 0.31 0.34 0.34 0.32 0.31 0.30 0.28 0.28 0.27 0.26 0.26 0.25 0.24 0.24 0.25 0.26 0.25 0.25 0.26 0.25 0.25 0.27 0.31 0.34 0.38 0.42 0.41 0.37 0.39 0.42 0.44 0.43 0.42 0.45 0.50 0.49 0.44
0.10 0.10 0.10 0.12 0.12 0.11 0.12 0.12 0.12 0.13 0.15 0.18 0.19 0.20 0.21 0.20 0.21 0.21 0.19 0.20 0.21 0.22 0.23 0.24 0.24 0.25 0.26 0.27 0.30 0.35 0.38 0.42 0.43 0.41 0.40 0.40 0.38 0.39 0.41 0.43 0.44 0.45 0.46
0.10 0.10 0.11 0.12 0.14 0.13 0.13 0.13 0.14 0.15 0.16 0.18 0.18 0.20 0.21 0.21 0.21 0.22 0.22 0.24 0.25 0.27 0.29 0.28 0.28 0.30 0.31 0.30 0.39 0.44 0.43 0.46 0.49 0.50 0.45 0.42 0.40 0.39 0.38 0.39 0.40 0.42 0.46
0.11 0.11 0.12 0.14 0.17 0.16 0.15 0.14 0.16 0.18 0.19 0.18 0.18 0.19 0.20 0.20 0.21 0.21 0.22 0.26 0.27 0.30 0.31 0.31 0.31 0.30 0.32 0.37 0.42 0.44 0.46 0.50 0.58 0.62 0.51 0.42 0.39 0.39 0.38 0.39 0.42 0.45 0.48

GEFSMW_prec_meanprecacc_216.txt.gz
Total_Precipitation_Accumulation
1.22 1.42 1.72 2.10 2.35 2.61 2.78 2.94 2.97 2.94 2.95 3.06 2.98 2.71 2.44 2.27 2.03 1.94 1.95 1.87 1.78 1.78 1.68 1.48 1.45 1.47 1.35 1.24 1.25 1.27 1.17 1.02 0.90 0.82 0.67 0.58 0.53 0.48 0.37 0.31 0.29 0.28 0.29
0.98 1.13 1.40 1.71 2.00 2.27 2.60 2.81 2.95 3.05 2.88 2.71 2.77 2.73 2.58 2.38 2.21 2.10 2.08 1.94 1.83 1.77 1.77 1.73 1.64 1.64 1.58 1.49 1.38 1.38 1.38 1.28 1.17 1.05 0.95 0.73 0.58 0.46 0.39 0.34 0.31 0.29 0.29
0.83 0.96 1.15 1.36 1.65 1.93 2.23 2.51 2.73 2.93 3.02 2.90 2.94 2.85 2.71 2.44 2.17 1.97 1.94 1.94 1.89 1.83 1.75 1.79 1.80 1.78 1.73 1.63 1.54 1.46 1.43 1.42 1.35 1.25 1.24 0.97 0.68 0.50 0.44 0.39 0.35 0.33 0.33
0.74 0.86 1.01 1.18 1.37 1.66 1.89 2.12 2.46 2.72 2.87 2.97 2.86 2.69 2.49 2.22 1.94 1.91 2.00 2.01 1.94 1.86 1.80 1.77 1.78 1.81 1.77 1.68 1.70 1.68 1.51 1.49 1.48 1.41 1.25 1.05 0.84 0.75 0.60 0.48 0.44 0.41 0.37
0.70 0.78 0.90 1.05 1.21 1.45 1.69 1.84 2.07 2.39 2.52 2.48 2.49 2.51 2.37 2.17 2.05 1.98 1.95 1.93 1.84 1.78 1.72 1.70 1.72 1.70 1.71 1.68 1.71 1.76 1.72 1.61 1.54 1.49 1.42 1.34 1.14 0.97 0.89 0.71 0.57 0.54 0.49
0.74 0.81 0.89 0.98 1.07 1.20 1.42 1.61 1.67 1.89 2.11 2.11 2.15 2.24 2.13 2.02 1.93 1.82 1.78 1.80 1.75 1.65 1.60 1.57 1.57 1.60 1.60 1.59 1.63 1.72 1.79 1.76 1.62 1.49 1.39 1.34 1.25 1.10 1.06 0.94 0.74 0.66 0.57
0.86 0.93 0.93 1.01 1.07 1.13 1.16 1.35 1.45 1.53 1.71 1.90 1.96 1.97 2.01 1.94 1.84 1.72 1.66 1.66 1.63 1.54 1.49 1.47 1.49 1.53 1.54 1.58 1.68 1.72 1.73 1.76 1.71 1.63 1.53 1.43 1.31 1.22 1.21 1.17 0.98 0.83 0.68
0.99 1.02 1.02 1.15 1.20 1.22 1.20 1.23 1.29 1.27 1.37 1.58 1.75 1.78 1.85 1.81 1.69 1.57 1.47 1.43 1.40 1.38 1.40 1.46 1.50 1.54 1.56 1.56 1.58 1.58 1.57 1.63 1.63 1.59 1.53 1.44 1.34 1.34 1.35 1.33 1.36 1.26 1.01
1.03 1.10 1.14 1.18 1.16 1.14 1.20 1.21 1.26 1.22 1.14 1.22 1.35 1.47 1.57 1.58 1.50 1.39 1.29 1.26 1.26 1.27 1.29 1.37 1.42 1.44 1.45 1.45 1.47 1.44 1.41 1.45 1.50 1.51 1.49 1.42 1.29 1.27 1.29 1.30 1.37 1.48 1.32
0.89 0.99 1.00 0.99 1.04 1.08 1.12 1.19 1.24 1.27 1.17 1.13 1.18 1.27 1.29 1.30 1.27 1.24 1.16 1.08 1.07 1.06 1.09 1.17 1.25 1.26 1.25 1.25 1.29 1.30 1.27 1.30 1.29 1.31 1.38 1.38 1.29 1.24 1.23 1.27 1.31 1.40 1.44
0.69 0.73 0.74 0.79 0.87 0.94 1.05 1.16 1.26 1.26 1.14 1.15 1.17 1.16 1.16 1.22 1.18 1.11 1.08 1.06 1.00 0.97 1.00 1.03 1.08 1.10 1.10 1.11 1.12 1.11 1.12 1.15 1.15 1.14 1.17 1.19 1.21 1.25 1.24 1.25 1.29 1.33 1.40
0.61 0.59 0.58 0.59 0.61 0.68 0.78 0.88 1.00 1.02 1.01 1.03 1.10 1.06 1.05 1.14 1.15 1.09 1.03 0.99 0.95 0.86 0.85 0.87 0.91 0.92 0.91 0.92 0.95 0.96 0.97 0.99 1.01 1.00 1.04 1.05 1.07 1.11 1.14 1.20 1.26 1.29 1.31
0.48 0.44 0.44 0.46 0.46 0.49 0.57 0.69 0.79 0.84 0.90 0.93 0.95 0.95 0.94 0.99 1.01 1.03 1.02 0.97 0.94 0.87 0.79 0.76 0.77 0.78 0.79 0.79 0.80 0.82 0.83 0.86 0.89 0.90 0.91 0.93 0.98 1.02 1.03 1.06 1.10 1.11 1.13
0.37 0.33 0.31 0.32 0.33 0.37 0.47 0.55 0.60 0.67 0.75 0.78 0.78 0.78 0.81 0.82 0.81 0.82 0.84 0.83 0.83 0.80 0.76 0.71 0.67 0.67 0.71 0.74 0.76 0.76 0.77 0.78 0.81 0.84 0.88 0.90 0.92 0.92 0.92 0.96 0.97 0.97 0.99
0.25 0.23 0.22 0.23 0.24 0.26 0.32 0.41 0.50 0.57 0.67 0.74 0.76 0.75 0.74 0.73 0.72 0.70 0.68 0.66 0.68 0.69 0.68 0.66 0.65 0.63 0.63 0.67 0.71 0.73 0.75 0.77 0.79 0.80 0.83 0.89 0.97 0.98 0.94 0.90 0.89 0.89 0.93
0.19 0.17 0.16 0.16 0.19 0.21 0.24 0.30 0.41 0.49 0.55 0.64 0.69 0.70 0.71 0.70 0.68 0.65 0.63 0.59 0.60 0.63 0.66 0.67 0.69 0.70 0.73 0.88 0.84 0.77 0.78 0.81 0.80 0.78 0.76 0.77 0.83 0.83 0.84 0.83 0.81 0.84 0.91
0.15 0.14 0.15 0.15 0.14 0.15 0.22 0.29 0.37 0.41 0.44 0.49 0.54 0.57 0.60 0.64 0.65 0.65 0.66 0.70 0.72 0.73 0.77 0.81 0.83 0.84 0.89 0.99 0.90 0.85 0.77 0.77 0.78 0.75 0.70 0.66 0.64 0.66 0.58 0.63 0.66 0.68 0.77
0.09 0.09 0.12 0.12 0.12 0.14 0.19 0.28 0.38 0.45 0.49 0.54 0.55 0.55 0.57 0.64 0.70 0.77 0.83 0.90 0.96 0.97 1.00 1.03 1.04 1.04 1.03 1.02 0.90 0.86 0.74 0.71 0.67 0.60 0.55 0.51 0.47 0.46 0.47 0.49 0.56 0.54 0.53
0.09 0.08 0.09 0.11 0.14 0.17 0.18 0.24 0.36 0.46 0.52 0.58 0.61 0.63 0.68 0.77 0.85 0.95 1.03 1.06 1.12 1.11 1.07 1.03 1.00 0.97 0.92 0.90 0.79 0.70 0.58 0.57 0.54 0.48 0.45 0.45 0.41 0.47 0.54 0.52 0.53 0.44 0.38
0.14 0.10 0.10 0.12 0.17 0.21 0.25 0.32 0.43 0.54 0.61 0.66 0.72 0.76 0.78 0.84 0.88 0.90 0.92 0.91 0.91 0.89 0.84 0.79 0.75 0.72 0.67 0.66 0.61 0.57 0.48 0.44 0.40 0.39 0.40 0.45 0.44 0.51 0.58 0.52 0.48 0.41 0.35
0.25 0.23 0.22 0.24 0.27 0.33 0.41 0.50 0.58 0.70 0.75 0.75 0.80 0.81 0.79 0.80 0.78 0.70 0.64 0.61 0.58 0.54 0.51 0.49 0.47 0.44 0.43 0.44 0.44 0.46 0.43 0.41 0.39 0.36 0.35 0.38 0.49 0.56 0.58 0.51 0.42 0.44 0.48
0.26 0.30 0.34 0.35 0.35 0.42 0.52 0.60 0.67 0.71 0.69 0.63 0.60 0.58 0.51 0.48 0.46 0.42 0.40 0.38 0.38 0.38 0.36 0.34 0.33 0.30 0.29 0.31 0.33 0.36 0.40 0.42 0.39 0.37 0.35 0.38 0.51 0.53 0.51 0.48 0.47 0.52 0.51
0.15 0.19 0.25 0.29 0.28 0.28 0.32 0.36 0.36 0.35 0.34 0.32 0.31 0.32 0.31 0.31 0.30 0.29 0.28 0.28 0.29 0.29 0.29 0.28 0.28 0.28 0.27 0.29 0.33 0.36 0.40 0.44 0.43 0.39 0.41 0.45 0.47 0.45 0.44 0.47 0.52 0.51 0.46
0.12 0.13 0.14 0.16 0.16 0.14 0.14 0.14 0.14 0.15 0.17 0.20 0.22 0.24 0.25 0.25 0.26 0.26 0.24 0.24 0.25 0.26 0.26 0.27 0.27 0.27 0.28 0.28 0.31 0.36 0.40 0.44 0.45 0.43 0.43 0.42 0.41 0.41 0.42 0.44 0.46 0.46 0.47
0.12 0.13 0.15 0.16 0.18 0.17 0.17 0.16 0.17 0.18 0.20 0.22 0.23 0.25 0.26 0.26 0.26 0.27 0.27 0.28 0.29 0.31 0.32 0.31 0.30 0.32 0.32 0.32 0.40 0.45 0.45 0.47 0.50 0.53 0.48 0.45 0.43 0.42 0.40 0.41 0.42 0.44 0.48
0.14 0.15 0.17 0.18 0.20 0.19 0.18 0.18 0.19 0.21 0.23 0.23 0.23 0.24 0.25 0.25 0.25 0.26 0.27 0.31 0.32 0.34 0.35 0.33 0.33 0.32 0.34 0.38 0.44 0.46 0.47 0.52 0.60 0.64 0.53 0.45 0.42 0.42 0.41 0.41 0.44 0.46 0.50

GEFSMW_prec_meanprecacc_222.txt.gz
Total_Precipitation_Accumulation
1.22 1.42 1.73 2.12 2.36 2.63 2.82 2.97 2.99 2.95 2.96 3.09 3.01 2.73 2.45 2.28 2.04 1.96 1.97 1.90 1.83 1.84 1.74 1.53 1.50 1.54 1.43 1.33 1.35 1.37 1.26 1.12 1.02 0.94 0.77 0.68 0.66 0.62 0.48 0.38 0.36 0.34 0.33
0.98 1.13 1.40 1.71 2.01 2.29 2.65 2.84 2.96 3.06 2.89 2.72 2.79 2.75 2.60 2.41 2.23 2.13 2.12 1.97 1.86 1.81 1.82 1.79 1.70 1.71 1.66 1.55 1.45 1.46 1.49 1.39 1.29 1.18 1.07 0.85 0.71 0.60 0.52 0.43 0.39 0.36 0.35
0.83 0.96 1.15 1.36 1.65 1.95 2.28 2.56 2.75 2.95 3.03 2.92 2.95 2.86 2.73 2.46 2.19 2.00 1.98 1.99 1.93 1.87 1.80 1.83 1.86 1.84 1.81 1.70 1.60 1.52 1.49 1.50 1.44 1.36 1.37 1.08 0.78 0.61 0.54 0.48 0.42 0.39 0.39
0.74 0.86 1.02 1.18 1.38 1.68 1.92 2.18 2.49 2.73 2.90 3.00 2.87 2.71 2.50 2.23 1.96 1.94 2.04 2.07 2.00 1.90 1.85 1.83 1.83 1.86 1.82 1.74 1.76 1.74 1.56 1.54 1.55 1.50 1.37 1.16 0.91 0.81 0.67 0.56 0.51 0.46 0.42
0.70 0.78 0.91 1.05 1.22 1.46 1.70 1.86 2.11 2.43 2.56 2.53 2.52 2.53 2.38 2.19 2.08 2.03 2.01 2.00 1.91 1.83 1.77 1.75 1.78 1.76 1.77 1.74 1.77 1.80 1.77 1.66 1.60 1.55 1.49 1.43 1.22 1.02 0.94 0.77 0.64 0.60 0.53
0.74 0.81 0.89 0.98 1.07 1.20 1.43 1.63 1.70 1.92 2.14 2.16 2.21 2.28 2.17 2.05 1.96 1.87 1.84 1.87 1.81 1.70 1.65 1.62 1.62 1.66 1.67 1.66 1.70 1.79 1.84 1.82 1.68 1.55 1.44 1.40 1.32 1.16 1.11 0.98 0.78 0.71 0.61
0.86 0.93 0.93 1.01 1.07 1.13 1.17 1.36 1.47 1.55 1.74 1.92 1.99 2.00 2.05 1.99 1.90 1.76 1.69 1.72 1.69 1.59 1.53 1.52 1.53 1.58 1.60 1.65 1.75 1.80 1.80 1.82 1.77 1.68 1.56 1.47 1.35 1.27 1.26 1.22 1.02 0.86 0.71
0.99 1.03 1.03 1.15 1.21 1.22 1.20 1.23 1.30 1.28 1.38 1.60 1.76 1.80 1.89 1.86 1.73 1.60 1.50 1.46 1.44 1.42 1.44 1.51 1.54 1.58 1.61 1.62 1.65 1.66 1.65 1.70 1.69 1.64 1.56 1.47 1.37 1.38 1.39 1.37 1.40 1.29 1.03
1.04 1.11 1.14 1.18 1.16 1.14 1.20 1.22 1.26 1.22 1.14 1.22 1.36 1.48 1.59 1.61 1.53 1.43 1.32 1.28 1.28 1.29 1.32 1.40 1.46 1.47 1.49 1.50 1.53 1.52 1.49 1.53 1.57 1.57 1.54 1.46 1.33 1.30 1.32 1.34 1.41 1.51 1.35
0.90 1.01 1.01 1.00 1.05 1.08 1.12 1.19 1.24 1.27 1.18 1.13 1.18 1.27 1.30 1.32 1.30 1.27 1.21 1.11 1.09 1.09 1.11 1.19 1.27 1.28 1.27 1.29 1.35 1.37 1.35 1.38 1.36 1.37 1.43 1.43 1.34 1.28 1.27 1.30 1.35 1.42 1.47
0.71 0.75 0.75 0.80 0.87 0.94 1.05 1.16 1.27 1.26 1.15 1.15 1.17 1.16 1.17 1.23 1.19 1.13 1.10 1.10 1.03 0.98 1.02 1.04 1.10 1.13 1.12 1.13 1.16 1.16 1.18 1.23 1.22 1.21 1.23 1.25 1.27 1.31 1.29 1.28 1.33 1.37 1.42
0.62 0.60 0.59 0.59 0.62 0.68 0.78 0.89 1.01 1.02 1.01 1.03 1.10 1.06 1.06 1.15 1.16 1.09 1.03 1.00 0.96 0.87 0.87 0.90 0.93 0.95 0.94 0.94 0.97 1.01 1.02 1.05 1.08 1.07 1.10 1.11 1.13 1.18 1.21 1.25 1.30 1.33 1.33
0.49 0.45 0.44 0.47 0.47 0.50 0.58 0.70 0.80 0.84 0.91 0.94 0.96 0.95 0.94 0.99 1.01 1.03 1.02 0.97 0.95 0.89 0.81 0.78 0.80 0.81 0.82 0.82 0.82 0.85 0.87 0.90 0.95 0.97 0.98 0.99 1.04 1.10 1.11 1.13 1.15 1.15 1.15
0.39 0.34 0.32 0.33 0.33 0.37 0.47 0.55 0.61 0.67 0.76 0.79 0.79 0.78 0.82 0.82 0.81 0.83 0.84 0.84 0.84 0.82 0.78 0.73 0.69 0.69 0.72 0.76 0.78 0.79 0.80 0.82 0.86 0.91 0.96 0.97 0.97 0.98 1.00 1.04 1.05 1.02 1.02
0.27 0.24 0.23 0.23 0.25 0.27 0.33 0.42 0.51 0.58 0.67 0.75 0.77 0.75 0.74 0.73 0.72 0.71 0.68 0.66 0.68 0.70 0.70 0.68 0.67 0.64 0.65 0.69 0.73 0.76 0.78 0.80 0.83 0.84 0.88 0.95 1.04 1.05 1.01 0.97 0.95 0.95 0.99
0.20 0.18 0.17 0.17 0.19 0.21 0.24 0.31 0.41 0.49 0.56 0.65 0.70 0.70 0.71 0.70 0.68 0.65 0.63 0.60 0.60 0.64 0.67 0.69 0.71 0.72 0.75 0.90 0.87 0.80 0.80 0.84 0.84 0.81 0.79 0.80 0.88 0.89 0.91 0.90 0.87 0.90 0.97
0.16 0.16 0.16 0.16 0.15 0.16 0.22 0.30 0.37 0.41 0.44 0.50 0.55 0.58 0.61 0.65 0.66 0.65 0.67 0.70 0.73 0.74 0.79 0.83 0.86 0.87 0.92 1.03 0.93 0.89 0.80 0.82 0.83 0.79 0.74 0.69 0.67 0.70 0.64 0.69 0.73 0.75 0.83
0.11 0.11 0.13 0.13 0.13 0.15 0.19 0.28 0.38 0.45 0.49 0.54 0.56 0.56 0.58 0.64 0.71 0.78 0.84 0.91 0.97 0.99 1.02 1.06 1.07 1.07 1.06 1.05 0.94 0.91 0.78 0.75 0.72 0.66 0.59 0.55 0.51 0.49 0.51 0.54 0.62 0.60 0.59
0.10 0.09 0.10 0.13 0.15 0.17 0.19 0.25 0.36 0.46 0.52 0.59 0.62 0.64 0.69 0.78 0.86 0.95 1.04 1.07 1.13 1.12 1.09 1.06 1.04 1.00 0.96 0.93 0.83 0.74 0.63 0.61 0.59 0.54 0.50 0.49 0.45 0.52 0.58 0.56 0.57 0.48 0.42
0.15 0.12 0.11 0.14 0.19 0.22 0.26 0.32 0.43 0.54 0.62 0.67 0.73 0.77 0.80 0.85 0.89 0.91 0.93 0.93 0.93 0.90 0.85 0.82 0.78 0.75 0.70 0.69 0.64 0.60 0.52 0.48 0.45 0.44 0.44 0.50 0.48 0.55 0.61 0.55 0.51 0.45 0.38
0.27 0.24 0.23 0.25 0.29 0.35 0.42 0.51 0.60 0.71 0.76 0.77 0.81 0.83 0.80 0.81 0.78 0.71 0.65 0.63 0.60 0.56 0.53 0.51 0.50 0.48 0.47 0.48 0.47 0.49 0.45 0.44 0.43 0.40 0.40 0.42 0.53 0.59 0.61 0.54 0.45 0.47 0.51
0.28 0.32 0.36 0.36 0.37 0.44 0.54 0.62 0.69 0.73 0.70 0.64 0.62 0.59 0.53 0.49 0.47 0.44 0.42 0.41 0.40 0.40 0.39 0.37 0.36 0.35 0.34 0.35 0.37 0.40 0.44 0.45 0.42 0.40 0.38 0.42 0.55 0.56 0.54 0.51 0.50 0.55 0.54
0.17 0.22 0.28 0.32 0.31 0.31 0.35 0.38 0.38 0.37 0.36 0.35 0.34 0.34 0.33 0.33 0.32 0.31 0.31 0.32 0.32 0.33 0.32 0.32 0.33 0.33 0.32 0.34 0.38 0.40 0.44 0.48 0.45 0.42 0.45 0.48 0.51 0.49 0.47 0.50 0.54 0.53 0.47
0.15 0.16 0.17 0.20 0.20 0.18 0.18 0.17 0.17 0.17 0.20 0.23 0.25 0.27 0.29 0.30 0.31 0.31 0.29 0.30 0.31 0.31 0.31 0.31 0.31 0.32 0.33 0.33 0.35 0.40 0.43 0.48 0.48 0.47 0.47 0.45 0.44 0.44 0.45 0.47 0.48 0.48 0.48
0.14 0.16 0.19 0.21 0.23 0.21 0.20 0.19 0.20 0.21 0.23 0.26 0.26 0.29 0.30 0.30 0.31 0.32 0.32 0.33 0.34 0.35 0.37 0.35 0.34 0.36 0.36 0.35 0.43 0.48 0.48 0.50 0.53 0.57 0.52 0.48 0.46 0.44 0.43 0.43 0.44 0.45 0.49
0.16 0.17 0.19 0.22 0.25 0.23 0.22 0.21 0.22 0.24 0.26 0.27 0.27 0.28 0.29 0.29 0.29 0.30 0.31 0.35 0.36 0.38 0.38 0.37 0.37 0.36 0.38 0.42 0.48 0.49 0.50 0.55 0.63 0.67 0.56 0.48 0.44 0.44 0.43 0.44 0.46 0.48 0.51

GEFSMW_prec_meanprecacc_228.txt.gz
Total_Precipitation_Accumulation
1.22 1.42 1.73 2.13 2.37 2.64 2.83 2.99 3.03 2.99 3.00 3.12 3.04 2.77 2.48 2.31 2.07 1.98 2.00 1.96 1.90 1.90 1.79 1.58 1.54 1.58 1.47 1.38 1.41 1.42 1.32 1.17 1.07 1.00 0.84 0.75 0.73 0.68 0.53 0.43 0.41 0.42 0.44
0.98 1.13 1.40 1.71 2.01 2.29 2.66 2.85 2.98 3.09 2.92 2.74 2.81 2.77 2.62 2.43 2.26 2.15 2.14 2.00 1.91 1.87 1.88 1.85 1.75 1.75 1.71 1.61 1.52 1.54 1.55 1.45 1.35 1.26 1.16 0.94 0.80 0.67 0.57 0.48 0.44 0.45 0.48
0.83 0.96 1.15 1.36 1.66 1.96 2.31 2.58 2.76 2.97 3.05 2.94 2.98 2.90 2.76 2.48 2.22 2.02 2.00 2.01 1.96 1.91 1.85 1.90 1.92 1.90 1.86 1.75 1.66 1.60 1.57 1.57 1.50 1.43 1.45 1.16 0.87 0.68 0.61 0.53 0.48 0.46 0.47
0.74 0.86 1.02 1.18 1.38 1.69 1.95 2.20 2.51 2.75 2.92 3.03 2.91 2.73 2.52 2.24 1.97 1.95 2.06 2.08 2.02 1.93 1.90 1.88 1.89 1.92 1.87 1.78 1.80 1.79 1.63 1.63 1.63 1.57 1.43 1.22 0.96 0.86 0.72 0.61 0.57 0.52 0.48
0.70 0.78 0.91 1.05 1.22 1.47 1.72 1.89 2.14 2.44 2.58 2.55 2.55 2.56 2.41 2.21 2.09 2.04 2.03 2.01 1.93 1.86 1.81 1.81 1.83 1.82 1.83 1.79 1.81 1.84 1.82 1.72 1.67 1.62 1.55 1.47 1.25 1.06 0.98 0.81 0.68 0.65 0.58
0.74 0.81 0.89 0.99 1.07 1.20 1.43 1.64 1.73 1.95 2.16 2.18 2.23 2.31 2.19 2.07 1.99 1.90 1.87 1.90 1.83 1.73 1.69 1.66 1.67 1.72 1.72 1.71 1.75 1.84 1.89 1.85 1.72 1.60 1.49 1.45 1.37 1.20 1.15 1.02 0.81 0.75 0.65
0.87 0.94 0.94 1.02 1.07 1.13 1.17 1.37 1.49 1.58 1.76 1.94 2.01 2.01 2.05 2.00 1.92 1.78 1.71 1.76 1.73 1.60 1.56 1.56 1.57 1.63 1.65 1.70 1.81 1.87 1.87 1.89 1.84 1.74 1.62 1.52 1.40 1.31 1.30 1.27 1.07 0.90 0.75
1.00 1.04 1.04 1.16 1.21 1.23 1.20 1.24 1.31 1.30 1.39 1.61 1.78 1.80 1.89 1.87 1.75 1.61 1.52 1.49 1.47 1.45 1.47 1.55 1.59 1.63 1.67 1.67 1.71 1.73 1.74 1.79 1.78 1.72 1.63 1.53 1.41 1.42 1.43 1.40 1.43 1.33 1.06
1.05 1.13 1.17 1.21 1.18 1.16 1.21 1.22 1.27 1.23 1.16 1.24 1.37 1.49 1.60 1.63 1.55 1.44 1.34 1.30 1.32 1.32 1.35 1.43 1.51 1.52 1.55 1.57 1.59 1.58 1.56 1.61 1.65 1.65 1.60 1.52 1.38 1.34 1.34 1.36 1.44 1.54 1.38
0.93 1.03 1.05 1.04 1.09 1.11 1.15 1.21 1.25 1.28 1.18 1.14 1.20 1.29 1.32 1.34 1.31 1.29 1.22 1.13 1.10 1.11 1.14 1.22 1.31 1.34 1.33 1.35 1.41 1.43 1.41 1.45 1.43 1.44 1.50 1.48 1.38 1.31 1.29 1.32 1.38 1.45 1.49
0.75 0.79 0.81 0.86 0.93 0.98 1.09 1.18 1.28 1.27 1.15 1.16 1.18 1.17 1.19 1.25 1.20 1.14 1.12 1.11 1.04 1.00 1.04 1.07 1.13 1.17 1.18 1.19 1.22 1.22 1.25 1.31 1.31 1.29 1.30 1.31 1.31 1.34 1.32 1.32 1.36 1.40 1.45
0.66 0.65 0.64 0.64 0.66 0.72 0.81 0.91 1.02 1.04 1.02 1.04 1.11 1.06 1.06 1.17 1.18 1.10 1.05 1.03 0.99 0.89 0.89 0.92 0.96 0.97 0.97 0.98 1.03 1.06 1.09 1.13 1.16 1.15 1.18 1.18 1.19 1.23 1.25 1.30 1.34 1.36 1.36
0.52 0.49 0.49 0.51 0.50 0.52 0.60 0.71 0.81 0.86 0.92 0.95 0.97 0.96 0.95 1.00 1.02 1.05 1.04 0.99 0.99 0.92 0.83 0.80 0.82 0.83 0.84 0.84 0.86 0.88 0.91 0.95 1.00 1.04 1.05 1.07 1.12 1.17 1.17 1.19 1.19 1.19 1.20
0.41 0.37 0.35 0.36 0.36 0.39 0.49 0.56 0.62 0.69 0.77 0.80 0.80 0.79 0.83 0.83 0.82 0.84 0.85 0.85 0.85 0.83 0.79 0.74 0.71 0.71 0.75 0.78 0.80 0.81 0.82 0.85 0.89 0.95 1.00 1.02 1.04 1.05 1.06 1.10 1.10 1.08 1.08
0.29 0.26 0.25 0.26 0.27 0.28 0.34 0.43 0.52 0.60 0.69 0.76 0.78 0.76 0.75 0.74 0.73 0.72 0.69 0.67 0.70 0.72 0.71 0.69 0.68 0.65 0.67 0.71 0.75 0.78 0.80 0.82 0.85 0.87 0.91 0.98 1.09 1.11 1.06 1.03 1.02 1.03 1.07
0.23 0.20 0.19 0.19 0.21 0.22 0.25 0.32 0.42 0.51 0.58 0.67 0.72 0.72 0.72 0.71 0.69 0.66 0.64 0.62 0.62 0.65 0.69 0.70 0.71 0.72 0.75 0.92 0.89 0.82 0.83 0.87 0.86 0.84 0.82 0.84 0.92 0.94 0.96 0.95 0.92 0.96 1.05
0.19 0.18 0.18 0.17 0.16 0.18 0.23 0.30 0.37 0.42 0.45 0.51 0.57 0.60 0.63 0.66 0.66 0.66 0.68 0.72 0.74 0.75 0.80 0.84 0.87 0.87 0.93 1.04 0.95 0.91 0.82 0.83 0.86 0.83 0.77 0.72 0.70 0.74 0.68 0.74 0.78 0.80 0.89
0.13 0.13 0.15 0.15 0.14 0.16 0.21 0.29 0.39 0.45 0.49 0.55 0.57 0.57 0.59 0.66 0.71 0.78 0.85 0.93 0.98 1.00 1.03 1.07 1.08 1.08 1.07 1.06 0.95 0.92 0.80 0.76 0.74 0.69 0.62 0.58 0.53 0.52 0.55 0.58 0.66 0.64 0.63
0.13 0.12 0.13 0.15 0.17 0.19 0.20 0.26 0.37 0.46 0.53 0.59 0.63 0.65 0.70 0.80 0.87 0.97 1.05 1.08 1.14 1.14 1.10 1.07 1.05 1.01 0.97 0.95 0.84 0.76 0.65 0.63 0.60 0.56 0.52 0.51 0.47 0.55 0.61 0.59 0.61 0.51 0.46
0.18 0.14 0.13 0.15 0.20 0.24 0.27 0.34 0.45 0.55 0.62 0.68 0.74 0.78 0.81 0.87 0.91 0.93 0.95 0.95 0.94 0.91 0.86 0.83 0.80 0.77 0.72 0.71 0.66 0.62 0.54 0.51 0.47 0.45 0.46 0.52 0.51 0.58 0.64 0.58 0.54 0.47 0.41
0.29 0.27 0.26 0.27 0.31 0.37 0.44 0.53 0.61 0.73 0.78 0.78 0.83 0.85 0.82 0.83 0.81 0.73 0.67 0.65 0.62 0.57 0.54 0.53 0.52 0.51 0.49 0.50 0.50 0.52 0.49 0.47 0.46 0.43 0.42 0.44 0.56 0.61 0.64 0.57 0.47 0.50 0.53
0.30 0.34 0.38 0.39 0.40 0.46 0.57 0.65 0.72 0.76 0.73 0.67 0.65 0.62 0.56 0.53 0.50 0.47 0.45 0.44 0.43 0.43 0.41 0.39 0.38 0.37 0.37 0.38 0.40 0.43 0.47 0.49 0.46 0.44 0.41 0.44 0.58 0.59 0.57 0.54 0.53 0.58 0.57
0.20 0.24 0.30 0.34 0.33 0.34 0.39 0.42 0.42 0.40 0.39 0.37 0.36 0.36 0.36 0.36 0.36 0.35 0.35 0.35 0.36 0.36 0.36 0.36 0.36 0.36 0.34 0.37 0.42 0.44 0.48 0.52 0.48 0.45 0.48 0.51 0.54 0.53 0.51 0.53 0.57 0.55 0.49
0.17 0.18 0.20 0.22 0.23 0.21 0.21 0.21 0.20 0.21 0.23 0.26 0.27 0.29 0.31 0.32 0.34 0.34 0.33 0.33 0.34 0.34 0.35 0.35 0.35 0.36 0.37 0.36 0.39 0.43 0.46 0.51 0.52 0.51 0.50 0.47 0.45 0.47 0.48 0.50 0.51 0.50 0.50
0.16 0.18 0.22 0.24 0.26 0.24 0.23 0.23 0.24 0.25 0.27 0.29 0.29 0.31 0.32 0.32 0.33 0.34 0.35 0.36 0.37 0.40 0.41 0.39 0.38 0.40 0.40 0.38 0.46 0.51 0.50 0.52 0.56 0.59 0.54 0.50 0.47 0.46 0.44 0.45 0.46 0.48 0.52
0.17 0.19 0.21 0.25 0.28 0.27 0.26 0.26 0.27 0.29 0.30 0.30 0.30 0.30 0.31 0.31 0.31 0.31 0.33 0.38 0.40 0.42 0.42 0.41 0.41 0.39 0.41 0.45 0.50 0.51 0.53 0.57 0.65 0.69 0.58 0.49 0.46 0.46 0.44 0.45 0.48 0.50 0.53

GEFSMW_prec_meanprecacc_234.txt.gz
Total_Precipitation_Accumulation
1.22 1.42 1.74 2.14 2.38 2.65 2.85 3.02 3.08 3.03 3.03 3.15 3.08 2.82 2.54 2.36 2.11 2.00 2.01 1.97 1.90 1.90 1.80 1.60 1.57 1.60 1.51 1.41 1.45 1.46 1.35 1.21 1.11 1.05 0.90 0.83 0.80 0.73 0.55 0.44 0.43 0.45 0.48
0.98 1.13 1.40 1.72 2.02 2.30 2.67 2.87 3.02 3.15 2.97 2.78 2.84 2.81 2.67 2.47 2.29 2.18 2.16 2.01 1.92 1.88 1.89 1.86 1.77 1.77 1.74 1.65 1.56 1.57 1.59 1.48 1.39 1.29 1.20 1.01 0.88 0.73 0.60 0.50 0.46 0.48 0.53
0.83 0.96 1.15 1.37 1.66 1.96 2.31 2.59 2.78 3.00 3.08 2.98 3.01 2.93 2.79 2.52 2.26 2.06 2.03 2.03 1.98 1.93 1.86 1.91 1.94 1.92 1.89 1.78 1.70 1.64 1.60 1.61 1.54 1.47 1.50 1.21 0.92 0.73 0.65 0.56 0.51 0.50 0.52
0.74 0.86 1.02 1.18 1.38 1.69 1.96 2.21 2.52 2.77 2.95 3.07 2.94 2.77 2.54 2.27 2.01 1.99 2.10 2.12 2.05 1.96 1.93 1.91 1.92 1.95 1.91 1.83 1.83 1.83 1.67 1.67 1.67 1.62 1.49 1.27 1.00 0.90 0.77 0.66 0.61 0.56 0.53
0.71 0.78 0.91 1.06 1.23 1.48 1.73 1.89 2.15 2.46 2.60 2.58 2.59 2.60 2.44 2.24 2.12 2.08 2.07 2.06 1.96 1.89 1.84 1.84 1.87 1.86 1.88 1.85 1.86 1.88 1.85 1.76 1.71 1.66 1.60 1.52 1.31 1.10 1.02 0.86 0.73 0.70 0.63
0.75 0.82 0.90 1.00 1.09 1.22 1.45 1.66 1.74 1.97 2.19 2.20 2.26 2.34 2.22 2.10 2.03 1.93 1.91 1.94 1.87 1.75 1.71 1.69 1.69 1.76 1.79 1.79 1.82 1.89 1.94 1.90 1.77 1.65 1.55 1.50 1.41 1.24 1.18 1.05 0.85 0.80 0.70
0.88 0.95 0.95 1.04 1.09 1.15 1.19 1.39 1.52 1.60 1.79 1.97 2.05 2.05 2.10 2.03 1.95 1.82 1.74 1.79 1.77 1.63 1.58 1.58 1.59 1.65 1.68 1.74 1.86 1.92 1.93 1.95 1.90 1.81 1.69 1.58 1.45 1.35 1.34 1.30 1.10 0.95 0.79
1.01 1.06 1.06 1.18 1.23 1.24 1.22 1.27 1.34 1.33 1.41 1.63 1.81 1.85 1.95 1.91 1.77 1.64 1.55 1.52 1.51 1.48 1.49 1.57 1.61 1.64 1.68 1.69 1.73 1.77 1.77 1.84 1.85 1.81 1.72 1.62 1.49 1.47 1.47 1.44 1.47 1.36 1.10
1.06 1.15 1.19 1.23 1.20 1.18 1.23 1.25 1.30 1.26 1.18 1.25 1.39 1.51 1.64 1.68 1.58 1.47 1.37 1.34 1.36 1.36 1.38 1.45 1.52 1.53 1.56 1.58 1.61 1.60 1.58 1.64 1.70 1.71 1.68 1.59 1.45 1.41 1.40 1.41 1.48 1.58 1.42
0.94 1.05 1.07 1.06 1.10 1.13 1.17 1.23 1.27 1.31 1.20 1.16 1.21 1.30 1.33 1.36 1.35 1.32 1.26 1.16 1.14 1.15 1.17 1.24 1.32 1.35 1.34 1.36 1.42 1.45 1.43 1.48 1.47 1.48 1.54 1.52 1.43 1.36 1.34 1.36 1.41 1.48 1.52
0.78 0.82 0.84 0.89 0.95 1.00 1.10 1.20 1.30 1.30 1.18 1.17 1.19 1.18 1.20 1.26 1.22 1.16 1.15 1.14 1.06 1.03 1.08 1.09 1.15 1.18 1.19 1.20 1.23 1.23 1.27 1.34 1.34 1.33 1.35 1.35 1.36 1.39 1.36 1.35 1.39 1.43 1.48
0.72 0.70 0.69 0.68 0.69 0.74 0.83 0.93 1.05 1.06 1.05 1.06 1.13 1.07 1.08 1.19 1.20 1.12 1.07 1.05 1.01 0.91 0.91 0.95 0.99 0.99 0.99 1.00 1.05 1.08 1.11 1.15 1.20 1.20 1.23 1.23 1.24 1.27 1.29 1.34 1.37 1.39 1.39
0.57 0.55 0.55 0.58 0.56 0.57 0.64 0.75 0.84 0.89 0.95 0.98 1.00 0.97 0.96 1.01 1.04 1.07 1.06 1.01 1.00 0.93 0.84 0.82 0.86 0.87 0.86 0.87 0.88 0.90 0.93 0.98 1.03 1.08 1.11 1.12 1.17 1.22 1.22 1.24 1.24 1.23 1.23
0.45 0.42 0.41 0.42 0.42 0.45 0.55 0.62 0.66 0.73 0.81 0.85 0.84 0.81 0.83 0.84 0.84 0.86 0.88 0.88 0.87 0.84 0.81 0.76 0.73 0.75 0.79 0.82 0.84 0.84 0.84 0.87 0.93 0.99 1.05 1.07 1.09 1.10 1.12 1.16 1.16 1.12 1.12
0.32 0.30 0.30 0.31 0.32 0.34 0.39 0.48 0.57 0.64 0.73 0.80 0.82 0.79 0.76 0.76 0.75 0.74 0.72 0.70 0.72 0.74 0.74 0.72 0.70 0.68 0.70 0.75 0.79 0.81 0.83 0.84 0.88 0.90 0.94 1.02 1.13 1.16 1.12 1.09 1.08 1.08 1.12
0.26 0.23 0.22 0.23 0.25 0.28 0.30 0.35 0.46 0.55 0.62 0.71 0.76 0.75 0.75 0.73 0.71 0.68 0.66 0.64 0.64 0.67 0.71 0.73 0.74 0.75 0.78 0.95 0.93 0.85 0.85 0.89 0.88 0.86 0.84 0.86 0.95 0.98 1.01 1.00 0.98 1.02 1.12
0.23 0.22 0.21 0.21 0.21 0.22 0.28 0.34 0.41 0.46 0.49 0.54 0.60 0.63 0.65 0.67 0.68 0.67 0.69 0.73 0.76 0.77 0.81 0.86 0.89 0.89 0.95 1.06 0.97 0.93 0.84 0.85 0.87 0.85 0.80 0.75 0.74 0.78 0.72 0.79 0.84 0.87 0.96
0.17 0.17 0.19 0.18 0.18 0.19 0.24 0.33 0.42 0.49 0.53 0.57 0.59 0.59 0.62 0.67 0.73 0.79 0.86 0.93 0.99 1.01 1.05 1.08 1.10 1.10 1.09 1.08 0.96 0.94 0.81 0.78 0.75 0.71 0.65 0.61 0.56 0.56 0.61 0.64 0.71 0.69 0.69
0.17 0.16 0.17 0.19 0.20 0.22 0.24 0.30 0.41 0.49 0.55 0.61 0.64 0.67 0.72 0.81 0.88 0.98 1.06 1.09 1.15 1.14 1.11 1.08 1.06 1.03 0.99 0.97 0.86 0.78 0.66 0.65 0.62 0.57 0.54 0.54 0.50 0.58 0.66 0.64 0.65 0.56 0.50
0.20 0.17 0.17 0.18 0.23 0.27 0.30 0.37 0.48 0.58 0.65 0.70 0.76 0.79 0.82 0.88 0.92 0.94 0.96 0.96 0.96 0.92 0.87 0.84 0.81 0.78 0.73 0.73 0.68 0.65 0.56 0.53 0.48 0.46 0.47 0.54 0.53 0.60 0.67 0.61 0.58 0.51 0.44
0.31 0.29 0.28 0.29 0.33 0.39 0.47 0.57 0.65 0.76 0.81 0.81 0.85 0.86 0.83 0.84 0.82 0.75 0.69 0.67 0.65 0.60 0.56 0.54 0.54 0.53 0.51 0.52 0.52 0.55 0.51 0.50 0.48 0.45 0.43 0.46 0.58 0.64 0.67 0.60 0.51 0.53 0.56
0.32 0.36 0.40 0.41 0.42 0.49 0.60 0.69 0.76 0.79 0.76 0.69 0.67 0.64 0.57 0.54 0.52 0.49 0.47 0.46 0.47 0.47 0.45 0.42 0.42 0.40 0.40 0.41 0.43 0.46 0.50 0.51 0.49 0.47 0.44 0.47 0.61 0.62 0.61 0.57 0.56 0.62 0.60
0.22 0.26 0.33 0.37 0.36 0.36 0.41 0.46 0.46 0.44 0.43 0.41 0.39 0.38 0.37 0.37 0.37 0.37 0.37 0.38 0.39 0.41 0.41 0.40 0.41 0.40 0.38 0.41 0.46 0.47 0.51 0.54 0.51 0.48 0.52 0.55 0.58 0.56 0.54 0.57 0.60 0.58 0.52
0.19 0.20 0.22 0.25 0.25 0.23 0.23 0.24 0.24 0.24 0.27 0.29 0.30 0.31 0.33 0.34 0.35 0.36 0.35 0.37 0.39 0.39 0.40 0.40 0.40 0.40 0.40 0.39 0.42 0.46 0.50 0.54 0.55 0.55 0.54 0.51 0.49 0.50 0.51 0.53 0.53 0.52 0.53
0.18 0.20 0.25 0.27 0.29 0.27 0.26 0.25 0.26 0.27 0.29 0.32 0.33 0.34 0.36 0.34 0.34 0.36 0.37 0.39 0.42 0.45 0.47 0.45 0.43 0.44 0.43 0.41 0.49 0.54 0.54 0.56 0.59 0.63 0.57 0.53 0.50 0.48 0.47 0.47 0.48 0.50 0.54
0.20 0.21 0.24 0.27 0.31 0.30 0.28 0.28 0.30 0.31 0.32 0.33 0.33 0.34 0.35 0.34 0.33 0.33 0.35 0.40 0.42 0.45 0.47 0.46 0.45 0.43 0.45 0.49 0.54 0.55 0.56 0.60 0.68 0.72 0.61 0.52 0.48 0.48 0.46 0.48 0.50 0.52 0.55

GEFSMW_prec_meanprecacc_240.txt.gz
Total_Precipitation_Accumulation
1.23 1.43 1.74 2.14 2.39 2.66 2.86 3.05 3.11 3.05 3.08 3.22 3.15 2.92 2.63 2.42 2.15 2.04 2.05 2.00 1.93 1.92 1.81 1.61 1.59 1.64 1.53 1.44 1.48 1.50 1.39 1.26 1.16 1.10 0.95 0.88 0.85 0.78 0.60 0.48 0.47 0.48 0.52
0.98 1.14 1.41 1.72 2.02 2.31 2.68 2.89 3.05 3.17 2.99 2.83 2.89 2.88 2.77 2.56 2.35 2.21 2.20 2.06 1.95 1.91 1.91 1.87 1.78 1.79 1.76 1.67 1.58 1.60 1.63 1.53 1.42 1.32 1.24 1.06 0.95 0.79 0.65 0.55 0.50 0.52 0.57
0.83 0.96 1.15 1.37 1.67 1.97 2.32 2.61 2.81 3.02 3.10 3.01 3.06 2.99 2.86 2.63 2.35 2.12 2.07 2.07 2.01 1.96 1.88 1.92 1.95 1.93 1.90 1.80 1.71 1.66 1.64 1.65 1.58 1.50 1.53 1.24 0.95 0.78 0.71 0.61 0.55 0.54 0.56
0.75 0.86 1.02 1.19 1.40 1.71 1.97 2.23 2.55 2.80 2.98 3.09 2.98 2.82 2.60 2.33 2.10 2.07 2.14 2.16 2.08 1.99 1.95 1.92 1.93 1.96 1.92 1.84 1.84 1.85 1.70 1.70 1.70 1.66 1.52 1.30 1.02 0.92 0.80 0.70 0.65 0.60 0.57
0.71 0.78 0.92 1.07 1.24 1.50 1.75 1.92 2.18 2.49 2.63 2.61 2.62 2.64 2.49 2.29 2.18 2.16 2.17 2.11 1.99 1.91 1.86 1.85 1.88 1.87 1.89 1.86 1.88 1.91 1.88 1.78 1.72 1.68 1.62 1.55 1.33 1.12 1.04 0.89 0.77 0.74 0.66
0.75 0.82 0.90 1.01 1.10 1.24 1.48 1.69 1.78 2.01 2.22 2.23 2.29 2.37 2.24 2.14 2.08 1.98 2.01 2.08 1.94 1.79 1.73 1.70 1.71 1.77 1.80 1.81 1.85 1.92 1.97 1.92 1.78 1.67 1.57 1.53 1.43 1.26 1.20 1.07 0.89 0.84 0.74
0.88 0.95 0.95 1.04 1.09 1.16 1.22 1.43 1.57 1.65 1.83 2.00 2.07 2.07 2.12 2.05 1.98 1.85 1.79 1.88 1.90 1.74 1.63 1.61 1.62 1.67 1.69 1.77 1.91 1.97 1.98 2.00 1.93 1.84 1.72 1.61 1.47 1.37 1.37 1.33 1.14 0.98 0.83
1.02 1.07 1.06 1.19 1.24 1.26 1.25 1.32 1.39 1.37 1.46 1.67 1.84 1.87 1.97 1.94 1.80 1.67 1.59 1.57 1.56 1.57 1.58 1.63 1.65 1.67 1.71 1.72 1.78 1.82 1.83 1.89 1.89 1.84 1.76 1.67 1.54 1.51 1.51 1.47 1.51 1.40 1.14
1.08 1.16 1.20 1.24 1.21 1.19 1.26 1.31 1.36 1.30 1.22 1.29 1.43 1.55 1.67 1.70 1.60 1.49 1.39 1.37 1.40 1.41 1.44 1.50 1.57 1.58 1.60 1.62 1.65 1.65 1.63 1.68 1.73 1.74 1.70 1.62 1.49 1.46 1.45 1.45 1.52 1.63 1.46
0.96 1.07 1.09 1.08 1.13 1.15 1.21 1.30 1.34 1.36 1.25 1.21 1.26 1.34 1.37 1.39 1.38 1.35 1.29 1.18 1.16 1.18 1.23 1.31 1.37 1.39 1.38 1.40 1.45 1.48 1.47 1.51 1.49 1.50 1.56 1.55 1.46 1.40 1.38 1.41 1.46 1.53 1.57
0.81 0.85 0.87 0.92 0.98 1.02 1.14 1.27 1.36 1.35 1.23 1.23 1.24 1.22 1.24 1.29 1.25 1.19 1.17 1.17 1.09 1.05 1.10 1.14 1.20 1.22 1.22 1.23 1.26 1.26 1.30 1.36 1.37 1.36 1.37 1.38 1.38 1.42 1.39 1.39 1.44 1.48 1.52
0.75 0.73 0.73 0.71 0.72 0.78 0.88 0.99 1.10 1.11 1.10 1.12 1.17 1.11 1.11 1.21 1.22 1.14 1.09 1.07 1.04 0.94 0.95 0.99 1.03 1.03 1.02 1.03 1.07 1.10 1.13 1.17 1.22 1.22 1.25 1.25 1.26 1.29 1.32 1.37 1.41 1.43 1.42
0.60 0.57 0.58 0.61 0.59 0.61 0.69 0.81 0.90 0.95 1.01 1.05 1.07 1.02 0.99 1.04 1.07 1.09 1.07 1.03 1.02 0.96 0.87 0.86 0.91 0.92 0.91 0.91 0.91 0.93 0.95 0.99 1.04 1.10 1.12 1.14 1.19 1.24 1.24 1.26 1.26 1.25 1.26
0.47 0.44 0.43 0.45 0.45 0.49 0.59 0.67 0.72 0.79 0.88 0.93 0.93 0.89 0.88 0.87 0.86 0.88 0.90 0.89 0.88 0.86 0.84 0.79 0.77 0.80 0.84 0.87 0.88 0.88 0.88 0.89 0.94 1.01 1.07 1.09 1.11 1.12 1.13 1.18 1.18 1.15 1.15
0.33 0.31 0.32 0.33 0.35 0.36 0.42 0.52 0.62 0.69 0.80 0.89 0.92 0.89 0.83 0.79 0.77 0.76 0.73 0.72 0.74 0.76 0.76 0.74 0.73 0.71 0.75 0.79 0.83 0.85 0.88 0.88 0.91 0.92 0.96 1.03 1.15 1.18 1.14 1.11 1.10 1.11 1.15
0.28 0.25 0.23 0.24 0.27 0.30 0.32 0.39 0.50 0.60 0.69 0.79 0.85 0.86 0.82 0.76 0.73 0.70 0.68 0.65 0.66 0.69 0.73 0.75 0.77 0.78 0.81 0.99 0.98 0.90 0.90 0.93 0.92 0.89 0.87 0.89 0.97 0.99 1.03 1.03 1.01 1.06 1.16
0.25 0.23 0.23 0.22 0.22 0.24 0.30 0.38 0.45 0.51 0.55 0.61 0.69 0.73 0.74 0.73 0.71 0.69 0.71 0.76 0.78 0.79 0.84 0.88 0.91 0.91 0.98 1.10 1.00 0.96 0.87 0.89 0.92 0.89 0.83 0.77 0.76 0.80 0.74 0.81 0.87 0.90 1.00
0.19 0.19 0.20 0.20 0.19 0.22 0.27 0.36 0.47 0.53 0.58 0.62 0.65 0.66 0.69 0.72 0.75 0.81 0.88 0.96 1.02 1.03 1.06 1.10 1.12 1.12 1.11 1.11 0.99 0.98 0.84 0.81 0.79 0.74 0.68 0.64 0.59 0.58 0.63 0.65 0.73 0.72 0.72
0.19 0.18 0.19 0.21 0.22 0.24 0.26 0.33 0.45 0.54 0.59 0.65 0.69 0.72 0.79 0.86 0.90 0.99 1.08 1.10 1.17 1.16 1.13 1.10 1.07 1.04 1.00 0.99 0.89 0.81 0.70 0.68 0.65 0.60 0.57 0.56 0.53 0.61 0.69 0.66 0.67 0.58 0.53
0.23 0.21 0.20 0.21 0.25 0.30 0.33 0.40 0.52 0.63 0.70 0.74 0.80 0.83 0.87 0.92 0.95 0.96 0.97 0.98 0.97 0.94 0.90 0.86 0.83 0.79 0.74 0.75 0.70 0.67 0.59 0.56 0.52 0.50 0.51 0.58 0.56 0.63 0.70 0.64 0.61 0.54 0.48
0.34 0.32 0.32 0.33 0.36 0.43 0.51 0.60 0.70 0.82 0.87 0.85 0.89 0.89 0.86 0.86 0.84 0.77 0.71 0.68 0.66 0.62 0.59 0.58 0.57 0.55 0.52 0.54 0.54 0.57 0.54 0.53 0.52 0.49 0.48 0.50 0.62 0.67 0.70 0.63 0.54 0.57 0.60
0.34 0.38 0.43 0.44 0.45 0.53 0.63 0.72 0.80 0.85 0.81 0.74 0.71 0.67 0.60 0.56 0.54 0.51 0.49 0.48 0.49 0.50 0.48 0.46 0.45 0.43 0.41 0.43 0.45 0.48 0.53 0.54 0.52 0.50 0.47 0.50 0.64 0.66 0.64 0.61 0.60 0.65 0.64
0.25 0.29 0.35 0.40 0.38 0.40 0.45 0.49 0.50 0.48 0.47 0.44 0.42 0.41 0.40 0.39 0.39 0.40 0.41 0.42 0.42 0.44 0.44 0.44 0.44 0.43 0.40 0.43 0.48 0.49 0.54 0.58 0.54 0.52 0.55 0.58 0.61 0.60 0.57 0.60 0.64 0.61 0.55
0.22 0.23 0.25 0.28 0.28 0.27 0.27 0.27 0.27 0.27 0.30 0.32 0.33 0.34 0.36 0.36 0.37 0.38 0.38 0.40 0.42 0.43 0.44 0.44 0.44 0.43 0.43 0.42 0.44 0.48 0.52 0.57 0.58 0.58 0.57 0.55 0.52 0.54 0.55 0.56 0.56 0.55 0.56
0.21 0.22 0.27 0.30 0.32 0.30 0.29 0.28 0.29 0.30 0.32 0.34 0.35 0.38 0.39 0.37 0.37 0.39 0.40 0.42 0.45 0.49 0.51 0.49 0.47 0.47 0.46 0.44 0.52 0.56 0.56 0.58 0.61 0.65 0.60 0.55 0.52 0.51 0.49 0.50 0.51 0.53 0.57
0.22 0.23 0.25 0.30 0.34 0.32 0.31 0.31 0.32 0.34 0.35 0.36 0.36 0.37 0.38 0.38 0.37 0.36 0.37 0.43 0.45 0.48 0.49 0.48 0.48 0.46 0.48 0.52 0.56 0.58 0.59 0.63 0.70 0.74 0.63 0.54 0.50 0.50 0.49 0.50 0.53 0.55 0.58

GEFSMW_prec_meanprecacc_246.txt.gz
Total_Precipitation_Accumulation
1.23 1.43 1.74 2.14 2.39 2.67 2.88 3.07 3.15 3.10 3.14 3.28 3.22 3.00 2.71 2.49 2.19 2.06 2.09 2.05 1.97 1.96 1.85 1.65 1.62 1.68 1.57 1.47 1.52 1.56 1.49 1.37 1.25 1.16 0.99 0.91 0.87 0.81 0.62 0.50 0.49 0.50 0.53
0.98 1.14 1.41 1.72 2.03 2.32 2.69 2.91 3.08 3.21 3.05 2.89 2.94 2.94 2.85 2.64 2.44 2.27 2.25 2.10 1.99 1.96 1.96 1.92 1.82 1.83 1.80 1.70 1.61 1.63 1.67 1.60 1.53 1.43 1.32 1.12 0.99 0.83 0.69 0.58 0.53 0.54 0.58
0.83 0.96 1.15 1.37 1.67 1.98 2.33 2.62 2.83 3.06 3.16 3.08 3.13 3.05 2.96 2.74 2.46 2.20 2.13 2.11 2.05 1.99 1.93 1.97 2.00 1.98 1.94 1.83 1.75 1.69 1.66 1.68 1.64 1.58 1.61 1.32 1.01 0.82 0.74 0.64 0.58 0.56 0.58
0.75 0.86 1.02 1.19 1.40 1.71 1.98 2.24 2.57 2.83 3.03 3.16 3.06 2.88 2.66 2.42 2.20 2.15 2.20 2.20 2.11 2.01 1.99 1.96 1.97 2.01 1.96 1.86 1.87 1.87 1.72 1.72 1.74 1.70 1.56 1.35 1.08 0.97 0.84 0.73 0.69 0.63 0.60
0.72 0.79 0.92 1.07 1.24 1.51 1.76 1.93 2.20 2.52 2.68 2.68 2.70 2.70 2.53 2.36 2.27 2.28 2.27 2.19 2.05 1.95 1.90 1.89 1.92 1.92 1.93 1.89 1.90 1.92 1.90 1.80 1.74 1.71 1.65 1.58 1.36 1.16 1.09 0.93 0.81 0.78 0.70
0.77 0.83 0.91 1.02 1.11 1.25 1.49 1.71 1.80 2.03 2.25 2.30 2.36 2.44 2.29 2.19 2.15 2.08 2.13 2.20 2.03 1.85 1.79 1.75 1.75 1.81 1.84 1.83 1.86 1.93 1.98 1.94 1.80 1.69 1.58 1.55 1.46 1.29 1.22 1.10 0.92 0.88 0.77
0.89 0.96 0.97 1.07 1.11 1.18 1.23 1.45 1.59 1.67 1.86 2.04 2.13 2.14 2.17 2.09 2.03 1.92 1.88 2.01 2.04 1.84 1.70 1.67 1.67 1.71 1.73 1.79 1.92 1.98 1.99 2.01 1.94 1.85 1.73 1.62 1.49 1.40 1.40 1.36 1.16 1.01 0.87
1.03 1.08 1.08 1.21 1.26 1.27 1.26 1.34 1.42 1.40 1.50 1.71 1.89 1.92 2.02 1.97 1.83 1.72 1.65 1.66 1.70 1.71 1.69 1.71 1.71 1.72 1.75 1.75 1.79 1.83 1.84 1.90 1.91 1.86 1.77 1.68 1.55 1.53 1.52 1.50 1.55 1.43 1.16
1.09 1.18 1.21 1.25 1.23 1.21 1.28 1.33 1.39 1.33 1.27 1.35 1.48 1.59 1.71 1.73 1.63 1.53 1.44 1.43 1.49 1.52 1.56 1.61 1.67 1.66 1.65 1.65 1.67 1.67 1.64 1.70 1.76 1.76 1.72 1.64 1.50 1.47 1.46 1.47 1.55 1.66 1.50
0.98 1.09 1.11 1.10 1.14 1.17 1.22 1.33 1.37 1.39 1.30 1.27 1.30 1.39 1.41 1.42 1.40 1.38 1.33 1.24 1.23 1.26 1.31 1.40 1.46 1.48 1.47 1.47 1.51 1.52 1.50 1.53 1.52 1.52 1.58 1.56 1.47 1.41 1.39 1.43 1.48 1.55 1.60
0.83 0.86 0.89 0.93 0.99 1.04 1.16 1.30 1.39 1.39 1.27 1.28 1.30 1.27 1.28 1.33 1.28 1.21 1.21 1.22 1.16 1.12 1.17 1.21 1.27 1.29 1.28 1.31 1.34 1.33 1.35 1.40 1.40 1.38 1.39 1.39 1.40 1.43 1.40 1.40 1.45 1.49 1.54
0.77 0.75 0.74 0.73 0.73 0.79 0.90 1.02 1.14 1.17 1.16 1.18 1.24 1.17 1.16 1.27 1.26 1.17 1.12 1.12 1.10 1.00 1.00 1.05 1.09 1.08 1.06 1.07 1.12 1.16 1.18 1.22 1.26 1.25 1.27 1.27 1.28 1.31 1.34 1.38 1.42 1.44 1.44
0.61 0.59 0.59 0.62 0.60 0.63 0.71 0.83 0.92 0.99 1.07 1.11 1.13 1.08 1.04 1.09 1.12 1.14 1.11 1.07 1.07 1.01 0.92 0.91 0.95 0.96 0.94 0.93 0.94 0.95 0.98 1.03 1.07 1.13 1.15 1.16 1.21 1.26 1.26 1.28 1.28 1.27 1.28
0.48 0.45 0.44 0.46 0.47 0.50 0.61 0.69 0.74 0.82 0.94 1.01 1.00 0.96 0.95 0.93 0.92 0.94 0.96 0.94 0.92 0.90 0.88 0.82 0.80 0.83 0.88 0.90 0.91 0.91 0.90 0.92 0.97 1.03 1.09 1.11 1.13 1.14 1.16 1.20 1.20 1.18 1.18
0.34 0.32 0.33 0.34 0.36 0.37 0.43 0.54 0.64 0.72 0.85 0.96 0.98 0.95 0.91 0.86 0.84 0.82 0.79 0.77 0.79 0.80 0.81 0.78 0.76 0.75 0.78 0.83 0.87 0.88 0.90 0.91 0.93 0.95 0.98 1.06 1.17 1.20 1.16 1.13 1.13 1.14 1.19
0.29 0.26 0.24 0.25 0.28 0.31 0.33 0.40 0.52 0.63 0.73 0.84 0.91 0.92 0.89 0.85 0.81 0.76 0.73 0.70 0.71 0.75 0.78 0.79 0.80 0.81 0.84 1.02 1.01 0.92 0.92 0.95 0.94 0.92 0.90 0.92 1.00 1.02 1.06 1.05 1.04 1.09 1.19
0.26 0.24 0.23 0.23 0.23 0.25 0.32 0.39 0.47 0.52 0.58 0.66 0.74 0.79 0.79 0.80 0.79 0.76 0.77 0.81 0.83 0.83 0.88 0.92 0.95 0.94 1.01 1.13 1.03 1.00 0.90 0.91 0.93 0.91 0.85 0.80 0.79 0.84 0.77 0.84 0.90 0.94 1.04
0.20 0.20 0.21 0.21 0.20 0.23 0.28 0.37 0.48 0.55 0.60 0.66 0.71 0.71 0.74 0.79 0.82 0.88 0.93 1.00 1.05 1.06 1.09 1.13 1.14 1.14 1.13 1.13 1.02 1.01 0.87 0.83 0.81 0.76 0.70 0.66 0.62 0.62 0.66 0.69 0.77 0.75 0.75
0.22 0.21 0.21 0.22 0.24 0.26 0.28 0.34 0.46 0.55 0.61 0.68 0.73 0.76 0.83 0.92 0.96 1.05 1.12 1.14 1.19 1.19 1.16 1.13 1.09 1.06 1.02 1.01 0.91 0.84 0.72 0.70 0.67 0.63 0.59 0.59 0.56 0.64 0.72 0.69 0.70 0.61 0.56
0.25 0.24 0.23 0.23 0.27 0.32 0.35 0.42 0.54 0.64 0.71 0.77 0.84 0.87 0.91 0.97 1.00 1.00 1.01 1.00 1.00 0.97 0.93 0.89 0.85 0.81 0.75 0.76 0.72 0.70 0.61 0.58 0.54 0.52 0.53 0.60 0.58 0.66 0.74 0.67 0.63 0.57 0.50
0.36 0.36 0.35 0.36 0.40 0.46 0.53 0.62 0.71 0.84 0.89 0.88 0.92 0.92 0.89 0.90 0.88 0.80 0.73 0.71 0.69 0.64 0.62 0.60 0.59 0.57 0.54 0.55 0.56 0.59 0.56 0.55 0.53 0.51 0.49 0.52 0.65 0.70 0.73 0.67 0.57 0.61 0.63
0.36 0.41 0.45 0.46 0.47 0.56 0.66 0.75 0.82 0.87 0.83 0.76 0.73 0.71 0.63 0.59 0.57 0.55 0.53 0.52 0.52 0.52 0.51 0.49 0.48 0.45 0.44 0.45 0.47 0.50 0.55 0.57 0.54 0.52 0.49 0.52 0.67 0.69 0.68 0.64 0.64 0.70 0.68
0.26 0.30 0.37 0.41 0.41 0.44 0.49 0.53 0.53 0.50 0.49 0.47 0.45 0.45 0.43 0.42 0.42 0.43 0.44 0.45 0.45 0.47 0.47 0.47 0.48 0.48 0.44 0.46 0.51 0.52 0.57 0.61 0.57 0.54 0.57 0.60 0.64 0.63 0.61 0.63 0.68 0.66 0.59
0.23 0.24 0.27 0.30 0.30 0.30 0.31 0.30 0.29 0.29 0.32 0.35 0.37 0.38 0.40 0.39 0.40 0.41 0.41 0.44 0.47 0.47 0.47 0.47 0.47 0.48 0.46 0.45 0.47 0.51 0.54 0.59 0.61 0.61 0.59 0.57 0.55 0.56 0.58 0.59 0.60 0.59 0.60
0.22 0.24 0.29 0.32 0.35 0.33 0.32 0.31 0.31 0.33 0.35 0.38 0.40 0.42 0.42 0.41 0.40 0.41 0.42 0.45 0.49 0.54 0.56 0.54 0.51 0.52 0.50 0.48 0.56 0.60 0.58 0.60 0.63 0.68 0.62 0.57 0.54 0.53 0.52 0.53 0.54 0.56 0.61
0.23 0.24 0.27 0.32 0.36 0.35 0.33 0.33 0.34 0.36 0.38 0.39 0.40 0.42 0.43 0.42 0.40 0.38 0.39 0.45 0.48 0.51 0.53 0.52 0.52 0.49 0.51 0.55 0.59 0.61 0.62 0.66 0.73 0.77 0.66 0.57 0.52 0.52 0.51 0.52 0.56 0.58 0.61